[[{"header":{"parameterUnit":"m.s-1","parameterCategory":1,"la1":31.0,"la2":29.5877,"lo1":-88.7671,"lo2":-86.6584,"dy":0.0162,"dx":0.0185,"nx":115,"ny":88,"refTime":"2026-03-13T00:00:00:Z","depth":0,"parameterNumber":2,"parameterNumberName":"U-component_of_WINDS"},"data":[0.0,0.0,0.0,0.0,0.0,0.0,0.0,0.0,0.0,0.0,0.0,0.0,0.0,0.0,0.0,0.0,0.0,0.0,0.0,0.0,0.0,0.0,0.0,0.0,0.0,0.0,0.0,0.0,0.0,0.0,0.0,0.0,0.0,0.0,0.0,0.0,0.0,0.0,0.0,0.0,0.0,0.0,0.0,0.0,0.0,0.0,0.0,0.0,0.0,0.0,0.0,0.0,0.0,0.0,0.0,0.0,0.0,0.0,0.0,0.0,0.0,0.0,0.0,0.0,0.0,0.0,0.0,0.0,0.0,0.0,0.0,0.0,0.0,0.0,0.0,0.0,0.0,0.0,0.0,0.0,0.0,0.0,0.0,0.0,0.0,0.0,0.0,0.0,0.0,0.0,0.0,0.0,0.0,0.0,0.0,0.0,0.0,0.0,0.0,0.0,0.0,0.0,0.0,0.0,0.0,0.0,0.0,0.0,0.0,0.0,0.0,0.0,0.0,0.0,0.0,0.0,0.0,0.0,0.0,0.0,0.0,0.0,0.0,0.0,0.0,0.0,0.0,0.0,0.0,0.0,0.0,0.0,0.0,0.0,0.0,0.0,0.0,0.0,0.0,0.0,0.0,0.0,0.0,0.0,0.0,0.0,0.0,0.0,0.0,0.0,0.0,0.0,0.0,0.0,0.0,0.0,0.0,0.0,0.0,0.0,0.0,0.0,0.0,0.0,0.0,0.0,0.0,0.0,0.0,0.0,0.0,0.0,0.0,0.0,0.0,0.0,0.0,0.0,0.0,0.0,0.0,0.0,0.0,0.0,0.0,0.0,0.0,0.0,0.0,0.0,0.0,0.0,0.0,0.0,0.0,0.0,0.0,0.0,0.0,0.0,0.0,0.0,0.0,0.0,0.0,0.0,0.0,0.0,0.0,0.0,0.0,0.0,0.0,0.0,0.0,0.0,0.0,0.0,0.0,0.0,0.0,0.0,0.0,0.0,0.0,0.0,0.0,0.0,0.0,0.0,0.0,0.0,0.0,0.0,0.0,0.0,0.0,0.0,0.0,0.0,0.0,0.0,0.0,0.0,0.0,0.0,0.0,0.0,0.0,0.0,0.0,0.0,0.0,0.0,0.0,0.0,0.0,0.0,0.0,0.0,0.0,0.0,0.0,0.0,0.0,0.0,0.0,0.0,0.0,0.0,0.0,0.0,0.0,0.0,0.0,0.0,0.0,0.0,0.0,0.0,0.0,0.0,0.0,0.0,0.0,0.0,0.0,0.0,0.0,0.0,0.0,0.0,0.0,0.0,0.0,0.0,0.0,0.0,0.0,0.0,0.0,0.0,0.0,0.0,0.0,0.0,0.0,0.0,0.0,0.0,0.0,0.0,0.0,0.0,0.0,0.0,0.0,0.0,0.0,0.0,0.0,0.0,0.0,0.0,0.0,0.0,0.0,0.0,0.0,0.0,0.0,0.0,0.0,0.0,0.0,0.0,0.0,0.0,0.0,0.0,0.0,0.0,0.0,0.0,0.0,0.0,0.0,0.0,0.0,0.0,0.0,0.0,0.0,0.0,0.0,0.0,0.0,0.0,0.0,0.0,0.0,0.0,0.0,0.0,0.0,0.0,0.0,0.0,0.0,0.0,0.0,0.0,0.0,0.0,0.0,0.0,0.0,0.0,0.0,0.0,0.0,0.0,0.0,0.0,0.0,0.0,0.0,0.0,0.0,0.0,0.0,0.0,0.0,0.0,0.0,0.0,0.0,0.0,0.0,0.0,0.0,0.0,0.0,0.0,0.0,0.0,0.0,0.0,0.0,0.0,0.0,0.0,0.0,0.0,0.0,0.0,0.0,0.0,0.0,0.0,0.0,0.0,0.0,0.0,0.0,0.0,0.0,0.0,0.0,0.0,0.0,0.0,0.0,0.0,0.0,0.0,0.0,0.0,0.0,0.0,0.0,0.0,0.0,0.0,0.0,0.0,0.0,0.0,0.0,0.0,0.0,0.0,0.0,0.0,0.0,0.0,0.0,0.0,0.0,0.0,0.0,0.0,0.0,0.0,0.0,0.0,0.0,0.0,0.0,0.0,0.0,0.0,0.0,0.0,0.0,0.0,0.0,0.0,0.0,0.0,0.0,0.0,0.0,0.0,0.0,0.0,0.0,0.0,0.0,0.0,0.0,0.0,0.0,0.0,0.0,0.0,0.0,0.0,0.0,0.0,0.0,0.0,0.0,0.0,0.0,0.0,0.0,0.0,0.0,0.0,0.0,0.0,0.0,0.0,0.0,0.0,0.0,0.0,0.0,0.0,0.0,0.0,0.0,0.0,0.0,0.0,0.0,0.0,0.0,0.0,0.0,0.0,0.0,0.0,0.0,0.0,0.0,0.0,0.0,0.0,0.0,0.0,0.0,0.0,0.0,0.0,0.0,0.0,0.0,0.0,0.0,0.0,0.0,0.0,0.0,0.0,0.0,0.0,0.0,0.0,0.0,0.0,0.0,0.0,0.0,0.0,0.0,0.0,0.0,0.0,0.0,0.0,0.0,0.0,0.0,0.0,0.0,0.0,0.0,0.0,0.0,0.0,0.0,0.0,0.0,0.0,0.0,0.0,0.0,0.0,0.0,0.0,0.0,0.0,0.0,0.0,0.0,0.0,0.0,0.0,0.0,0.0,0.0,0.0,0.0,0.0,0.0,0.0,0.0,0.0,0.0,0.0,0.0,0.0,0.0,0.0,0.0,0.0,0.0,0.0,0.0,0.0,0.0,0.0,0.0,0.0,0.0,0.0,0.0,0.0,0.0,0.0,0.0,0.0,0.0,0.0,0.0,0.0,0.0,0.0,0.0,0.0,0.0,0.0,0.0,0.0,0.0,0.0,0.0,0.0,0.0,0.0,0.0,0.0,0.0,0.0,0.0,0.0,0.0,0.0,0.0,0.0,0.0,0.0,0.0,0.0,0.0,0.0,0.0,0.0,0.0,0.0,0.0,0.0,0.0,0.0,0.0,0.0,0.0,0.0,0.0,0.0,0.0,0.0,0.0,0.0,0.0,0.0,0.0,0.0,0.0,0.0,0.0,0.0,0.0,0.0,0.0,0.0,0.0,0.0,0.0,0.0,0.0,0.0,0.0,0.0,0.0,0.0,0.0,0.0,0.0,0.0,0.0,0.0,0.0,0.0,0.0,0.0,0.0,0.0,0.0,0.0,0.0,0.0,0.0,0.0,0.0,0.0,0.0,0.0,0.0,0.0,0.0,0.0,0.0,0.0,0.0,0.0,0.0,0.0,0.0,0.0,0.0,0.0,0.0,0.0,0.0,0.0,0.0,0.0,0.0,0.0,0.0,0.0,0.0,0.0,0.0,0.0,0.0,0.0,0.0,0.0,0.0,0.0,0.0,0.0,0.0,0.0,0.0,0.0,0.0,0.0,0.0,0.0,0.0,0.0,0.0,0.0,0.0,0.0,0.0,0.0,0.0,0.0,0.0,0.0,0.0,0.0,0.0,0.0,0.0,0.0,0.0,0.0,0.0,0.0,0.0,0.0,0.0,0.0,0.0,0.0,0.0,0.0,0.0,0.0,0.0,0.0,0.0,0.0,0.0,0.0,0.0,0.0,0.0,0.0,0.0,0.0,0.0,0.0,0.0,0.0,0.0,0.0,0.0,0.0,0.0,0.0,0.0,0.0,0.0,0.0,0.0,0.0,0.0,0.0,0.0,0.0,0.0,0.0,0.0,0.0,0.0,0.0,0.0,0.0,0.0,0.0,0.0,0.0,0.0,0.0,0.0,0.0,0.0,0.0,0.0,0.0,0.0,0.0,0.0,0.0,0.0,0.0,0.0,0.0,0.0,0.0,0.0,0.0,0.0,0.0,0.0,0.0,0.0,0.0,0.0,0.0,0.0,0.0,0.0,0.0,0.0,0.0,0.0,0.0,0.0,0.0,0.0,0.0,0.0,0.0,0.0,0.0,0.0,0.0,0.0,0.0,0.0,0.0,0.0,0.0,0.0,0.0,0.0,0.0,0.0,0.0,0.0,0.0,0.0,0.0,0.0,0.0,0.0,0.0,0.0,0.0,0.0,0.0,0.0,0.0,0.0,0.0,0.0,0.0,0.0,0.0,0.0,0.0,0.0,0.0,0.0,0.0,0.0,0.0,0.0,0.0,0.0,0.0,0.0,0.0,0.0,0.0,0.0,0.0,0.0,0.0,0.0,0.0,0.0,0.0,0.0,0.0,0.0,0.0,0.0,0.0,0.0,0.0,0.0,0.0,0.0,0.0,0.0,0.0,0.3053,0.0,0.0,0.0,0.0,0.0,0.0,0.0,0.0,0.0,0.0,0.0,0.0,0.0,0.0,0.0,0.0,0.0,0.0,0.0,0.0,0.0,0.0,0.0,0.0,0.0,0.0,0.0,0.0,0.0,0.0,0.0,0.0,0.0,0.0,0.0,0.0,0.0,0.0,0.0,0.0,0.0,0.0,0.0,0.0,0.0,0.0,0.0,0.0,0.0,0.0,0.0,0.0,0.0,0.0,0.0,0.0,0.0,0.0,0.0,0.0,0.0,0.0,0.0,0.0,0.0,0.0,0.0,0.0,0.0,0.0,0.0,0.0,0.0,0.0,0.0,0.0,0.0,0.0,0.0,0.0,0.0,0.0,0.0,0.0,0.0,0.0,0.0,0.0,0.0,0.0,0.0,0.0,0.0,0.0,0.0,0.0,0.0,0.0,0.0,0.0,0.0,0.0,0.0,0.0,0.0,0.0,0.0,0.0,0.0,0.0,0.691,0.6124,0.5307,0.4395,0.3451,0.0,0.0,0.0,0.0,0.0,0.0,0.0,0.0,0.0,0.0,0.0,0.0,0.0,0.0,0.0,0.0,0.0,0.0,0.0,0.0,0.0,0.0,0.0,0.0,0.0,0.0,0.0,0.0,0.0,0.0,0.0,0.0,0.0,0.0,0.0,0.0,0.0,0.0,0.0,0.0,0.0,0.0,0.0,0.0,0.0,0.0,0.0,0.0,0.0,0.0,0.0,0.0,0.0,0.0,0.0,0.0,0.0,0.0,0.0,0.0,0.0,0.0,0.0,0.0,0.0,0.0,0.0,0.0,0.0,0.0,0.0,0.0,0.0,0.0,0.0,0.0,0.0,0.0,0.0,0.0,0.0,0.0,0.0,0.0,0.0,0.0,0.0,0.0,0.0,0.0,0.0,0.0,0.0,0.0,0.0,0.0,0.0,0.0,0.0,0.0,0.0,0.0,0.0,0.0,0.0,0.0,0.0,0.0,0.0,0.0,0.0,0.0,0.5438,0.4508,0.3494,0.0,0.0,0.0,0.0,0.0,0.0,0.0,0.0,0.0,0.0,0.0,0.0,0.0,0.0,0.0,0.0,0.0,0.0,0.0,0.0,0.0,0.0,0.0,0.0,0.0,0.0,0.0,0.0,0.0,0.0,0.0,0.0,0.0,0.0,0.0,0.0,0.0,0.0,0.0,0.0,0.0,0.0,0.0,0.0,0.0,0.0,0.0,0.0,0.0,0.0,0.0,0.0,0.0,0.0,0.0,0.0,0.0,0.0,0.0,0.0,0.0,0.0,0.0,0.0,0.0,0.0,0.0,0.0,0.0,0.0,0.0,0.0,0.0,0.0,0.0,0.0,0.0,0.0,0.0,0.0,0.0,0.0,0.0,0.0,0.0,0.0,0.0,0.0,0.0,0.0,0.0,0.0,0.0,0.0,0.0,0.0,0.0,0.0,0.0,0.0,0.0,0.0,0.0,0.0,0.0,0.0,0.0,0.0,0.0,0.0,0.713,0.6392,0.5653,0.0,0.2882,0.0,0.0,0.0,0.0,0.0,0.0,0.0,0.0,0.0,0.0,0.0,0.0,0.0,0.0,0.0,0.0,0.0,0.0,0.0,0.0,0.0,0.0,0.0,0.0,0.0,0.0,0.0,0.0,0.0,0.0,0.0,0.0,0.0,0.0,0.0,0.0,0.0,0.0,0.0,0.0,0.0,0.0,0.0,0.0,0.0,0.0,0.0,0.0,0.0,0.0,0.0,0.0,0.0,0.0,0.0,0.0,0.0,0.0,0.0,0.0,0.0,0.0,0.0,0.0,0.0,0.0,0.0,0.0,0.0,0.0,0.0,0.0,0.0,0.0,0.0,0.0,0.0,0.0,0.0,0.0,0.0,0.0,0.0,0.0,0.0,0.0,0.0,0.0,0.0,0.0,0.0,0.0,0.0,0.0,0.0,0.0,0.0,0.0,0.0,0.0,0.0,0.0,0.0,0.0,0.0,0.0,0.0,0.0,0.0,0.0,0.7148,0.6421,0.5144,0.3894,0.0,0.0,0.0,0.0,0.0,0.0,0.0,0.0,0.0,0.0,0.0,0.0,0.0,0.0,0.0,0.0,0.0,0.0,0.0,0.0,0.0,0.0,0.0,0.0,0.0,0.0,0.0,0.0,0.0,0.0,0.0,0.0,0.0,0.0,0.0,0.0,0.0,0.0,0.0,0.0,0.0,0.0,0.0,0.0,0.0,0.0,0.0,0.0,0.0,0.0,0.0,0.0,0.0,0.0,0.0,0.0,0.0,0.0,0.0,0.0,0.0,0.0,0.0,0.0,0.0,0.0,0.0,0.0,0.0,0.0,0.0,0.0,0.0,0.0,0.0,0.0,0.0,0.0,0.0,0.0,0.0,0.0,0.0,0.0,0.0,0.0,0.0,0.0,0.0,0.0,0.0,0.0,0.0,0.0,0.0,0.0,0.0,0.0,0.0,0.0,0.0,0.0,0.0,0.0,0.0,0.0,0.0,0.0,0.0,0.0,0.7753,0.0,0.6042,0.4614,0.3468,0.2657,0.0,0.0,0.0,0.0,0.0,0.0,0.0,0.0,0.0,0.0,0.0,0.0,0.0,0.0,0.0,0.0,0.0,0.0,0.0,0.0,0.0,0.0,0.0,0.0,0.0,0.0,0.0,0.0,0.0,0.0,0.0,0.0,0.0,0.0,0.0,0.0,0.0,0.0,0.0,0.0,0.0,0.0,0.0,0.0,0.0,0.0,0.0,0.0,0.0,0.0,0.0,0.0,0.0,0.0,0.0,0.0,0.0,0.0,0.0,0.0,0.0,0.0,0.0,0.0,0.0,0.0,0.0,0.0,0.0,0.0,0.0,0.0,0.0,0.0,0.0,0.0,0.0,0.0,0.0,0.0,0.0,0.0,0.0,0.0,0.0,0.0,0.0,0.0,0.0,0.0,0.0,0.0,0.0,0.0,0.0,0.0,0.0,0.0,0.0,0.0,0.0,0.0,0.0,0.0,0.0,0.0,0.0,0.0,0.0,0.7738,0.673,0.5228,0.4224,0.3376,0.0,0.0,0.0,0.0,0.0,0.0,0.0,0.0,0.0,0.0,0.0,0.0,0.0,0.0,0.0,0.0,0.0,0.0,0.0,0.0,0.0,0.0,0.0,0.0,0.0,0.0,0.0,0.0,0.0,0.0,0.0,0.0,0.0,0.0,0.0,0.0,0.0,0.0,0.0,0.0,0.0,0.0,0.0,0.0,0.0,0.0,0.0,0.0,0.0,0.0,0.0,0.0,0.0,0.0,0.0,0.0,0.0,0.0,0.0,0.0,0.0,0.0,0.0,0.0,0.0,0.0,0.0,0.0,0.0,0.0,0.0,0.0,0.0,0.0,0.0,0.0,0.0,0.0,0.0,0.0,0.0,0.0,0.0,0.0,0.0,0.0,0.0,0.0,0.0,0.0,0.0,0.0,0.0,0.0,0.0,0.0,0.0,0.0,0.0,0.0,0.0,0.0,0.0,0.0,0.0,0.0,0.0,0.0,0.0,0.8238,0.7233,0.6106,0.4953,0.4001,0.3129,0.0,0.0,0.0,0.0,0.0,0.0,0.0,0.0,0.0,0.0,0.0,0.0,0.0,0.0,0.0,0.0,0.0,0.0,0.0,0.0,0.0,0.0,0.0,0.0,0.0,0.0,0.0,0.0,0.0,0.0,0.0,0.0,0.0,0.0,0.0,0.0,0.0,0.0,0.0,0.0,0.0,0.0,0.0,0.0,0.0,0.0,0.0,0.0,0.0,0.0,0.0,0.0,0.0,0.0,0.0,0.0,0.0,0.0,0.0,0.0,0.0,0.0,0.0,0.0,0.0,0.0,0.0,0.0,0.0,0.0,0.0,0.0,0.0,0.0,0.0,0.0,0.0,0.0,0.0,0.0,0.0,0.0,0.0,0.0,0.0,0.0,0.0,0.0,0.0,0.0,0.0,0.0,0.0,0.0,0.0,0.0,0.0,0.0,0.0,0.0,0.0,0.0,0.0,0.0,0.0,0.0,0.0,0.0,0.0,0.775,0.0,0.5577,0.0,0.3678,0.2863,0.0,0.0,0.0,0.0,0.0,0.0,0.0,0.0,0.0,0.0,0.0,0.0,0.0,0.0,0.0,0.0,0.0,0.0,0.0,0.0,0.0,0.0,0.0,0.0,0.0,0.0,0.0,0.0,0.0,0.0,0.0,0.0,0.0,0.0,0.0,0.0,0.0,0.0,0.0,0.0,0.0,0.0,0.0,0.0,0.0,0.0,0.0,0.0,0.0,0.0,0.0,0.0,0.0,0.0,0.0,0.0,0.0,0.0,0.0,0.0,0.0,0.0,0.0,0.0,0.0,0.0,0.0,0.0,0.0,0.0,0.0,0.0,0.0,0.0,0.0,0.0,0.0,0.0,0.0,0.0,0.0,0.0,0.0,0.0,0.0,0.0,0.0,0.0,0.0,0.0,0.0,0.0,0.0,0.0,0.0,0.0,0.0,0.0,0.0,0.0,0.0,0.0,0.0,0.0,0.0,0.0,0.0,0.0,0.8282,0.6685,0.6132,0.522,0.3843,0.3194,0.255,0.0,0.0,0.0,0.0,0.0,0.0,0.0,0.0,0.0,0.0,0.0,0.0,0.0,0.0,0.0,0.0,0.0,0.0,0.0,0.0,0.0,0.0,0.0,0.0,0.0,0.0,0.0,0.0,0.0,0.0,0.0,0.0,0.0,0.0,0.0,0.0,0.0,0.0,0.0,0.0,0.0,0.0,0.0,0.0,0.0,0.0,0.0,0.0,0.0,0.0,0.0,0.0,0.0,0.0,0.0,0.0,0.0,0.0,0.0,0.0,0.0,0.0,0.0,0.0,0.0,0.0,0.0,0.0,0.0,0.0,0.0,0.0,0.0,0.0,0.0,0.0,0.0,0.0,0.0,0.0,0.0,0.0,0.0,0.0,0.0,0.0,0.0,0.0,0.0,0.0,0.0,0.0,0.0,0.0,0.0,0.0,0.0,0.0,0.0,0.0,0.0,0.0,0.0,0.0,0.0,0.0,0.0,0.0,0.0,0.6564,0.5845,0.4832,0.3493,0.2699,0.1969,0.0,0.0,0.0,0.0,0.0,0.0,0.0,0.0,0.0,0.0,0.0,0.0,0.0,0.0,0.0,0.0,0.0,0.0,0.0,0.0,0.0,0.0,0.0,0.0,0.0,0.0,0.0,0.0,0.0,0.0,0.0,0.0,0.0,0.0,0.0,0.0,0.0,0.0,0.0,0.0,0.0,0.0,0.0,0.0,0.0,0.0,0.0,0.0,0.0,0.0,0.0,0.0,0.0,0.0,0.0,0.0,0.0,0.0,0.0,0.0,0.0,0.0,0.0,0.0,0.0,0.0,0.0,0.0,0.0,0.0,0.0,0.0,0.0,0.0,0.0,0.0,0.0,0.0,0.0,0.0,0.0,0.0,0.0,0.0,0.0,0.0,0.0,0.0,0.0,0.0,0.0,0.0,0.0,0.0,0.0,0.0,0.0,0.0,0.0,0.0,0.0,0.0,0.0,0.0,0.0,0.0,0.0,0.0,0.0,0.6202,0.5524,0.444,0.2906,0.2173,0.1515,0.089,0.0,0.0,0.0,0.0,0.0,0.0,0.0,0.0,0.0,0.0,0.0,0.0,0.0,0.0,0.0,0.0,0.0,0.0,0.0,0.0,0.0,0.0,0.0,0.0,0.0,0.0,0.0,0.0,0.0,0.0,0.0,0.0,0.0,0.0,0.0,0.0,0.0,0.0,0.0,0.0,0.0,0.0,0.0,0.0,0.0,0.0,0.0,0.0,0.0,0.0,0.0,0.0,0.0,0.0,0.0,0.0,0.0,0.0,0.0,0.0,0.0,0.0,0.0,0.0,0.0,0.0,0.0,0.0,0.0,0.0,0.0,0.0,0.0,0.0,0.0,0.0,0.0,0.0,0.0,0.0,0.0,0.0,0.0,0.0,0.0,0.0,0.0,0.0,0.0,0.0,0.0,0.0,0.0,0.0,0.0,0.0,0.0,0.0,0.0,0.0,0.0,0.0,0.0,0.0,0.0,0.0,0.0,0.0,0.5595,0.5122,0.3975,0.2138,0.167,0.1177,0.0,0.0,0.0,0.0,0.0,0.0,0.0,0.0,0.0,0.0,0.0,0.0,0.0,0.0,0.0,0.0,0.0,0.0,0.0,0.0,0.0,0.0,0.0,0.0,0.0,0.0,0.0,0.0,0.0,0.0,0.0,0.0,0.0,0.0,0.0,0.0,0.0,0.0,0.0,0.0,0.0,0.0,0.0,0.0,0.0,0.0,0.0,0.0,0.0,0.0,0.0,0.0,0.0,0.0,0.0,0.0,0.0,0.0,0.0,0.0,0.0,0.0,0.0,0.0,0.0,0.0,0.0,0.0,0.0,0.0,0.0,0.0,0.0,0.0,0.0,0.0,0.0,0.0,0.0,0.0,0.0,0.0,0.0,0.0,0.0,0.0,0.0,0.0,0.0,0.0,0.0,0.0,0.0,0.0,0.0,0.0,0.0,0.0,0.0,0.0,0.0,0.0,0.0,0.0,0.0,0.0,0.0,0.0,0.0,0.5468,0.4196,0.2941,0.1776,0.1152,0.065,0.0,0.0,0.0,0.0,0.0,0.0,0.0,0.0,0.0,0.0,0.0,0.0,0.0,0.0,0.0,0.0,0.0,0.0,0.0,0.0,0.0,0.0,0.0,0.0,0.0,0.0,0.0,0.0,0.0,0.0,0.0,0.0,0.0,0.0,0.0,0.0,0.0,0.0,0.0,0.0,0.0,0.0,0.0,0.0,0.0,0.0,0.0,0.0,0.0,0.0,0.0,0.0,0.0,0.0,0.0,0.0,0.0,0.0,0.0,0.0,0.0,0.0,0.0,0.0,0.0,0.0,0.0,0.0,0.0,0.0,0.0,0.0,0.0,0.0,0.0,0.0,0.0,0.0,0.0,0.0,0.0,0.0,0.0,0.0,0.0,0.0,0.0,0.0,0.0,0.0,0.0,0.0,0.0,0.0,0.0,0.0,0.0,0.0,0.0,0.0,0.0,0.0,0.0,0.0,0.0,0.0,0.0,0.0,0.622,0.4756,0.3146,0.1924,0.1116,0.0683,0.0311,0.0,0.0,0.0,0.0,0.0,0.0,0.0,0.0,0.0,0.0,0.0,0.0,0.0,0.0,0.0,0.0,0.0,0.0,0.0,0.0,0.0,0.0,0.0,0.0,0.0,0.0,0.0,0.0,0.0,0.0,0.0,0.0,0.0,0.0,0.0,0.0,0.0,0.0,0.0,0.0,0.0,0.0,0.0,0.0,0.0,0.0,0.0,0.0,0.0,0.0,0.0,0.0,0.0,0.0,0.0,0.0,0.0,0.0,0.0,0.0,0.0,0.0,0.0,0.0,0.0,0.0,0.0,0.0,0.0,0.0,0.0,0.0,0.0,0.0,0.0,0.0,0.0,0.0,0.0,0.0,0.0,0.0,0.0,0.0,0.0,0.0,0.0,0.0,0.0,0.0,0.0,0.0,0.0,0.0,0.0,0.0,0.0,0.0,0.0,0.0,0.0,0.0,0.0,0.0,0.0,0.0,0.0,0.0,0.5432,0.3779,0.2148,0.1013,0.0362,0.0251,0.0101,0.0,0.0,0.0,0.0,0.0,0.0,0.0,0.0,0.0,0.0,0.0,0.0,0.0,0.0,0.0,0.0,0.0,0.0,0.0,0.0,0.0,0.0,0.0,0.0,0.0,0.0,0.0,0.0,0.0,0.0,0.0,0.0,0.0,0.0,0.0,0.0,0.0,0.0,0.0,0.0,0.0,0.0,0.0,0.0,0.0,0.0,0.0,0.0,0.0,0.0,0.0,0.0,0.0,0.0,0.0,0.0,0.0,0.0,0.0,0.0,0.0,0.0,0.0,0.0,0.0,0.0,0.0,0.0,0.0,0.0,0.0,0.0,0.0,0.0,0.0,0.0,0.0,0.0,0.0,0.0,0.0,0.0,0.0,0.0,0.0,0.0,0.0,0.0,0.0,0.0,0.0,0.0,0.0,0.0,0.0,0.0,0.0,0.0,0.0,0.0,0.0,0.0,0.0,0.0,0.0,0.0,0.0,0.0,0.5031,0.3348,0.1651,0.0477,-0.0142,-0.0221,-0.0285,0.0,0.0,0.0,0.0,0.0,0.0,0.0,0.0,0.0,0.0,0.0,0.0,0.0,0.0,0.0,0.0,0.0,0.0,0.0,0.0,0.0,0.0,0.0,0.0,0.0,0.0,0.0,0.0,0.0,0.0,0.0,0.0,0.0,0.0,0.0,0.0,0.0,0.0,0.0,0.0,0.0,0.0,0.0,0.0,0.0,0.0,0.0,0.0,0.9913,0.0,0.0,0.0,0.0,0.0,0.0,0.0,0.0,0.0,0.0,0.0,0.0,0.0,0.0,0.0,0.0,0.0,0.0,0.0,0.0,0.0,0.0,0.0,0.0,0.0,0.0,0.0,0.0,0.0,0.0,0.0,0.0,0.0,0.0,0.0,0.0,0.0,0.0,0.0,0.0,0.0,0.0,0.0,0.0,0.0,0.0,0.0,0.0,0.0,0.0,0.0,0.0,0.0,0.0,0.0,0.0,0.0,0.0,0.0,0.441,0.2302,0.0897,-0.0075,-0.061,-0.0748,-0.073,0.0,0.0,0.0,0.0,0.0,0.0,0.0,0.0,0.0,0.0,0.0,0.0,0.0,0.0,0.0,0.0,0.0,0.0,0.0,0.0,0.0,0.0,0.0,0.0,0.0,0.0,0.0,0.0,0.0,0.0,0.0,0.0,0.0,0.0,0.0,0.0,0.0,0.0,0.0,0.0,0.0,0.0,0.0,0.0,0.0,0.0,0.0,0.0,0.0,0.0,0.0,0.0,0.0,0.0,0.0,0.0,0.0,0.0,0.0,0.0,0.0,0.0,0.0,0.0,0.0,0.0,0.0,0.0,0.0,0.0,0.0,0.0,0.0,0.0,0.0,0.0,0.0,0.0,0.0,0.0,0.0,0.0,0.0,0.0,0.0,0.0,0.0,0.0,0.0,0.0,0.0,0.0,0.0,0.0,0.0,0.0,0.0,0.0,0.0,0.0,0.0,0.0,0.0,0.0,0.0,0.0,0.0,0.5462,0.3675,0.1159,0.0083,-0.065,-0.1075,-0.1227,-0.1088,-0.0637,0.0,0.0,0.0,0.0,0.0,0.0,0.0,0.0,0.0,0.0,0.0,0.0,0.0,0.0,0.0,0.0,0.0,0.0,0.0,0.0,0.0,0.0,0.0,0.0,0.0,0.0,0.0,0.0,0.0,0.0,0.0,0.0,0.0,0.0,0.0,0.0,0.0,0.0,0.7595,0.836,0.0,0.0,0.0,0.0,0.0,0.0,0.0,0.0,1.0199,0.0,0.0,0.0,0.0,0.0,0.0,0.0,0.0,0.0,0.0,0.0,0.0,0.0,0.0,0.0,0.0,0.0,0.0,0.0,0.0,0.0,0.0,0.0,0.0,0.0,0.0,0.0,0.0,0.0,0.0,0.0,0.0,0.0,0.0,0.0,0.0,0.0,0.0,0.0,0.0,0.0,0.0,0.0,0.0,0.0,0.0,0.0,0.0,0.0,0.0,0.0,0.0,0.0,0.0,0.0,0.0,0.6118,0.4842,0.2947,0.043,-0.0554,-0.117,-0.141,-0.1333,-0.1135,-0.0778,0.0,0.0,0.0,0.0,0.0,0.0,0.0,0.0,0.0,0.0,0.0,0.0,0.0,0.0,0.0,0.0,0.0,0.0,0.0,0.0,0.0,0.0,0.0,0.0,0.0,0.0,0.0,0.0,0.0,0.0,0.0,0.0,0.0,0.0,0.0,0.0,0.0,0.0,0.0,0.9444,1.0073,0.0,0.0,0.0,0.0,0.0,0.0,0.0,0.0,1.0042,0.0,0.0,0.0,0.0,0.0,0.0,0.0,0.0,0.0,0.0,0.0,0.0,0.0,0.0,0.0,0.0,0.0,0.0,0.0,0.0,0.0,0.0,0.0,0.0,0.0,0.0,0.0,0.0,0.0,0.0,0.0,0.0,0.0,0.0,0.0,0.0,0.0,0.0,0.0,0.0,0.0,0.0,0.0,0.0,0.0,0.0,0.0,0.0,0.0,0.0,0.0,0.0,0.0,0.0,0.0,0.557,0.3829,0.1897,-0.0244,-0.1103,-0.1543,-0.1662,-0.1529,-0.1248,0.0,0.0,0.0,0.0,0.0,0.0,0.0,0.0,0.0,0.0,0.0,0.0,0.0,0.0,0.0,0.0,0.0,0.0,0.0,0.0,0.0,0.0,0.0,0.0,0.0,0.0,0.0,0.0,0.0,0.0,0.0,0.0,0.0,0.0,0.0,0.0,0.0,0.0,0.0,0.0,0.9666,1.0258,1.0279,0.0,0.0,0.0,0.0,0.0,0.0,1.0129,1.0268,0.0,0.0,0.0,0.0,0.0,0.0,0.0,0.0,0.0,0.0,0.0,0.0,0.0,0.0,0.0,0.0,0.0,0.0,0.0,0.0,0.0,0.0,0.0,0.0,0.0,0.0,0.0,0.0,0.0,0.0,0.0,0.0,0.0,0.0,0.0,0.0,0.0,0.0,0.0,0.0,0.0,0.0,0.0,0.0,0.0,0.0,0.0,0.0,0.0,0.0,0.0,0.0,0.0,0.0,0.0,0.4835,0.2766,0.0844,-0.0906,-0.1566,-0.1862,-0.1809,-0.1679,-0.1351,0.0,0.0,0.0,0.0,0.0,0.0,0.0,0.0,0.0,0.0,0.0,0.0,0.0,0.0,0.0,0.0,0.0,0.0,0.0,0.0,0.0,0.0,0.0,0.0,0.0,0.0,0.0,0.0,0.0,0.0,0.0,0.0,0.0,0.0,0.0,0.0,0.0,0.0,0.0,0.0,0.0,1.0219,1.0292,1.1367,0.0,0.0,0.0,0.0,1.0283,1.01,0.0,0.0,0.0,0.0,0.0,0.0,0.0,0.0,0.0,0.0,0.0,0.0,0.0,0.0,0.0,0.0,0.0,0.0,0.0,0.0,0.0,0.0,0.0,0.0,0.0,0.0,0.0,0.0,0.0,0.0,0.0,0.0,0.0,0.0,0.0,0.0,0.0,0.0,0.0,0.0,0.0,0.0,0.0,0.0,0.0,0.0,0.0,0.0,0.0,0.0,0.0,0.0,0.0,0.0,0.0,0.0,0.3879,0.1819,-0.0022,-0.1512,-0.1971,-0.2064,-0.1907,-0.1704,-0.1318,0.0,0.0,0.0,0.0,0.0,0.0,0.0,0.0,0.0,0.0,0.0,0.0,0.0,0.0,0.0,0.0,0.0,0.0,0.0,0.0,0.0,0.0,0.0,0.0,0.0,0.0,0.0,0.0,0.0,0.0,0.0,0.0,0.0,0.0,0.0,0.0,0.0,0.0,0.0,0.0,0.0,1.0193,1.0195,1.1657,1.2729,0.0,0.0,1.199,1.036,1.0044,0.0,0.0,0.0,0.0,0.0,0.0,0.0,0.0,0.0,0.0,0.0,0.0,0.0,0.0,0.0,0.0,0.0,0.0,0.0,0.0,0.0,0.0,0.0,0.0,0.0,0.0,0.0,0.0,0.0,0.0,0.0,0.0,0.0,0.0,0.0,0.0,0.0,0.0,0.0,0.0,0.0,0.0,0.0,0.0,0.0,0.0,0.0,0.0,0.0,0.0,0.0,0.0,0.0,0.0,0.0,0.4515,0.2625,0.0542,-0.1022,-0.1994,-0.2183,-0.2118,-0.1862,-0.1631,-0.123,0.0,0.0,0.0,0.0,0.0,0.0,0.0,0.0,0.0,0.0,0.0,0.0,0.0,0.0,0.0,0.0,0.0,0.0,0.0,0.0,0.0,0.0,0.0,0.0,0.0,0.0,0.0,0.0,0.0,0.0,0.0,0.0,0.0,0.0,0.0,0.0,0.0,0.0,0.0,0.0,0.0,0.0,1.0191,1.1305,0.0,0.0,0.0,1.1564,1.0282,0.0,0.0,0.0,0.0,0.0,0.0,0.0,0.0,0.0,0.0,0.0,0.0,0.0,0.0,0.0,0.0,0.0,0.0,0.0,0.0,0.0,0.0,0.0,0.0,0.0,0.0,0.0,0.0,0.0,0.0,0.0,0.0,0.0,0.0,0.0,0.0,0.0,0.0,0.0,0.0,0.0,0.0,0.0,0.0,0.0,0.0,0.0,0.0,0.0,0.0,0.0,0.0,0.0,0.0,0.0,0.0,0.0,0.1246,-0.0699,-0.1912,-0.2413,-0.2374,-0.2183,-0.1823,-0.1624,0.0,0.0,0.0,0.0,0.0,0.0,0.0,0.0,0.0,0.0,0.0,0.0,0.0,0.0,0.0,0.0,0.0,0.0,0.0,0.0,0.0,0.0,0.0,0.0,0.0,0.0,0.0,0.5098,0.0,0.0,0.0,0.0,0.0,0.0,0.0,0.0,0.0,0.0,0.0,0.0,0.0,0.0,1.0358,1.0777,1.1266,1.1709,0.0,0.0,1.1147,1.0236,1.0044,1.0337,0.0,0.0,0.0,0.0,0.0,0.0,0.0,0.0,0.0,0.0,0.0,0.0,0.0,0.0,0.0,0.0,0.0,0.0,0.0,0.0,0.0,0.0,0.0,0.0,0.0,0.0,0.0,0.0,0.0,0.0,0.0,0.0,0.0,0.0,0.0,0.0,0.0,0.0,0.0,0.0,0.0,0.0,0.0,0.0,0.0,0.0,0.0,0.0,0.0,0.0,0.0,0.0,0.0,0.0,0.0,-0.0316,-0.1712,-0.2528,-0.2749,-0.2577,-0.2297,-0.1902,-0.1617,-0.1151,0.0,0.0,0.0,0.0,0.0,0.0,0.0,0.0,0.0,0.0,0.0,0.0,0.0,0.0,0.0,0.0,0.0,0.0,0.0,0.0,0.0,0.0,0.0,0.0,0.0,0.0,0.0,0.0,0.0,0.0,0.0,0.0,0.0,0.0,0.0,0.0,0.0,0.0,0.0,0.0,0.0,1.0783,1.2399,1.1992,1.1224,0.0,0.0,1.1107,1.024,1.0034,1.0532,1.2077,0.0,0.0,0.0,0.0,0.0,0.0,0.0,0.0,0.0,0.0,0.0,0.0,0.0,0.0,0.0,0.0,0.0,0.0,0.0,0.0,0.0,0.0,0.0,0.0,0.0,0.0,0.0,0.0,0.0,0.0,0.0,0.0,0.0,0.0,0.0,0.0,0.0,0.0,0.0,0.0,0.0,0.0,0.0,0.0,0.0,0.0,0.0,0.0,0.0,0.0,0.0,0.0,0.0,0.0026,-0.1766,-0.2552,-0.294,-0.2895,-0.2691,-0.2346,-0.1913,-0.1559,-0.107,0.0,0.0,0.0,0.0,0.0,0.0,0.0,0.0,0.0,0.0,0.0,0.0,0.0,0.0,0.0,0.0,0.0,0.0,0.0,0.0,0.0,0.0,0.0,0.0,0.0,0.0,0.0,0.0,0.5586,0.6588,0.8312,0.0,0.0,0.0,0.0,0.0,0.0,0.0,0.0,0.0,0.0,1.0875,1.2548,1.1596,0.0,0.0,1.0412,1.0468,1.011,1.0049,1.0244,1.0772,1.2542,0.0,0.0,0.0,0.0,0.0,0.0,0.0,0.0,0.0,0.0,0.0,0.0,0.0,0.0,0.0,0.0,0.0,0.0,0.0,0.0,0.0,0.0,0.0,0.0,0.0,0.0,0.0,0.0,0.0,0.0,0.0,0.0,0.0,0.0,0.0,0.0,0.0,0.0,0.0,0.0,0.0,0.0,0.0,0.0,0.0,0.0,0.0,0.0,0.0,0.0,0.0,0.0,-0.1681,-0.3127,-0.3461,-0.3452,-0.3112,-0.2832,-0.2472,-0.2025,-0.1633,-0.1129,0.0,0.0,0.0,0.0,0.0,0.0,0.0,0.0,0.0,0.0,0.0,0.0,0.0,0.0,0.0,0.0,0.0,0.0,0.0,0.0,0.0,0.0,0.0,0.0,0.0,0.0,0.0,0.0,0.6849,0.7881,0.8871,0.0,0.0,0.0,0.0,0.0,0.0,0.0,0.0,0.0,0.0,1.0703,1.1873,1.0977,1.0338,1.0769,1.062,1.052,1.0711,1.0373,1.0238,1.0797,0.0,0.0,0.0,0.0,0.0,0.0,0.0,0.0,0.0,0.0,0.0,0.0,0.0,0.0,0.0,0.0,0.0,0.0,0.0,0.0,0.0,0.0,0.0,0.0,0.0,0.0,0.0,0.0,0.0,0.0,0.0,0.0,0.0,0.0,0.0,0.0,0.0,0.0,0.0,0.0,0.0,0.0,0.0,0.0,0.0,0.0,0.0,0.0,0.0,0.0,0.0,0.0,0.0,-0.3591,-0.4336,-0.4498,-0.4156,-0.3357,-0.3035,-0.273,-0.2315,-0.191,-0.1369,-0.07,0.0,0.0,0.0,0.0,0.0,0.0,0.0,0.0,0.0,0.0,0.0,0.0,0.0,0.0,0.0,0.0,0.0,0.0,0.0,0.0,0.0,0.0,0.0,0.0,0.0,0.0,0.7366,0.9009,0.9659,0.0,0.0,0.0,0.0,0.0,0.0,0.0,0.0,0.0,0.0,1.0256,1.0241,1.0368,1.0206,1.0675,1.2254,1.1776,1.1517,1.2237,1.1059,1.0713,0.0,0.0,0.0,0.0,0.0,0.0,0.0,0.0,0.0,0.0,0.0,0.0,0.0,0.0,0.0,0.0,0.0,0.0,0.0,0.0,0.0,0.0,0.0,0.0,0.0,0.0,0.0,0.4741,0.4905,0.0,0.0,0.0,0.0,0.0,0.0,0.0,0.0,0.0,0.0,0.0,-0.2647,-0.3128,0.0,0.0,0.0,0.0,0.0,0.0,0.0,0.0,0.0,0.0,0.0,0.0,-0.4931,-0.5621,-0.5402,-0.5066,-0.4629,-0.3984,-0.3436,-0.304,-0.2243,-0.1377,-0.0384,0.0,0.0,0.0,0.0,0.0,0.0,0.0,0.0,0.0,0.0,0.0,0.0,0.0,0.0,0.0,0.0,0.0,0.0,0.0,0.0,0.0,0.0,0.0,0.0,0.0,0.8367,0.0,0.0,0.0,0.0,0.0,0.0,0.0,0.0,0.0,0.0,0.0,1.0289,1.0241,1.0226,1.0215,1.0222,1.0112,1.0608,0.0,0.0,0.0,0.0,0.0,0.0,0.0,0.0,0.0,0.0,0.0,0.0,0.0,0.0,1.0098,1.0125,1.0164,1.0188,1.0222,0.0,0.0,0.0,0.0,0.0,0.0,0.0,0.0,0.0,0.0,0.0,0.0,0.0,0.0,0.0,0.0,0.4146,0.0,0.0,0.0,0.0,0.0,0.0,0.0,0.0,-0.3052,-0.3909,-0.4416,-0.4763,-0.4819,0.0,-0.4326,-0.3399,0.0,0.0,0.0,0.0,0.0,0.0,0.0,0.0,-0.6305,-0.6421,-0.6131,-0.5797,-0.5406,-0.4744,-0.4231,-0.3852,-0.2735,-0.1628,-0.0507,0.012,0.0702,0.0,0.0,0.0,0.0,0.0,0.0,0.0,0.0,0.0,0.0,0.0,0.0,0.0,0.0,0.0,0.0,0.0,0.0,0.0,0.0,0.0,0.0,0.0,0.9498,0.0,0.0,0.0,0.0,0.0,0.0,0.0,0.0,0.0,1.0279,1.0284,1.0224,1.0113,1.0119,1.0154,1.0109,0.0,0.0,0.0,0.0,0.0,0.0,0.0,1.2479,1.29,1.2548,1.2207,1.2093,1.2789,1.2654,1.0481,0.0,0.0,1.0094,1.0154,1.0191,1.0195,1.0261,1.0317,1.0323,1.0307,1.031,0.0,0.0,0.0,0.0,0.0,0.0,0.0,0.0,0.0155,0.0725,0.0,0.174,0.0,0.0,0.0,0.0,0.0,0.0,0.0,0.0,-0.5804,-0.6322,-0.623,-0.6322,-0.6258,-0.6071,-0.5758,-0.5519,-0.5223,-0.3646,0.0,0.0,0.0,0.0,0.0,0.0,-0.7691,-0.6792,-0.6747,-0.639,-0.5695,-0.5383,-0.5061,-0.4648,-0.3334,-0.2124,-0.1086,-0.0392,0.0219,0.0748,0.1595,0.0,0.0,0.0,0.0,0.0,0.0,0.0,0.0,0.0,0.0,0.0,0.0,0.0,0.0,0.0,0.0,0.0,0.0,0.0,0.0,0.9756,0.0,0.0,0.0,0.0,0.0,0.0,0.0,0.0,0.0,0.0,1.0279,1.0241,1.0124,0.9923,0.0,0.0,0.0,0.0,1.1519,1.2087,1.2133,1.2382,1.3129,1.2595,1.2244,1.2767,0.0,0.0,1.0237,1.0091,1.0197,1.011,1.0095,1.0104,1.0109,1.0159,1.0186,1.0188,1.0241,1.0287,1.0302,1.0361,1.0401,-0.6198,0.0,0.0,0.0,0.0,-0.3789,-0.3351,-0.2843,-0.2357,-0.1924,-0.1521,-0.1151,0.0,0.0,0.0,0.0,0.0,0.0,-0.6115,-0.7349,-0.795,-0.8311,-0.8461,-0.8008,-0.7716,-0.7539,-0.6958,-0.6617,-0.6495,-0.6016,-0.5518,-0.507,0.0,0.0,0.0,0.0,-0.7677,-0.7489,-0.7488,-0.7315,-0.6956,-0.6366,-0.5555,-0.4527,-0.3443,-0.2584,-0.195,-0.1106,-0.0346,0.0273,0.0762,0.0,0.0,0.0,0.0,0.0,0.0,0.0,0.0,0.0,0.0,0.0,0.0,0.0,0.0,0.0,0.0,0.0,0.0,0.0,0.6403,0.6165,0.6685,0.0,0.0,0.0,0.0,0.0,0.0,0.0,0.0,0.0,1.0085,1.0078,1.0006,0.0,0.0,0.9992,0.9925,0.989,1.0715,1.2977,0.0,0.0,0.0,1.1435,1.0694,1.1923,1.1782,1.1166,1.0107,1.0024,1.0092,1.0059,1.0049,1.0044,1.008,1.0109,1.0163,1.0202,1.021,1.025,1.0305,1.0735,1.1008,-0.9893,-0.8556,-0.7452,-0.6945,-0.6819,-0.6569,-0.6198,-0.5747,-0.5316,-0.4865,-0.4495,-0.4183,-0.4019,-0.4004,-0.4173,0.0,0.0,0.0,-0.8452,-0.9298,-0.9577,-0.9677,-0.9563,-0.9177,-0.8896,-0.8781,-0.8324,-0.8075,-0.803,-0.7996,-0.7747,-0.7307,0.0,0.0,-0.7377,-0.7836,-0.7989,-0.7841,-0.7812,-0.7739,-0.7574,-0.6965,-0.6095,-0.4944,-0.4032,-0.3242,-0.2587,-0.1667,-0.0882,-0.0251,0.0141,0.0879,0.0,0.0,0.0,0.0,0.0,0.0,0.0,0.0,0.0,0.0,0.0,0.5869,0.0,0.0,0.0,0.0,0.8106,0.6857,0.4679,0.4567,0.0,0.0,0.0,0.0,0.0,0.0,0.0,0.9963,1.0001,1.0016,1.0043,0.9775,0.9581,0.9631,0.9794,0.9899,0.9793,0.0,0.9933,1.227,1.1607,1.1224,1.2332,1.1258,1.0652,1.1595,1.1112,1.05,0.9987,0.9971,1.0247,1.0745,1.0912,1.0727,1.0168,1.0076,1.0379,1.1023,1.1205,1.1208,1.1247,1.1652,1.1829,-1.3092,-1.2787,-1.065,-0.9629,-0.9377,-0.9276,-0.9022,-0.869,-0.8379,-0.7917,-0.7379,-0.718,-0.6961,-0.676,-0.7598,0.0,0.0,-1.011,-1.0545,-1.0635,-1.0812,-1.0597,-1.0082,-0.9916,-0.9861,-0.9784,-0.9673,-0.9629,-0.9614,-0.9559,-0.9588,-0.9695,-0.8902,-0.8278,-0.7852,-0.8521,-0.8586,-0.7989,-0.793,-0.7827,-0.7694,-0.7251,-0.6613,-0.5792,-0.4934,-0.4051,-0.3119,-0.219,-0.1405,-0.0804,-0.0312,0.0255,0.0929,0.0,0.0,0.0,0.0,0.0,0.0,0.0,0.0,0.0,0.0,0.0,0.0,0.0,0.0,0.0,0.6624,0.0,0.4427,0.4443,0.0,0.0,0.0,0.9107,0.9418,0.9463,0.957,0.9775,0.0,0.0,0.0,0.0,0.8968,0.9226,0.9559,0.9732,0.9602,0.9196,0.9333,1.0681,1.1035,1.1448,1.2115,1.1898,1.1706,1.1878,1.0733,0.9974,0.9821,0.9894,1.0571,1.1892,1.2361,1.2051,1.0546,1.0415,1.0828,1.253,1.2882,1.2837,1.2626,1.2684,1.2746,-1.4535,-1.4415,-1.3818,-1.2629,-1.1119,-1.1008,-1.0828,-1.0555,-1.0376,-1.0126,-0.9815,-0.9652,-0.9529,-0.954,-0.9949,-1.0403,-1.0847,-1.1261,-1.1577,-1.1722,-1.1707,-1.1637,-1.1485,-1.0872,-1.0539,-1.0505,-1.0044,-0.9835,-0.982,-0.9802,-0.9817,-0.9839,-0.9621,-0.9472,-0.9295,-0.946,-0.9259,-0.8664,-0.8649,-0.8301,-0.7634,-0.7266,-0.6878,-0.6469,-0.5628,-0.475,-0.3857,-0.2991,-0.2161,-0.1433,-0.0803,-0.0145,0.0522,0.1168,0.0,0.0,0.0,0.0,0.0,0.0,0.0,0.0,0.0,0.6117,0.5647,0.0,0.543,0.0,0.751,0.6922,0.5374,0.4622,0.0,0.0,0.7042,0.7674,0.8962,0.8674,0.869,0.9563,0.9655,0.9581,0.9359,0.8994,0.8571,0.8109,0.8866,0.9448,0.9321,0.9551,0.9842,1.0281,1.0927,1.1728,1.2506,1.2856,1.293,1.3057,1.2314,1.127,0.9883,0.971,1.0265,1.1792,1.3149,1.342,1.2524,1.2106,1.2485,1.3898,1.4413,1.413,1.2935,1.3102,1.3377,-1.5687,-1.5589,-1.5239,-1.4368,-1.3288,-1.31,-1.293,-1.272,-1.2306,-1.2022,-1.1858,-1.1333,-1.1125,-1.1144,-1.1259,-1.1416,-1.1637,-1.1768,-1.1912,-1.2054,-1.1991,-1.197,-1.1933,-1.1473,-1.1251,-1.1251,-1.0907,-1.0743,-1.0743,-1.0743,-1.0743,-1.0743,-1.0758,-1.0728,-1.0678,-1.0125,-0.9663,-0.9353,-0.9022,-0.8434,-0.7633,-0.7404,-0.7137,-0.6828,-0.6061,-0.5339,-0.4705,-0.3789,-0.2982,-0.2275,-0.155,-0.0773,0.0041,0.0636,0.143,0.0,0.0,0.0,0.0,0.0,0.0,0.0,0.0,0.0,0.0,0.0,0.4652,0.0,0.5989,0.0,0.5222,0.5259,0.5559,0.6038,0.5951,0.642,0.7747,0.7929,0.8319,0.9215,0.9285,0.9061,0.8632,0.829,0.7882,0.7221,0.8184,0.8979,0.8928,0.9171,0.9589,1.0421,1.0826,1.143,1.2482,1.2797,1.298,1.3091,1.2646,1.1998,1.1581,1.1015,1.1091,1.2478,1.3595,1.4147,1.3725,1.353,1.37,1.4333,1.4738,1.4527,1.3804,1.397,1.4142,-1.6647,-1.6514,-1.5866,-1.56,-1.5574,-1.5299,-1.5014,-1.47,-1.4031,-1.3653,-1.353,-1.2688,-1.2256,-1.2169,-1.211,-1.2103,-1.2147,-1.2162,-1.2145,-1.2128,-1.207,-1.1981,-1.1891,-1.1848,-1.1826,-1.1826,-1.1826,-1.1826,-1.1826,-1.1826,-1.1826,-1.1826,-1.1826,-1.1826,-1.1745,-1.0698,-1.0099,-1.0009,-0.9302,-0.8579,-0.7866,-0.7699,-0.7467,-0.7136,-0.6414,-0.5835,-0.5423,-0.4549,-0.3793,-0.3238,-0.2388,-0.1483,-0.0579,-0.0186,0.0512,0.0,0.2396,0.0,0.0,0.0,0.0,0.0,0.0,0.0,0.0,0.4316,0.3898,0.3698,0.3547,0.3699,0.4331,0.5558,0.6003,0.521,0.5157,0.5502,0.6282,0.7046,0.7874,0.8721,0.8639,0.8271,0.7709,0.7377,0.698,0.6544,0.7393,0.8203,0.8393,0.8623,0.9295,1.0764,1.077,1.1071,1.1902,1.2149,1.2296,1.2536,1.2351,1.2471,1.3459,1.2719,1.2348,1.33,1.3672,1.3933,1.4163,1.4356,1.4441,1.435,1.4404,1.4523,1.469,1.4743,1.4883,-1.7502,-1.7423,-1.7311,-1.7216,-1.7148,-1.7103,-1.6348,-1.5096,-1.4927,-1.4746,-1.4499,-1.4184,-1.3899,-1.3672,-1.36,-1.3567,-1.3509,-1.3524,-1.3271,-1.2796,-1.275,-1.2418,-1.1906,-1.1826,-1.1826,-1.1826,-1.1826,-1.1826,-1.1826,-1.1826,-1.1826,-1.1826,-1.1826,-1.1826,0.0,0.0,0.0,0.0,-0.9958,-0.947,-0.9212,-0.8562,-0.8135,-0.7881,-0.7013,0.0,-0.559,-0.5131,-0.4574,-0.3927,-0.304,0.0,0.0,0.0,0.0,0.0,0.0,0.0,0.0,0.0,0.0,0.0,0.3037,0.3804,0.4374,0.4019,0.3565,0.3118,0.2804,0.2663,0.2743,0.3039,0.3749,0.4966,0.5437,0.5637,0.5552,0.5564,0.6125,0.7662,0.7311,0.6795,0.6443,0.6213,0.5954,0.568,0.6318,0.7109,0.7757,0.8735,0.9589,1.0104,1.0624,1.111,1.1304,1.1482,1.1688,1.1875,1.2195,1.2528,1.3056,1.3226,1.2954,1.3123,1.3173,1.3379,1.3663,1.3995,1.415,1.4087,1.4119,1.4288,1.4658,1.4727,1.4774,-1.7789,0.0,-1.7732,-1.7726,0.0,-1.7658,-1.7154,-1.6304,-1.5951,-1.5408,-1.4745,-1.4499,-1.431,-1.4093,-1.3995,-1.3895,-1.386,-1.385,-1.3695,-1.3398,-1.3359,-1.3154,-1.2839,-1.2456,-1.2284,-1.2269,-1.1976,-1.1826,-1.1826,-1.1826,-1.1826,-1.1826,-1.1826,-1.1826,-1.1826,-1.1826,-1.1476,-1.0798,-1.0469,-1.0103,-0.9718,-0.9235,-0.8756,-0.8261,0.0,0.0,0.0,0.0,0.0,0.0,0.0,0.0,0.0,0.0,0.0,-0.1891,-0.0711,0.0429,0.1476,0.1663,0.1393,0.069,0.126,0.2178,0.3315,0.328,0.3173,0.3047,0.2577,0.2102,0.1763,0.2025,0.258,0.3424,0.4124,0.4446,0.4326,0.4484,0.5006,0.5832,0.583,0.5566,0.5308,0.5223,0.5192,0.5223,0.5687,0.6344,0.7077,0.813,0.9026,0.9589,1.0235,1.0662,1.0599,1.0702,1.0963,1.1275,1.165,1.2082,1.2581,1.2829,1.2867,1.2604,1.262,1.2776,1.3141,1.3445,1.3622,1.365,1.3696,1.3859,1.419,1.4386,1.4549,-1.7789,-1.7789,-1.7789,-1.7789,-1.7789,-1.7726,-1.7579,-1.7382,0.0,0.0,0.0,-1.4773,-1.4594,-1.4445,-1.4308,-1.4221,-1.4154,-1.4154,-1.4094,-1.3989,-1.3974,-1.3914,-1.378,-1.3241,-1.2981,-1.2966,-1.2418,-1.2149,-1.2149,-1.2029,-1.1969,-1.1954,-1.185,-1.1826,-1.1826,-1.1826,-1.1536,-1.1007,-1.0977,-1.0688,-1.0129,-0.9887,-0.9368,-0.8568,-0.8181,-0.7593,-0.6749,-0.6383,-0.6022,-0.5701,-0.5366,-0.4853,-0.4211,-0.4109,-0.3903,-0.3472,-0.2203,-0.1226,-0.0691,-0.0349,-0.0283,-0.0559,-0.0195,0.0672,0.2108,0.235,0.2584,0.2932,0.2171,0.1402,0.0803,0.1336,0.1716,0.1715,0.2273,0.2709,0.296,0.3468,0.3902,0.4155,0.4384,0.4441,0.4305,0.4416,0.4578,0.4927,0.5373,0.5855,0.6546,0.745,0.8345,0.9077,0.9639,0.9894,0.9792,0.9868,1.0147,1.0699,1.1029,1.14,1.1884,1.2195,1.2236,1.2033,1.2027,1.2221,1.2565,1.2794,1.2961,1.3141,1.3227,1.3344,1.363,1.3938,1.4208,-1.7789,-1.7789,-1.7789,-1.7789,-1.7789,-1.7726,-1.7486,-1.7158,-1.6913,-1.6667,-1.6409,-1.614,-1.5941,-1.5805,-1.5697,-1.5585,-1.5529,-1.5529,-1.5214,0.0,-1.4648,-1.4348,-1.3825,-1.3705,-1.366,-1.366,-1.357,-1.3525,-1.3466,-1.2927,-1.2666,-1.2576,-1.2074,-1.1826,-1.1826,-1.1826,-1.176,-1.1655,-1.1655,-1.1568,-1.1321,-1.0693,-0.9985,-0.9185,-0.8401,-0.7628,-0.6816,-0.6582,-0.6319,-0.6039,-0.5918,-0.563,-0.5127,-0.4632,-0.4424,-0.4515,-0.3729,-0.301,-0.2449,-0.1927,-0.1503,-0.126,-0.1045,-0.0329,0.098,0.1304,0.1564,0.1895,0.0733,-0.0201,-0.0513,-0.0045,0.0508,0.0842,0.0637,0.0841,0.1851,0.2113,0.2443,0.2985,0.3174,0.3319,0.3442,0.3923,0.4301,0.4534,0.5168,0.5937,0.6445,0.7259,0.7907,0.8347,0.8878,0.906,0.8942,0.9074,0.9449,0.997,1.0347,1.0712,1.1173,1.1474,1.1534,1.1293,1.1362,1.1586,1.1955,1.2128,1.2356,1.2614,1.2711,1.2844,1.3194,1.3475,1.3789,-1.7789,-1.7789,-1.7789,-1.7772,-1.7726,-1.7486,-1.7199,-1.6876,-1.667,-1.6538,-1.6459,-1.6231,-1.6095,-1.5998,-1.5885,-1.5827,-1.5814,-1.5814,-1.5634,-1.5364,-1.5364,-1.5171,-1.4857,-1.4513,-1.4333,-1.4318,-1.3974,-1.381,-1.378,-1.3481,-1.3151,-1.2786,-1.2134,-1.1826,-1.1805,-1.1768,-1.1747,-1.1747,-1.1747,-1.1725,-1.1645,-1.1227,-1.0606,-0.982,-0.8938,-0.811,-0.733,-0.6815,-0.649,-0.6319,-0.6218,-0.6045,-0.5789,-0.526,-0.5011,-0.5137,-0.4626,-0.4073,-0.3536,-0.2906,-0.2457,-0.2228,-0.205,-0.1832,-0.142,-0.0316,0.015,-0.0256,-0.0875,-0.1183,-0.1274,-0.0962,-0.0536,-0.0022,-0.0224,0.0022,0.0861,0.115,0.146,0.2007,0.2293,0.2519,0.2799,0.3301,0.3852,0.4245,0.5014,0.5648,0.5952,0.646,0.7035,0.753,0.8016,0.8267,0.8241,0.8449,0.8811,0.9289,0.9673,1.0072,1.0458,1.0739,1.0791,1.0705,1.0777,1.0968,1.1233,1.149,1.176,1.1993,1.222,1.2443,1.2767,1.3175,1.3639,-1.7789,-1.7789,-1.7789,-1.7726,-1.7579,-1.7207,-1.6885,-1.6644,-1.6367,-1.6246,-1.6191,-1.6024,-1.5955,-1.59,-1.5827,-1.5814,-1.5814,-1.5814,-1.5814,-1.5814,-1.5814,-1.5814,-1.5769,-1.5274,-1.5007,-1.4962,-1.4483,-1.4259,-1.4244,-1.4109,-1.369,-1.3002,-1.2343,-1.1992,-1.1977,-1.1777,-1.1696,-1.1659,-1.1637,-1.163,-1.1652,-1.1429,-1.0962,-1.0178,-0.9446,-0.8692,-0.7914,-0.7294,-0.6956,-0.6871,-0.6657,-0.6457,-0.623,-0.5815,-0.5585,-0.5511,-0.5195,-0.4745,-0.4244,-0.3695,-0.334,-0.3254,-0.3125,-0.3152,-0.3298,-0.2119,-0.1491,-0.213,-0.2037,-0.1894,-0.1721,-0.1566,-0.1304,-0.089,-0.0836,-0.0572,0.0023,0.0373,0.0715,0.1192,0.1536,0.1872,0.2254,0.2699,0.3334,0.4128,0.473,0.5144,0.5352,0.5609,0.6068,0.6579,0.7143,0.7528,0.7676,0.785,0.8156,0.8601,0.905,0.9451,0.9829,1.0085,1.0148,1.0173,1.0211,1.0386,1.0545,1.0869,1.1205,1.1468,1.1732,1.203,1.2404,1.2928,1.3462,-1.7789,-1.7789,-1.7726,-1.7555,-1.732,-1.701,-1.6747,-1.6501,-1.6246,-1.6039,-1.5957,-1.5928,-1.5928,-1.5885,-1.5842,-1.5814,-1.5814,-1.5814,-1.5814,-1.5814,-1.5814,-1.5814,-1.5814,-1.5724,-1.5709,-1.5694,-1.5589,-1.5499,-1.5469,-1.4959,-1.4348,-1.3705,-1.2969,-1.2603,-1.2543,-1.194,-1.1615,-1.1601,-1.1444,-1.1384,-1.1489,-1.1247,-1.0781,-1.0035,-0.9716,-0.9197,-0.8464,-0.8228,-0.8119,-0.8009,-0.7541,-0.6988,-0.6385,-0.6242,-0.6027,-0.5654,-0.5407,-0.5049,-0.4626,-0.4337,-0.4252,-0.4325,-0.4148,-0.4011,-0.3971,-0.3861,-0.3491,-0.2988,-0.258,-0.2294,-0.21,-0.1876,-0.1682,-0.1508,-0.1409,-0.1161,-0.0712,-0.0238,0.0179,0.0473,0.0913,0.1286,0.1696,0.2317,0.3065,0.3809,0.4248,0.4538,0.473,0.5004,0.5289,0.5665,0.6276,0.6863,0.7077,0.7196,0.754,0.8021,0.8406,0.8833,0.9262,0.9633,0.9854,0.9605,0.9684,0.988,1.0135,1.0422,1.0763,1.1048,1.131,1.1586,1.2179,1.2668,1.3088,-1.7726,-1.7698,-1.7687,-1.7486,-1.7175,-1.685,-1.6581,-1.6316,-1.6083,-1.5942,-1.5856,-1.5827,-1.5856,-1.5827,-1.5799,-1.5814,-1.5814,-1.5814,-1.5814,-1.5814,-1.5814,-1.5814,-1.5814,-1.5814,-1.5814,-1.5814,-1.5814,-1.5814,-1.5694,-1.5084,-1.4579,-1.4254,-1.3528,-1.2962,-1.2594,-1.2149,-1.1774,-1.1368,-1.1155,-1.1038,-1.1029,-1.0982,-1.0715,-1.0292,-0.9761,-0.9325,-0.8918,-0.8515,-0.8286,-0.8252,-0.7976,-0.7402,-0.6532,-0.6378,-0.6291,-0.6223,-0.6066,-0.5842,-0.5629,-0.542,-0.5255,-0.5167,-0.4931,-0.4756,-0.4685,-0.4469,-0.4276,-0.4179,-0.3315,-0.267,-0.2655,-0.2243,-0.1999,-0.2025,-0.1905,-0.1642,-0.1198,-0.0762,-0.0336,0.0054,0.0466,0.0854,0.1307,0.2036,0.2709,0.3286,0.3658,0.3956,0.4215,0.4505,0.4788,0.5074,0.5522,0.599,0.6443,0.6897,0.7166,0.7452,0.7888,0.8326,0.8617,0.9085,0.9313,0.9015,0.9205,0.9446,0.971,1.0008,1.0323,1.0619,1.1085,1.146,1.1903,1.2276,1.2668,-1.7618,-1.7572,-1.7572,-1.7344,-1.7002,-1.6686,-1.6409,-1.6166,-1.597,-1.5871,-1.5814,-1.577,-1.5741,-1.577,-1.577,-1.5814,-1.5814,-1.5814,-1.5814,-1.5814,-1.577,-1.577,-1.5756,-1.5697,-1.5712,-1.5697,-1.5697,-1.5697,-1.5623,-1.5193,-1.4885,-1.474,-1.4003,-1.3359,-1.291,-1.2416,-1.1837,-1.1332,-1.0969,-1.0743,-1.0608,-1.0621,-1.0559,-1.0409,-0.9871,-0.9532,-0.941,-0.8985,-0.8738,-0.8692,-0.8475,-0.806,-0.7504,-0.6984,-0.6805,-0.6909,-0.6607,-0.6356,-0.6209,-0.6107,-0.5965,-0.5743,-0.55,-0.5366,-0.5298,-0.4941,-0.4894,-0.508,-0.4198,-0.3517,-0.3258,-0.2852,-0.255,-0.2519,-0.2342,-0.2066,-0.1595,-0.1187,-0.0786,-0.0374,0.0029,0.0501,0.1046,0.1715,0.2335,0.2702,0.3068,0.3434,0.3733,0.4026,0.4285,0.4634,0.4832,0.5277,0.5998,0.6421,0.6717,0.6966,0.7344,0.7724,0.7957,0.8432,0.8795,0.8572,0.8806,0.9054,0.9378,0.9646,0.9995,1.0324,1.0767,1.1224,1.1527,1.1897,1.2246,-1.7509,-1.7462,-1.7313,-1.7068,-1.6789,-1.6517,-1.6289,-1.6095,-1.5957,-1.5856,-1.577,-1.5668,-1.561,-1.561,-1.5712,-1.5799,-1.5814,-1.5785,-1.577,-1.577,-1.5683,-1.561,-1.561,-1.5536,-1.5522,-1.5522,-1.5522,-1.5492,-1.5418,-1.5374,-1.533,-1.5197,-1.4443,-1.3998,-1.3643,-1.2509,-1.1743,-1.149,-1.0851,-1.0449,-1.0324,-1.0249,-1.0249,-1.0274,-1.0072,-0.9945,-0.9932,-0.9869,-0.9779,-0.9715,-0.9145,-0.9034,-0.9329,-0.8334,-0.7657,-0.7562,-0.6947,-0.6348,-0.6088,-0.6174,-0.6203,-0.6098,-0.5918,-0.5763,-0.5723,-0.5493,-0.5346,-0.5302,-0.5126,-0.471,-0.4029,-0.3639,-0.3264,-0.2766,-0.268,-0.2455,-0.2024,-0.1541,-0.1221,-0.0893,-0.0348,0.0293,0.0993,0.1403,0.184,0.2239,0.261,0.2948,0.3241,0.3504,0.3761,0.4091,0.4377,0.4814,0.5617,0.599,0.6206,0.6421,0.6747,0.7127,0.7383,0.7627,0.7889,0.8187,0.846,0.8739,0.9054,0.9393,0.9776,1.011,1.0485,1.0897,1.1155,1.1541,1.1869,-1.7272,-1.7272,-1.7076,-1.6876,-1.6649,-1.6398,-1.6179,-1.6011,-1.5812,-1.5697,-1.5639,-1.5536,-1.5448,-1.5477,-1.5477,-1.5536,-1.5624,-1.561,-1.561,-1.561,-1.5507,-1.5477,-1.5463,-1.5403,-1.5358,-1.5388,-1.5373,-1.5328,-1.5268,-1.5102,-1.5011,-1.4935,-1.4536,-1.4076,-1.3459,-1.2592,-1.1844,-1.1282,-1.0625,-1.0249,-1.011,-1.0085,-1.0059,-1.0034,-1.0034,-0.997,-0.9957,-0.9854,-0.9828,-0.9802,-0.9474,-0.9371,-0.9451,-0.8503,-0.7821,-0.7704,-0.7432,-0.7217,-0.7058,-0.7033,-0.6934,-0.6737,-0.6432,-0.6095,-0.5813,-0.5624,-0.5428,-0.534,-0.5309,-0.4992,-0.4452,-0.3966,-0.3514,-0.3107,-0.2842,-0.258,-0.2214,-0.1776,-0.1425,-0.1143,-0.0498,0.0201,0.0639,0.1041,0.1444,0.1876,0.2242,0.261,0.2948,0.3208,0.3405,0.3639,0.3923,0.4307,0.4838,0.5397,0.5742,0.5928,0.6199,0.6565,0.6837,0.7196,0.7491,0.7744,0.8052,0.8404,0.8701,0.9166,0.9555,0.9905,1.0286,1.0534,1.0815,1.1178,1.1452,-1.7002,-1.7018,-1.6876,-1.667,-1.649,-1.6277,-1.6095,-1.5955,-1.5697,-1.558,-1.5551,-1.5403,-1.5329,-1.5269,-1.5193,-1.5238,-1.5314,-1.5403,-1.5433,-1.5403,-1.5329,-1.5255,-1.5224,-1.5147,-1.5086,-1.5086,-1.5056,-1.5011,-1.4932,-1.4746,-1.4651,-1.4588,-1.4365,-1.388,-1.3195,-1.2489,-1.1793,-1.1065,-1.0444,-1.0085,-0.997,-0.997,-0.9944,-0.9905,-0.9919,-0.9931,-0.988,-0.9828,-0.9762,-0.9646,-0.9511,-0.9351,-0.9151,-0.8336,-0.7792,-0.7705,-0.7686,-0.7695,-0.7666,-0.7578,-0.7362,-0.7005,-0.6703,-0.6307,-0.5842,-0.5624,-0.546,-0.534,-0.5309,-0.5087,-0.4614,-0.4064,-0.3574,-0.3245,-0.2915,-0.2616,-0.2383,-0.2011,-0.1613,-0.1208,-0.0604,-0.0067,0.0303,0.0673,0.1075,0.151,0.1876,0.2275,0.2676,0.2915,0.3043,0.3179,0.3471,0.3798,0.4221,0.4692,0.5176,0.5397,0.571,0.6052,0.6382,0.6747,0.7047,0.7324,0.7647,0.7994,0.8439,0.8937,0.9316,0.9646,0.9905,1.0161,1.046,1.0777,1.1085,-1.6727,-1.6743,-1.6623,-1.649,-1.6301,-1.6136,-1.6011,-1.5885,-1.5683,-1.5551,-1.5492,-1.5298,-1.5118,-1.5027,-1.4949,-1.4932,-1.4994,-1.5178,-1.5238,-1.5178,-1.5088,-1.4966,-1.4918,-1.4763,-1.4714,-1.4714,-1.4547,-1.4452,-1.4429,-1.4319,-1.4254,-1.413,-1.3927,-1.3466,-1.2847,-1.2143,-1.1551,-1.0913,-1.0313,-0.9982,-0.9919,-0.9905,-0.9905,-0.988,-0.9854,-0.9802,-0.9776,-0.9776,-0.9672,-0.9434,-0.9286,-0.9015,-0.8656,-0.8062,-0.7695,-0.7695,-0.7695,-0.7695,-0.7695,-0.7578,-0.7283,-0.6893,-0.6621,-0.6268,-0.5874,-0.5624,-0.5428,-0.534,-0.5309,-0.5157,-0.4774,-0.4188,-0.3635,-0.3311,-0.2948,-0.2679,-0.2513,-0.2281,-0.1847,-0.1244,-0.0706,-0.037,-0.0034,0.0336,0.0739,0.1177,0.1544,0.1909,0.2341,0.258,0.2679,0.2815,0.3047,0.3372,0.3695,0.4021,0.4441,0.4864,0.5239,0.5585,0.5952,0.6313,0.6595,0.6906,0.7264,0.7637,0.8195,0.8662,0.8965,0.9274,0.954,0.9814,1.0135,1.046,1.0739,-1.7124,-1.7033,-1.653,-1.6262,-1.6136,-1.6011,-1.5957,-1.5856,-1.5639,-1.5492,-1.5389,-1.5133,-1.4949,-1.4918,-1.4794,-1.4794,-1.4825,-1.4932,-1.4963,-1.498,-1.4918,-1.478,-1.4655,-1.4543,-1.4447,-1.4319,-1.4189,-1.4059,-1.404,-1.3894,-1.3657,-1.3303,-1.3155,-1.2716,-1.2101,-1.1532,-1.1038,-1.0765,-1.0208,-0.9931,-0.9905,-0.988,-0.988,-0.988,-0.9828,-0.9762,-0.9684,-0.9617,-0.9499,-0.9328,-0.9162,-0.8916,-0.8572,-0.8033,-0.7695,-0.7695,-0.7695,-0.7695,-0.7666,-0.7529,-0.7262,-0.6842,-0.6551,-0.6237,-0.5874,-0.5617,-0.5435,-0.5309,-0.5309,-0.5151,-0.4806,-0.4415,-0.3923,-0.3467,-0.3109,-0.2845,-0.2646,-0.2314,-0.1914,-0.1477,-0.0873,-0.0403,-0.0067,0.0235,0.0505,0.0875,0.1276,0.1707,0.2078,0.2308,0.251,0.2679,0.2845,0.2977,0.327,0.3528,0.3853,0.428,0.4666,0.5112,0.5515,0.589,0.6176,0.6543,0.6906,0.7344,0.7898,0.8298,0.8606,0.8894,0.9166,0.9487,0.9802,1.011,1.0398,-1.7562,-1.75,-1.7073,-1.6678,-1.6407,-1.632,-1.6111,-1.5857,-1.561,-1.5448,-1.5314,-1.5041,-1.4871,-1.4871,-1.4777,-1.4763,-1.4825,-1.4842,-1.4887,-1.4856,-1.4718,-1.4624,-1.4452,-1.4287,-1.4124,-1.3993,-1.3841,-1.3741,-1.3728,-1.3581,-1.3244,-1.2769,-1.2615,-1.2157,-1.1412,-1.102,-1.0686,-1.0408,-1.0081,-0.988,-0.988,-0.988,-0.988,-0.988,-0.9828,-0.9684,-0.9564,-0.9444,-0.9298,-0.9112,-0.8905,-0.8656,-0.8336,-0.7918,-0.7695,-0.7695,-0.7695,-0.7695,-0.7666,-0.7499,-0.7173,-0.6772,-0.649,-0.6214,-0.5874,-0.5617,-0.5428,-0.5309,-0.5182,-0.4966,-0.4646,-0.4447,-0.4151,-0.3826,-0.3429,-0.3039,-0.2746,-0.2447,-0.2147,-0.1744,-0.1174,-0.0639,-0.0269,0.0067,0.0303,0.0605,0.0973,0.1408,0.1776,0.2009,0.2245,0.2444,0.258,0.2712,0.2874,0.3105,0.3303,0.3695,0.4091,0.457,0.5042,0.5428,0.578,0.6307,0.6734,0.7056,0.7588,0.7927,0.8231,0.8495,0.8784,0.9112,0.9434,0.971,1.0034,-1.8031,-1.8015,-1.7985,-1.753,-1.6955,-1.694,-1.6608,-1.6009,-1.5802,-1.5638,-1.5429,-1.5184,-1.4958,-1.4853,-1.4825,-1.4856,-1.4918,-1.4966,-1.5011,-1.4887,-1.4718,-1.4515,-1.4351,-1.4072,-1.3828,-1.3648,-1.3547,-1.348,-1.3493,-1.3425,-1.3078,-1.2551,-1.2367,-1.1826,-1.0973,-1.0681,-1.0395,-1.0031,-0.9918,-0.9905,-0.988,-0.988,-0.988,-0.988,-0.9762,-0.9617,-0.9458,-0.919,-0.896,-0.8773,-0.8523,-0.8269,-0.7956,-0.7783,-0.7695,-0.7695,-0.7695,-0.7695,-0.7676,-0.7499,-0.7134,-0.6582,-0.6399,-0.6153,-0.5811,-0.5624,-0.5428,-0.5246,-0.4998,-0.4678,-0.4382,-0.4215,-0.4183,-0.4145,-0.3588,-0.3138,-0.2779,-0.2577,-0.2344,-0.2078,-0.1546,-0.101,-0.0605,-0.0235,0.0067,0.037,0.0638,0.104,0.1408,0.1676,0.1845,0.2045,0.2214,0.2414,0.2543,0.2845,0.3039,0.3204,0.3569,0.3988,0.4532,0.4985,0.5498,0.6029,0.6499,0.6824,0.7175,0.7511,0.784,0.8138,0.8421,0.8728,0.9031,0.9328,0.9658,-1.8515,-1.847,-1.799,-1.7657,-1.7507,-1.7507,-1.7371,-1.7189,-1.7081,-1.6612,-1.6145,-1.5886,-1.5518,-1.5129,-1.5011,-1.5027,-1.5133,-1.5133,-1.5147,-1.5086,-1.4856,-1.4529,-1.4235,-1.3861,-1.3615,-1.3527,-1.3391,-1.3288,-1.3254,-1.3267,-1.2977,-1.2416,-1.204,-1.1487,-1.0756,-1.033,-1.0069,-0.9918,-0.988,-0.988,-0.988,-0.988,-0.988,-0.9828,-0.9684,-0.9526,-0.9313,-0.8866,-0.8533,-0.8421,-0.8174,-0.8003,-0.7888,-0.7773,-0.7695,-0.7695,-0.7695,-0.7695,-0.7666,-0.7499,-0.7125,-0.6557,-0.636,-0.6137,-0.5763,-0.5592,-0.5372,-0.5151,-0.4902,-0.4517,-0.4031,-0.3863,-0.3798,-0.3536,-0.3266,-0.297,-0.2779,-0.2613,-0.2444,-0.2311,-0.1876,-0.1444,-0.1008,-0.0605,-0.0303,-0.0067,0.0269,0.0638,0.1007,0.1308,0.1509,0.1611,0.1747,0.2014,0.2281,0.258,0.2779,0.2812,0.3043,0.334,0.3988,0.4576,0.5151,0.578,0.6153,0.6521,0.6807,0.7157,0.7462,0.7773,0.8091,0.8393,0.8673,0.8976,0.9286,-1.9106,-1.9091,-1.8702,-1.8388,-1.8115,-1.8134,-1.7984,-1.7727,-1.7602,-1.7326,-1.6764,-1.6343,-1.5961,-1.5614,-1.5278,-1.5193,-1.5328,-1.5284,-1.5238,-1.5162,-1.4825,-1.4497,-1.4189,-1.3828,-1.3628,-1.348,-1.3288,-1.3245,-1.321,-1.321,-1.2897,-1.2434,-1.209,-1.1525,-1.0731,-1.0406,-1.0106,-0.9956,-0.988,-0.988,-0.988,-0.988,-0.988,-0.9802,-0.9658,-0.9446,-0.9058,-0.8561,-0.8251,-0.8127,-0.7984,-0.7869,-0.7821,-0.7744,-0.7695,-0.7695,-0.7695,-0.7695,-0.7676,-0.7499,-0.7145,-0.6691,-0.6435,-0.6129,-0.5763,-0.5474,-0.5151,-0.48,-0.4511,-0.4188,-0.3928,-0.37,-0.3536,-0.3307,-0.3006,-0.2841,-0.2815,-0.2646,-0.2543,-0.2444,-0.2178,-0.1778,-0.1343,-0.1041,-0.0773,-0.0505,-0.0168,0.0202,0.0538,0.0873,0.1074,0.1142,0.1345,0.1613,0.1914,0.2214,0.2547,0.258,0.2779,0.301,0.3536,0.4188,0.4826,0.5397,0.5811,0.6183,0.6513,0.6807,0.7145,0.7451,0.7763,0.808,0.8365,0.8656,0.896,-1.9705,-1.969,-1.969,-1.9346,-1.8852,-1.8792,-1.8523,-1.7996,-1.7944,-1.7755,-1.7368,-1.6804,-1.6477,-1.6184,-1.569,-1.5416,-1.5389,-1.5344,-1.5224,-1.5011,-1.4686,-1.4369,-1.4124,-1.3874,-1.3661,-1.348,-1.3288,-1.3232,-1.321,-1.321,-1.2973,-1.2597,-1.2422,-1.1902,-1.1144,-1.0794,-1.0418,-1.0106,-0.9943,-0.9905,-0.988,-0.988,-0.9854,-0.9762,-0.9579,-0.9232,-0.8784,-0.8393,-0.8119,-0.7917,-0.7898,-0.7821,-0.7725,-0.7695,-0.7695,-0.7695,-0.7695,-0.7695,-0.7666,-0.7499,-0.7235,-0.6854,-0.6496,-0.6129,-0.5732,-0.5316,-0.4864,-0.4479,-0.3961,-0.3798,-0.3733,-0.3597,-0.3368,-0.3142,-0.2845,-0.2746,-0.2749,-0.2646,-0.2577,-0.2679,-0.2347,-0.2011,-0.1711,-0.1444,-0.1211,-0.0973,-0.0604,-0.0235,0.0101,0.037,0.0504,0.0538,0.084,0.1211,0.1546,0.1847,0.2178,0.2411,0.2613,0.2878,0.3274,0.3891,0.4473,0.5017,0.5467,0.585,0.6183,0.649,0.6824,0.7125,0.7442,0.7763,0.808,0.8375,0.8656,-1.9705,-1.9705,-1.9705,-1.9615,-1.9495,-1.9465,-1.9375,-1.9226,-1.9185,-1.8737,-1.8278,-1.7969,-1.7257,-1.6396,-1.616,-1.5915,-1.5447,-1.5283,-1.5027,-1.4641,-1.4465,-1.4189,-1.3974,-1.3728,-1.3581,-1.3446,-1.3288,-1.3198,-1.321,-1.3198,-1.3148,-1.2998,-1.2642,-1.2259,-1.1933,-1.1157,-1.0669,-1.0495,-1.0157,-0.9931,-0.988,-0.988,-0.9828,-0.971,-0.9405,-0.9015,-0.8645,-0.8347,-0.8091,-0.7908,-0.7792,-0.7744,-0.7695,-0.7695,-0.7695,-0.7695,-0.7695,-0.7695,-0.7666,-0.7549,-0.7353,-0.6973,-0.6609,-0.6206,-0.5802,-0.5316,-0.4832,-0.4382,-0.3933,-0.3569,-0.3303,-0.327,-0.3142,-0.2944,-0.2815,-0.2712,-0.2712,-0.2679,-0.2679,-0.2646,-0.2477,-0.2245,-0.2014,-0.1776,-0.1542,-0.1373,-0.1074,-0.0639,-0.037,-0.0101,0.0067,0.0168,0.0437,0.084,0.1209,0.1577,0.1978,0.2245,0.2447,0.2679,0.3076,0.3471,0.4016,0.4602,0.5151,0.5498,0.5842,0.6153,0.649,0.6816,0.7125,0.7442,0.7734,0.8052,0.8375,-1.9705,-1.9705,-1.9705,-1.9705,-1.9705,-1.9705,-1.9705,-1.9705,-1.9647,-1.9309,-1.8847,-1.8389,-1.7751,-1.7098,-1.6485,-1.5946,-1.5626,-1.508,-1.4672,-1.4356,-1.4176,-1.396,-1.3775,-1.3581,-1.348,-1.3412,-1.3288,-1.3198,-1.321,-1.321,-1.3198,-1.3198,-1.2885,-1.2622,-1.2429,-1.1745,-1.1219,-1.0719,-1.0431,-1.0155,-0.9943,-0.988,-0.9776,-0.9579,-0.9298,-0.8971,-0.8628,-0.8347,-0.8119,-0.7937,-0.7773,-0.7695,-0.7695,-0.7695,-0.7695,-0.7695,-0.7695,-0.7695,-0.7666,-0.7578,-0.7344,-0.7041,-0.6678,-0.6299,-0.5881,-0.5442,-0.5055,-0.4576,-0.4058,-0.3504,-0.3105,-0.2944,-0.2915,-0.2878,-0.2749,-0.2679,-0.2679,-0.2679,-0.2679,-0.2646,-0.2543,-0.248,-0.2311,-0.2045,-0.1845,-0.1642,-0.1473,-0.1107,-0.0774,-0.0505,-0.0168,0.0,0.0202,0.0504,0.0907,0.1343,0.1845,0.2078,0.2281,0.2513,0.2812,0.3138,0.3499,0.4145,0.4832,0.5182,0.5498,0.5842,0.6153,0.649,0.6786,0.7107,0.7403,0.7705,0.8033,-1.9705,-1.9705,-1.9705,-1.9705,-1.9705,-1.9705,-1.9705,-1.969,-1.9596,-1.942,-1.9177,-1.8433,-1.8064,-1.7634,-1.6701,-1.6142,-1.5572,-1.4902,-1.4278,-1.4065,-1.3894,-1.3762,-1.3594,-1.3459,-1.3357,-1.3357,-1.3254,-1.3198,-1.321,-1.321,-1.321,-1.3185,-1.3198,-1.296,-1.263,-1.2391,-1.1939,-1.1194,-1.0931,-1.0568,-1.0182,-1.0055,-0.9911,-0.9538,-0.9298,-0.9015,-0.8656,-0.8375,-0.8091,-0.7937,-0.7773,-0.7695,-0.7695,-0.7695,-0.7695,-0.7695,-0.7695,-0.7695,-0.7666,-0.7569,-0.7373,-0.7041,-0.679,-0.6452,-0.6036,-0.5693,-0.5302,-0.4762,-0.4221,-0.3607,-0.3307,-0.3047,-0.2911,-0.2874,-0.2779,-0.2716,-0.2712,-0.2679,-0.2679,-0.2679,-0.2613,-0.258,-0.2513,-0.2344,-0.2111,-0.1911,-0.1742,-0.1509,-0.1176,-0.0774,-0.0403,0.0,0.0,0.0,0.0672,0.1041,0.1577,0.1878,0.2081,0.2347,0.258,0.2841,0.327,0.3891,0.4473,0.4832,0.5151,0.5498,0.5811,0.6153,0.649,0.6794,0.7095,0.7392,0.7715,-1.9705,-1.9705,-1.9705,-1.9705,-1.9705,-1.9705,-1.9705,-1.9654,-1.9523,-1.9325,-1.9072,-1.8783,-1.8223,-1.7664,-1.7385,-1.6478,-1.5401,-1.4587,-1.408,-1.3881,-1.37,-1.3527,-1.3425,-1.3323,-1.3232,-1.3232,-1.321,-1.321,-1.321,-1.321,-1.321,-1.321,-1.321,-1.3085,-1.2922,-1.268,-1.2379,-1.1896,-1.16,-1.1161,-1.0721,-1.0481,-1.021,-0.9673,-0.9387,-0.9042,-0.8701,-0.8375,-0.8119,-0.7927,-0.7773,-0.7695,-0.7695,-0.7695,-0.7695,-0.7695,-0.7695,-0.7695,-0.7695,-0.7627,-0.7442,-0.7196,-0.6966,-0.6712,-0.6353,-0.5974,-0.5585,-0.5042,-0.4344,-0.3705,-0.3639,-0.3307,-0.3076,-0.2973,-0.2845,-0.2749,-0.2712,-0.2679,-0.2679,-0.2712,-0.2679,-0.2646,-0.258,-0.2447,-0.2211,-0.2011,-0.1845,-0.1611,-0.1279,-0.0841,-0.0403,0.0,0.0,0.0,0.0504,0.084,0.1276,0.1611,0.1878,0.2214,0.2447,0.2613,0.3039,0.3565,0.4053,0.4473,0.4832,0.5151,0.5505,0.5811,0.616,0.6499,0.6803,0.7095,0.7392,-1.9705,-1.9705,-1.9705,-1.9705,-1.9705,-1.9705,-1.9705,-1.969,-1.9487,-1.925,-1.8988,-1.8655,-1.8282,-1.773,-1.7222,-1.6407,-1.5421,-1.4607,-1.4198,-1.3972,-1.3659,-1.3391,-1.3335,-1.3232,-1.3198,-1.321,-1.321,-1.321,-1.321,-1.321,-1.321,-1.321,-1.321,-1.321,-1.3173,-1.296,-1.2667,-1.2441,-1.2128,-1.1738,-1.1186,-1.0906,-1.0433,-1.0055,-0.9497,-0.9069,-0.8728,-0.8375,-0.8119,-0.7937,-0.7783,-0.7725,-0.7695,-0.7695,-0.7695,-0.7695,-0.7695,-0.7695,-0.7695,-0.7656,-0.7559,-0.7442,-0.7175,-0.6893,-0.6598,-0.6253,-0.5866,-0.546,-0.5017,-0.4382,-0.4053,-0.3667,-0.3372,-0.3142,-0.2981,-0.2849,-0.2782,-0.2749,-0.2749,-0.2746,-0.2712,-0.2679,-0.2646,-0.248,-0.2278,-0.2078,-0.1945,-0.1646,-0.1348,-0.0943,-0.0471,0.0,0.0,0.0,0.0,0.0571,0.0907,0.1276,0.1611,0.1978,0.2281,0.2447,0.2679,0.3076,0.3565,0.4053,0.4479,0.48,0.5151,0.5474,0.5819,0.616,0.646,0.6764,0.7065,-1.9705,-1.9705,-1.9705,-1.9705,-1.9705,-1.9705,-1.9705,-1.9654,-1.9487,-1.9228,-1.8874,-1.8514,-1.824,-1.7798,-1.7088,-1.6282,-1.5604,-1.4935,-1.4467,-1.4139,-1.3775,-1.3452,-1.3245,-1.321,-1.321,-1.321,-1.321,-1.321,-1.321,-1.321,-1.321,-1.321,-1.321,-1.321,-1.3185,-1.3148,-1.2872,-1.2697,-1.2554,-1.2291,-1.1763,-1.1194,-1.0681,-1.0408,-0.9762,-0.9223,-0.8739,-0.8375,-0.8119,-0.7937,-0.7792,-0.7695,-0.7695,-0.7695,-0.7695,-0.7695,-0.7695,-0.7695,-0.7695,-0.7656,-0.7627,-0.7627,-0.7342,-0.7074,-0.6794,-0.649,-0.6153,-0.5905,-0.5561,-0.5087,-0.4505,-0.4053,-0.37,-0.341,-0.3146,-0.2981,-0.2915,-0.2849,-0.2845,-0.2812,-0.2746,-0.2712,-0.2679,-0.2517,-0.2281,-0.2111,-0.1945,-0.168,-0.138,-0.1044,-0.0639,-0.037,0.0,0.0,0.0,0.0,0.0571,0.0907,0.1276,0.1611,0.1978,0.2281,0.2513,0.2746,0.3043,0.3536,0.3988,0.4447,0.48,0.5119,0.5467,0.578,0.6052,0.639,0.6695,-1.9705,-1.9705,-1.9705,-1.9705,-1.9705,-1.9705,-1.9705,-1.969,-1.9487,-1.9213,-1.8898,-1.8567,-1.8268,-1.7733,-1.689,-1.627,-1.5865,-1.5312,-1.4777,-1.4422,-1.4094,-1.3717,-1.3286,-1.321,-1.321,-1.321,-1.321,-1.321,-1.321,-1.321,-1.321,-1.321,-1.321,-1.321,-1.321,-1.321,-1.3173,-1.3098,-1.3073,-1.281,-1.2284,-1.1659,-1.1055,-1.0532,-1.0061,-0.9574,-0.8932,-0.8556,-0.8214,-0.7948,-0.7793,-0.7695,-0.7695,-0.7695,-0.7695,-0.7695,-0.7695,-0.7695,-0.7695,-0.7695,-0.7656,-0.7666,-0.747,-0.7253,-0.6915,-0.6582,-0.6307,-0.6245,-0.5905,-0.5498,-0.4928,-0.4505,-0.4086,-0.3733,-0.3442,-0.3241,-0.3142,-0.3047,-0.3014,-0.2845,-0.2779,-0.2712,-0.2679,-0.2483,-0.2284,-0.2114,-0.1947,-0.1715,-0.1447,-0.1177,-0.0875,-0.0639,-0.0336,0.0,0.0,0.0,0.0,0.0,0.0908,0.1278,0.1611,0.1978,0.2314,0.2547,0.2815,0.308,0.3536,0.3993,0.4415,0.4768,0.5055,0.5334,0.5634,0.5975,0.6337,-1.9705,-1.9705,-1.9705,-1.9705,-1.9705,-1.9705,-1.9705,-1.969,-1.956,-1.9339,-1.8988,-1.8683,-1.8254,-1.7653,-1.7021,-1.6764,-1.6471,-1.5862,-1.5438,-1.498,-1.4512,-1.402,-1.3707,-1.3396,-1.321,-1.3286,-1.321,-1.321,-1.321,-1.3223,-1.321,-1.321,-1.321,-1.321,-1.321,-1.321,-1.321,-1.3198,-1.3185,-1.3073,-1.2693,-1.2147,-1.1589,-1.1128,-1.0526,-0.9942,-0.9428,-0.9067,-0.8643,-0.8299,-0.793,-0.7695,-0.7695,-0.7695,-0.7695,-0.7695,-0.7695,-0.7695,-0.7695,-0.7695,-0.7695,-0.7666,-0.7529,-0.7283,-0.6945,-0.6612,-0.6376,-0.6315,-0.5998,-0.5592,-0.5221,-0.4832,-0.4447,-0.4091,-0.3798,-0.3662,-0.3493,-0.3311,-0.3179,-0.2977,-0.2812,-0.2746,-0.2712,-0.258,-0.2417,-0.2311,-0.2145,-0.1914,-0.1713,-0.1509,-0.1209,-0.0908,-0.0572,0.0,0.0,0.0,0.0,0.0,0.0642,0.0978,0.1276,0.1611,0.1955,0.2326,0.2593,0.2889,0.3187,0.3574,0.4036,0.4323,0.4614,0.4958,0.5294,0.5582,0.5981,-1.9705,-1.9705,-1.9705,-1.9705,-1.9705,-1.9705,-1.9705,-1.969,-1.9647,-1.9428,-1.9139,-1.8745,-1.8226,-1.772,-1.7407,-1.7203,-1.705,-1.6565,-1.6198,-1.5708,-1.5133,-1.4613,-1.4285,-1.3896,-1.3722,-1.3622,-1.3571,-1.3534,-1.3446,-1.3298,-1.321,-1.321,-1.321,-1.321,-1.321,-1.321,-1.321,-1.3198,-1.3163,-1.3116,-1.2914,-1.247,-1.2001,-1.1462,-1.0909,-1.0289,-0.9841,-0.9468,-0.9033,-0.8696,-0.8009,-0.7705,-0.7705,-0.825,-0.8328,-0.8289,-0.8211,-0.8036,-0.7851,-0.7695,-0.7695,-0.7608,-0.744,-0.7143,-0.6794,-0.659,-0.6368,-0.616,-0.5967,-0.5655,-0.534,-0.5062,-0.4736,-0.4409,-0.4156,-0.4034,-0.3966,-0.3937,-0.3639,-0.3241,-0.3039,-0.2812,-0.2746,-0.2712,-0.2613,-0.2477,-0.2311,-0.2147,-0.1945,-0.1776,-0.1481,-0.1182,-0.0908,-0.0538,0.0,0.0,0.0,0.0,0.0,0.0646,0.0918,0.1261,0.1646,0.1982,0.2364,0.2719,0.3018,0.3343,0.3667,0.4039,0.4393,0.466,0.4982,0.5294,0.5652,-1.9705,-1.9705,-1.9675,-1.9705,-1.9705,-1.9705,-1.9705,-1.969,-1.9647,-1.9501,-1.9265,-1.8784,-1.8344,-1.7988,-1.776,-1.7557,-1.738,-1.7299,-1.686,-1.6373,-1.5916,-1.5401,-1.5018,-1.4714,-1.4601,-1.4576,-1.4261,-1.4047,-1.3946,-1.3647,-1.3386,-1.321,-1.3273,-1.3235,-1.321,-1.321,-1.321,-1.321,-1.3141,-1.3012,-1.2873,-1.2506,-1.2095,-1.1446,-1.0943,-1.0448,-0.9684,-0.9498,-0.9253,-0.9047,-0.8479,-0.7929,-0.8143,-0.9082,-0.9326,-0.9082,-0.8887,-0.8606,-0.816,-0.7899,-0.7695,-0.7479,-0.7284,-0.7116,-0.6839,-0.6585,-0.6307,-0.5967,-0.5811,-0.5656,-0.5445,-0.5214,-0.4966,-0.4879,-0.4703,-0.47,-0.4691,-0.4739,-0.4383,-0.3693,-0.3344,-0.3215,-0.2879,-0.2826,-0.2706,-0.2599,-0.2477,-0.2311,-0.2114,-0.1914,-0.1655,-0.1389,-0.118,-0.0877,-0.0508,0.0,0.0,0.0,0.0,0.0392,0.0519,0.0904,0.1284,0.1769,0.2168,0.2511,0.2861,0.3179,0.3471,0.3859,0.4182,0.4524,0.4962,0.5387,0.5645,-1.9076,-1.9121,-1.951,-1.9705,-1.9705,-1.9705,-1.9705,-1.969,-1.9654,-1.9523,-1.9288,-1.895,-1.8606,-1.8333,-1.8161,-1.8016,-1.7895,-1.7801,-1.7424,-1.6956,-1.6506,-1.5994,-1.5554,-1.5169,-1.4878,-1.4903,-1.4689,-1.4588,-1.4551,-1.4224,-1.4262,-1.4111,-1.3586,-1.3261,-1.321,-1.3223,-1.321,-1.3176,-1.3107,-1.299,-1.2733,-1.2461,-1.2046,-1.1492,-1.1097,-1.0741,-1.0282,-1.0043,-0.9774,-0.9469,-0.9258,-0.8945,-0.8662,-0.9746,-0.999,-0.9727,-0.9537,-0.9069,-0.8709,-0.845,-0.828,-0.8047,-0.7771,-0.7433,-0.7063,-0.6719,-0.6377,-0.6067,-0.5765,-0.5669,-0.5889,-0.5538,-0.5235,-0.5307,-0.536,-0.5373,-0.542,-0.5439,-0.5231,-0.4598,-0.4144,-0.3821,-0.3421,-0.2993,-0.2853,-0.2723,-0.263,-0.2486,-0.2315,-0.2089,-0.1836,-0.1589,-0.1344,-0.0972,-0.058,-0.0334,-0.0152,0.0,0.0118,0.0191,0.0297,0.0522,0.0961,0.1467,0.1937,0.2306,0.2632,0.2936,0.3298,0.3651,0.4038,0.4467,0.4951,0.5442,0.5767,-1.8538,-1.8762,-1.9196,-1.951,-1.9675,-1.9705,-1.9705,-1.9705,-1.969,-1.9581,-1.9302,-1.913,-1.8903,-1.8659,-1.8528,-1.8411,-1.8307,-1.8175,-1.7922,-1.7478,-1.6982,-1.6543,-1.6105,-1.5749,-1.5517,-1.5329,-1.5153,-1.5116,-1.5155,-1.4991,-1.4828,-1.4525,-1.4149,-1.381,-1.3471,-1.3273,-1.321,-1.3163,-1.3025,-1.2838,-1.2556,-1.221,-1.1836,-1.1361,-1.0977,-1.074,-1.0472,-1.028,-1.0134,-1.0018,-0.9922,-0.9883,-0.9805,-0.9883,-1.0253,-1.0108,-0.9848,-0.943,-0.93,-0.8958,-0.862,-0.821,-0.7942,-0.7629,-0.7305,-0.6778,-0.6428,-0.6082,-0.5875,-0.5959,-0.6418,-0.6146,-0.5905,-0.5999,-0.6079,-0.611,-0.6142,-0.6153,-0.5932,-0.555,-0.5113,-0.4601,-0.406,-0.3594,-0.3187,-0.3008,-0.2859,-0.2724,-0.2537,-0.2288,-0.1992,-0.1737,-0.1508,-0.1039,-0.0591,-0.0323,-0.0082,-0.0041,0.0042,0.0041,0.0162,0.0,0.0,0.1068,0.1527,0.201,0.2395,0.2762,0.3104,0.3438,0.3942,0.4459,0.4897,0.54,0.5899,-1.8056,-1.8672,-1.8732,-1.9106,-1.9615,-1.969,-1.969,-1.969,-1.9654,-1.9545,-1.9339,-1.9153,-1.904,-1.8903,-1.876,-1.8683,-1.862,-1.8464,-1.8228,-1.7814,-1.7382,-1.7107,-1.6802,-1.6422,-1.6132,-1.6283,-1.5982,-1.568,-1.5668,-1.5367,-1.5116,-1.4989,-1.4775,-1.4438,-1.4023,-1.3521,-1.3213,-1.3097,-1.2946,-1.2663,-1.2246,-1.1872,-1.1457,-1.1094,-1.0802,-1.0572,-1.0418,-1.0351,-1.0253,-1.0244,-1.0244,-1.0214,-1.0195,-1.0195,-1.0322,-1.0293,-1.0118,-0.9895,-0.9619,-0.8998,-0.8536,-0.8187,-0.7994,-0.7669,-0.7202,-0.683,-0.6563,-0.6316,-0.6405,-0.6727,-0.6892,-0.6894,-0.664,-0.6553,-0.6627,-0.6653,-0.6661,-0.6613,-0.6312,-0.6121,-0.5817,-0.5422,-0.4813,-0.4246,-0.3654,-0.335,-0.3128,-0.2926,-0.2753,-0.2534,-0.2213,-0.1872,-0.1598,-0.1153,-0.0718,-0.0305,-0.0044,0.0,0.0,0.0,0.0,0.0,0.0,0.0,0.1118,0.1551,0.2047,0.2578,0.2875,0.3197,0.3952,0.4496,0.4928,0.5333,0.577,-1.7174,-1.7443,-1.8343,-1.8802,-1.9036,-1.9525,-1.969,-1.9611,-1.9472,-1.9362,-1.9228,-1.9078,-1.8965,-1.8889,-1.8836,-1.8745,-1.8721,-1.8556,-1.8321,-1.7922,-1.7557,-1.7227,-1.6905,-1.665,-1.6534,-1.6484,-1.6283,-1.6153,-1.6148,-1.5824,-1.579,-1.5736,-1.5233,-1.4891,-1.4573,-1.4187,-1.4026,-1.3496,-1.3204,-1.2815,-1.2087,-1.1649,-1.1239,-1.086,-1.0592,-1.0418,-1.0341,-1.0322,-1.0322,-1.0322,-1.0322,-1.0322,-1.0322,-1.0322,-1.0322,-1.0283,-1.0157,-0.9825,-0.935,-0.8802,-0.8551,-0.83,-0.8062,-0.7827,-0.785,-0.7403,-0.7019,-0.6698,-0.6774,-0.6972,-0.6952,-0.6945,-0.6854,-0.686,-0.6866,-0.6872,-0.6875,-0.6797,-0.6609,-0.6476,-0.6221,-0.5663,-0.5101,-0.4631,-0.4066,-0.3687,-0.3454,-0.3151,-0.2952,-0.2722,-0.2454,-0.2065,-0.1694,-0.1266,-0.0851,-0.0538,-0.0314,-0.0268,-0.0178,-0.0089,0.0,0.0,0.0,0.0,0.0,0.1077,0.1658,0.2192,0.2539,0.3014,0.3605,0.4188,0.4604,0.5034,0.5503,-1.6502,-1.6816,-1.7623,-1.8212,-1.8619,-1.9349,-1.956,-1.9413,-1.9213,-1.9064,-1.8898,-1.8812,-1.8683,-1.863,-1.8616,-1.8616,-1.8592,-1.8464,-1.8228,-1.7868,-1.7516,-1.7199,-1.6905,-1.665,-1.6522,-1.6491,-1.6479,-1.6411,-1.633,-1.6281,-1.6071,-1.5818,-1.5531,-1.5187,-1.4885,-1.4599,-1.4201,-1.3679,-1.3376,-1.2973,-1.2302,-1.1739,-1.1253,-1.0891,-1.0586,-1.0351,-1.0322,-1.0322,-1.0322,-1.0322,-1.0322,-1.0322,-1.0322,-1.0322,-1.0322,-1.0283,-1.0,-0.9579,-0.9022,-0.8537,-0.8309,-0.8204,-0.8021,-0.7987,-0.8036,-0.7549,-0.7259,-0.703,-0.7021,-0.6972,-0.6972,-0.6972,-0.6972,-0.6972,-0.6979,-0.6979,-0.6979,-0.6859,-0.6823,-0.6689,-0.6513,-0.591,-0.5356,-0.4927,-0.447,-0.4085,-0.3745,-0.3451,-0.3175,-0.2944,-0.2694,-0.2316,-0.1915,-0.1507,-0.121,-0.0987,-0.0718,-0.0539,-0.0404,-0.0314,0.0,0.0,0.0,0.0,0.0,0.0853,0.1299,0.1787,0.214,0.2586,0.3037,0.3656,0.4224,0.4753,0.5193,-1.6144,-1.6606,-1.6604,-1.7282,-1.8308,-1.8986,-1.9244,-1.9049,-1.8874,-1.8655,-1.8475,-1.8344,-1.8279,-1.8266,-1.8266,-1.8266,-1.8226,-1.8175,-1.7935,-1.7639,-1.731,-1.7073,-1.6876,-1.662,-1.6534,-1.6479,-1.6392,-1.6306,-1.6306,-1.6001,-1.5768,-1.5591,-1.5386,-1.5168,-1.49,-1.4537,-1.4111,-1.3825,-1.3522,-1.3081,-1.2481,-1.1911,-1.1501,-1.1095,-1.0765,-1.0498,-1.0391,-1.0371,-1.0332,-1.0322,-1.0322,-1.0322,-1.0322,-1.0322,-1.0322,-1.0157,-0.9795,-0.9279,-0.8797,-0.8316,-0.8032,-0.7943,-0.7792,-0.7657,-0.753,-0.7454,-0.7238,-0.7063,-0.6972,-0.6972,-0.6972,-0.6972,-0.6972,-0.6972,-0.6972,-0.6979,-0.6979,-0.6937,-0.6943,-0.6859,-0.6768,-0.6343,-0.5798,-0.5285,-0.4888,-0.4504,-0.4144,-0.3795,-0.3524,-0.3242,-0.2974,-0.259,-0.2176,-0.1782,-0.1523,-0.139,-0.1211,-0.1077,-0.0763,-0.0627,-0.0449,-0.027,0.0,0.0,0.0,0.0584,0.0987,0.1389,0.1791,0.2192,0.2549,0.3214,0.3829,0.4355,0.484,-1.5699,-1.5876,-1.6287,-1.6571,-1.6857,-1.7511,-1.813,-1.8588,-1.8344,-1.8147,-1.8002,-1.7908,-1.7841,-1.7747,-1.7828,-1.7787,-1.776,-1.7679,-1.757,-1.7323,-1.7115,-1.6931,-1.6718,-1.6534,-1.6448,-1.6362,-1.6219,-1.6088,-1.5869,-1.5603,-1.5277,-1.5096,-1.4926,-1.48,-1.4596,-1.435,-1.4093,-1.3858,-1.3629,-1.3173,-1.2658,-1.2086,-1.1739,-1.1449,-1.1008,-1.0781,-1.0703,-1.0528,-1.0449,-1.0381,-1.0351,-1.0332,-1.0322,-1.0283,-1.0283,-1.0049,-0.9607,-0.9168,-0.8692,-0.8126,-0.7795,-0.7767,-0.7671,-0.7502,-0.7363,-0.723,-0.7117,-0.7072,-0.7012,-0.6999,-0.7038,-0.7052,-0.7092,-0.7125,-0.7158,-0.7268,-0.7241,-0.7078,-0.7078,-0.6943,-0.6852,-0.6647,-0.6099,-0.5766,-0.5371,-0.4975,-0.4583,-0.4188,-0.3836,-0.3527,-0.3217,-0.2818,-0.2551,-0.2192,-0.1969,-0.1835,-0.1703,-0.1569,-0.1299,-0.103,-0.0896,-0.0673,-0.0404,-0.009,0.0225,0.0405,0.0629,0.0988,0.139,0.1655,0.2012,0.2721,0.3432,0.3921,0.4451,-1.5403,-1.5462,-1.5721,-1.5805,-1.5843,-1.6295,-1.6875,-1.7293,-1.7624,-1.7679,-1.7488,-1.7434,-1.7352,-1.7323,-1.7406,-1.7406,-1.731,-1.731,-1.724,-1.7086,-1.6931,-1.6748,-1.6577,-1.6479,-1.6362,-1.6219,-1.6001,-1.5768,-1.5558,-1.5108,-1.4731,-1.4501,-1.4337,-1.4197,-1.4061,-1.3903,-1.3818,-1.3739,-1.3531,-1.3202,-1.2789,-1.2307,-1.2059,-1.1837,-1.1406,-1.1221,-1.1143,-1.0891,-1.0832,-1.0822,-1.0822,-1.0616,-1.0606,-1.0547,-1.0688,-1.0529,-1.0187,-0.9663,-0.9165,-0.8586,-0.8139,-0.7848,-0.7709,-0.7609,-0.7415,-0.7251,-0.7196,-0.7178,-0.7102,-0.7038,-0.7105,-0.7171,-0.7251,-0.7324,-0.7475,-0.7582,-0.7448,-0.7288,-0.7168,-0.7005,-0.6894,-0.6768,-0.6477,-0.6147,-0.5809,-0.5371,-0.4932,-0.4535,-0.41,-0.3707,-0.3394,-0.304,-0.2862,-0.2637,-0.246,-0.2284,-0.2194,-0.2016,-0.1837,-0.1612,-0.1389,-0.0942,-0.0449,-0.0135,0.018,0.0315,0.0405,0.0629,0.0942,0.121,0.1566,0.2146,0.2815,0.3486,0.4016,-1.5238,-1.5253,-1.5027,-1.5063,-1.5209,-1.5505,-1.5548,-1.5504,-1.6625,-1.7068,-1.6915,-1.6976,-1.6989,-1.6989,-1.7002,-1.7002,-1.6989,-1.6989,-1.696,-1.6888,-1.6748,-1.662,-1.6522,-1.6392,-1.6175,-1.5957,-1.568,-1.5367,-1.5187,-1.4731,-1.4233,-1.3962,-1.3716,-1.3621,-1.3621,-1.3525,-1.3416,-1.3385,-1.3412,-1.3256,-1.3064,-1.2686,-1.2385,-1.2197,-1.1904,-1.1655,-1.1636,-1.1606,-1.1596,-1.1587,-1.1469,-1.1116,-1.1028,-1.124,-1.1441,-1.1148,-1.0774,-1.0136,-0.9542,-0.8986,-0.8453,-0.8146,-0.7888,-0.7891,-0.7719,-0.738,-0.7315,-0.7301,-0.7238,-0.7367,-0.7451,-0.7623,-0.7769,-0.7862,-0.7969,-0.7882,-0.7655,-0.7502,-0.7368,-0.7228,-0.7025,-0.6898,-0.6732,-0.6398,-0.6153,-0.5761,-0.528,-0.484,-0.4416,-0.3983,-0.3592,-0.3277,-0.3129,-0.2996,-0.2818,-0.264,-0.264,-0.2506,-0.2286,-0.2105,-0.188,-0.1254,-0.0494,-0.018,0.0135,0.018,0.027,0.045,0.0629,0.0851,0.121,0.1569,0.2196,0.2962,0.3578,-1.4856,-1.4887,-1.4574,-1.4626,-1.4857,-1.4719,-1.4811,-1.5108,-1.535,-1.5771,-1.6191,-1.6545,-1.6718,-1.6693,-1.6748,-1.6748,-1.6693,-1.6748,-1.6718,-1.6663,-1.6577,-1.6534,-1.6392,-1.6219,-1.5944,-1.5635,-1.5322,-1.4915,-1.4547,-1.4176,-1.3905,-1.3716,-1.342,-1.3286,-1.3258,-1.321,-1.3162,-1.3113,-1.3113,-1.3162,-1.3064,-1.2967,-1.2763,-1.2588,-1.2324,-1.21,-1.1992,-1.1812,-1.1694,-1.1596,-1.1596,-1.1469,-1.1361,-1.2145,-1.2386,-1.2073,-1.1269,-1.0543,-0.997,-0.9375,-0.8761,-0.8449,-0.8243,-0.8265,-0.8043,-0.7602,-0.7402,-0.7449,-0.7502,-0.7671,-0.7852,-0.8062,-0.8237,-0.8343,-0.8417,-0.815,-0.7876,-0.7722,-0.7582,-0.7388,-0.7188,-0.7003,-0.6872,-0.6728,-0.6404,-0.6019,-0.5545,-0.5072,-0.471,-0.428,-0.3819,-0.3539,-0.3404,-0.3217,-0.3084,-0.304,-0.2996,-0.2818,-0.2551,-0.2417,-0.2284,-0.1345,-0.0405,-0.018,0.0045,0.0,0.0,0.018,0.0406,0.0592,0.0913,0.1288,0.1729,0.2402,0.3013,-1.4525,-1.4543,-1.4235,-1.4146,-1.4171,-1.3989,-1.4027,-1.4222,-1.4437,-1.4904,-1.5499,-1.5989,-1.6325,-1.6471,-1.6577,-1.6577,-1.6522,-1.6565,-1.6565,-1.6522,-1.6491,-1.6405,-1.6275,-1.6001,-1.5691,-1.5379,-1.4869,-1.4408,-1.4035,-1.3752,-1.3563,-1.342,-1.318,-1.3055,-1.3036,-1.3036,-1.2988,-1.2939,-1.2891,-1.2939,-1.3036,-1.2939,-1.2891,-1.2773,-1.2676,-1.251,-1.2461,-1.2266,-1.2263,-1.2204,-1.2243,-1.2243,-1.2217,-1.2464,-1.256,-1.2289,-1.1663,-1.1006,-1.0488,-0.9851,-0.9102,-0.8733,-0.8561,-0.8515,-0.8365,-0.7929,-0.781,-0.779,-0.7355,-0.7402,-0.8023,-0.8294,-0.8493,-0.8604,-0.8611,-0.8464,-0.817,-0.7936,-0.7749,-0.7522,-0.7295,-0.7012,-0.6993,-0.7173,-0.6834,-0.6496,-0.5956,-0.5495,-0.5083,-0.4562,-0.4119,-0.3809,-0.3651,-0.3526,-0.3398,-0.3353,-0.3309,-0.3084,-0.2845,-0.2339,-0.1894,-0.1034,-0.0315,0.0,0.0,0.0,0.0,0.0,0.0,0.0336,0.0669,0.0996,0.1451,0.2002,0.2733,-1.417,-1.4157,-1.3974,-1.3741,-1.3493,-1.3391,-1.3339,-1.3345,-1.377,-1.4349,-1.4953,-1.5404,-1.5932,-1.6371,-1.6534,-1.6534,-1.6522,-1.6479,-1.6479,-1.6479,-1.6479,-1.6318,-1.61,-1.5869,-1.5424,-1.4915,-1.4362,-1.4035,-1.3763,-1.3525,-1.3334,-1.318,-1.3055,-1.2939,-1.2891,-1.2939,-1.2891,-1.2891,-1.2891,-1.2891,-1.2939,-1.2891,-1.2891,-1.2891,-1.2891,-1.2891,-1.2871,-1.2871,-1.2861,-1.2871,-1.2782,-1.2763,-1.2695,-1.2657,-1.2472,-1.2258,-1.1944,-1.159,-1.132,-1.0372,-0.9585,-0.8981,-0.8857,-0.8692,-0.8468,-0.8349,-0.8171,-0.7859,-0.7456,-0.7461,-0.8043,-0.8521,-0.8672,-0.8771,-0.8751,-0.8731,-0.8444,-0.8196,-0.7996,-0.7782,-0.7582,-0.7264,-0.7347,-0.7521,-0.7276,-0.6955,-0.6471,-0.6039,-0.5543,-0.4979,-0.4439,-0.4134,-0.3904,-0.3799,-0.3629,-0.3537,-0.3493,-0.349,-0.3149,-0.2351,-0.1565,-0.1005,0.0,0.0,0.0,0.0,0.0,0.0,0.0,0.0,0.04,0.0792,0.1331,0.1873,0.262,-1.3715,-1.3715,-1.3628,-1.3527,-1.3391,-1.3301,-1.3232,-1.321,-1.3323,-1.3923,-1.4752,-1.5054,-1.5542,-1.6534,-1.6534,-1.6491,-1.6479,-1.6436,-1.6392,-1.6392,-1.6306,-1.61,-1.5881,-1.557,-1.5017,-1.4466,-1.3952,-1.3658,-1.3525,-1.3296,-1.321,-1.318,-1.3007,-1.2929,-1.2891,-1.2891,-1.2891,-1.2891,-1.2891,-1.2891,-1.2891,-1.2891,-1.2891,-1.2891,-1.2891,-1.2891,-1.2881,-1.2891,-1.2881,-1.2891,-1.2891,-1.2891,-1.2881,-1.2774,-1.2578,-1.2224,-1.1868,-1.1868,-1.141,-1.0482,-0.9569,-0.891,-0.8804,-0.8745,-0.858,-0.8474,-0.8249,-0.7984,-0.7681,-0.7568,-0.7996,-0.8533,-0.8791,-0.8791,-0.8784,-0.8778,-0.8644,-0.8591,-0.851,-0.8444,-0.8383,-0.8263,-0.8247,-0.8152,-0.7782,-0.7374,-0.6788,-0.6328,-0.5898,-0.5332,-0.4779,-0.4415,-0.4148,-0.3918,-0.3656,-0.3602,-0.3574,-0.3648,-0.3477,-0.2663,-0.193,-0.1264,0.0,0.0,0.0,0.0,0.0,0.0,0.0,0.0154,0.0258,0.0568,0.1135,0.176,0.2366]},{"header":{"parameterUnit":"m.s-1","parameterCategory":1,"la1":31.0,"la2":29.5877,"lo1":-88.7671,"lo2":-86.6584,"dy":0.0162,"dx":0.0185,"nx":115,"ny":88,"refTime":"2026-03-13T00:00:00:Z","depth":0,"parameterNumber":3,"parameterNumberName":"V-component_of_WINDS"},"data":[0.0,0.0,0.0,0.0,0.0,0.0,0.0,0.0,0.0,0.0,0.0,0.0,0.0,0.0,0.0,0.0,0.0,0.0,0.0,0.0,0.0,0.0,0.0,0.0,0.0,0.0,0.0,0.0,0.0,0.0,0.0,0.0,0.0,0.0,0.0,0.0,0.0,0.0,0.0,0.0,0.0,0.0,0.0,0.0,0.0,0.0,0.0,0.0,0.0,0.0,0.0,0.0,0.0,0.0,0.0,0.0,0.0,0.0,0.0,0.0,0.0,0.0,0.0,0.0,0.0,0.0,0.0,0.0,0.0,0.0,0.0,0.0,0.0,0.0,0.0,0.0,0.0,0.0,0.0,0.0,0.0,0.0,0.0,0.0,0.0,0.0,0.0,0.0,0.0,0.0,0.0,0.0,0.0,0.0,0.0,0.0,0.0,0.0,0.0,0.0,0.0,0.0,0.0,0.0,0.0,0.0,0.0,0.0,0.0,0.0,0.0,0.0,0.0,0.0,0.0,0.0,0.0,0.0,0.0,0.0,0.0,0.0,0.0,0.0,0.0,0.0,0.0,0.0,0.0,0.0,0.0,0.0,0.0,0.0,0.0,0.0,0.0,0.0,0.0,0.0,0.0,0.0,0.0,0.0,0.0,0.0,0.0,0.0,0.0,0.0,0.0,0.0,0.0,0.0,0.0,0.0,0.0,0.0,0.0,0.0,0.0,0.0,0.0,0.0,0.0,0.0,0.0,0.0,0.0,0.0,0.0,0.0,0.0,0.0,0.0,0.0,0.0,0.0,0.0,0.0,0.0,0.0,0.0,0.0,0.0,0.0,0.0,0.0,0.0,0.0,0.0,0.0,0.0,0.0,0.0,0.0,0.0,0.0,0.0,0.0,0.0,0.0,0.0,0.0,0.0,0.0,0.0,0.0,0.0,0.0,0.0,0.0,0.0,0.0,0.0,0.0,0.0,0.0,0.0,0.0,0.0,0.0,0.0,0.0,0.0,0.0,0.0,0.0,0.0,0.0,0.0,0.0,0.0,0.0,0.0,0.0,0.0,0.0,0.0,0.0,0.0,0.0,0.0,0.0,0.0,0.0,0.0,0.0,0.0,0.0,0.0,0.0,0.0,0.0,0.0,0.0,0.0,0.0,0.0,0.0,0.0,0.0,0.0,0.0,0.0,0.0,0.0,0.0,0.0,0.0,0.0,0.0,0.0,0.0,0.0,0.0,0.0,0.0,0.0,0.0,0.0,0.0,0.0,0.0,0.0,0.0,0.0,0.0,0.0,0.0,0.0,0.0,0.0,0.0,0.0,0.0,0.0,0.0,0.0,0.0,0.0,0.0,0.0,0.0,0.0,0.0,0.0,0.0,0.0,0.0,0.0,0.0,0.0,0.0,0.0,0.0,0.0,0.0,0.0,0.0,0.0,0.0,0.0,0.0,0.0,0.0,0.0,0.0,0.0,0.0,0.0,0.0,0.0,0.0,0.0,0.0,0.0,0.0,0.0,0.0,0.0,0.0,0.0,0.0,0.0,0.0,0.0,0.0,0.0,0.0,0.0,0.0,0.0,0.0,0.0,0.0,0.0,0.0,0.0,0.0,0.0,0.0,0.0,0.0,0.0,0.0,0.0,0.0,0.0,0.0,0.0,0.0,0.0,0.0,0.0,0.0,0.0,0.0,0.0,0.0,0.0,0.0,0.0,0.0,0.0,0.0,0.0,0.0,0.0,0.0,0.0,0.0,0.0,0.0,0.0,0.0,0.0,0.0,0.0,0.0,0.0,0.0,0.0,0.0,0.0,0.0,0.0,0.0,0.0,0.0,0.0,0.0,0.0,0.0,0.0,0.0,0.0,0.0,0.0,0.0,0.0,0.0,0.0,0.0,0.0,0.0,0.0,0.0,0.0,0.0,0.0,0.0,0.0,0.0,0.0,0.0,0.0,0.0,0.0,0.0,0.0,0.0,0.0,0.0,0.0,0.0,0.0,0.0,0.0,0.0,0.0,0.0,0.0,0.0,0.0,0.0,0.0,0.0,0.0,0.0,0.0,0.0,0.0,0.0,0.0,0.0,0.0,0.0,0.0,0.0,0.0,0.0,0.0,0.0,0.0,0.0,0.0,0.0,0.0,0.0,0.0,0.0,0.0,0.0,0.0,0.0,0.0,0.0,0.0,0.0,0.0,0.0,0.0,0.0,0.0,0.0,0.0,0.0,0.0,0.0,0.0,0.0,0.0,0.0,0.0,0.0,0.0,0.0,0.0,0.0,0.0,0.0,0.0,0.0,0.0,0.0,0.0,0.0,0.0,0.0,0.0,0.0,0.0,0.0,0.0,0.0,0.0,0.0,0.0,0.0,0.0,0.0,0.0,0.0,0.0,0.0,0.0,0.0,0.0,0.0,0.0,0.0,0.0,0.0,0.0,0.0,0.0,0.0,0.0,0.0,0.0,0.0,0.0,0.0,0.0,0.0,0.0,0.0,0.0,0.0,0.0,0.0,0.0,0.0,0.0,0.0,0.0,0.0,0.0,0.0,0.0,0.0,0.0,0.0,0.0,0.0,0.0,0.0,0.0,0.0,0.0,0.0,0.0,0.0,0.0,0.0,0.0,0.0,0.0,0.0,0.0,0.0,0.0,0.0,0.0,0.0,0.0,0.0,0.0,0.0,0.0,0.0,0.0,0.0,0.0,0.0,0.0,0.0,0.0,0.0,0.0,0.0,0.0,0.0,0.0,0.0,0.0,0.0,0.0,0.0,0.0,0.0,0.0,0.0,0.0,0.0,0.0,0.0,0.0,0.0,0.0,0.0,0.0,0.0,0.0,0.0,0.0,0.0,0.0,0.0,0.0,0.0,0.0,0.0,0.0,0.0,0.0,0.0,0.0,0.0,0.0,0.0,0.0,0.0,0.0,0.0,0.0,0.0,0.0,0.0,0.0,0.0,0.0,0.0,0.0,0.0,0.0,0.0,0.0,0.0,0.0,0.0,0.0,0.0,0.0,0.0,0.0,0.0,0.0,0.0,0.0,0.0,0.0,0.0,0.0,0.0,0.0,0.0,0.0,0.0,0.0,0.0,0.0,0.0,0.0,0.0,0.0,0.0,0.0,0.0,0.0,0.0,0.0,0.0,0.0,0.0,0.0,0.0,0.0,0.0,0.0,0.0,0.0,0.0,0.0,0.0,0.0,0.0,0.0,0.0,0.0,0.0,0.0,0.0,0.0,0.0,0.0,0.0,0.0,0.0,0.0,0.0,0.0,0.0,0.0,0.0,0.0,0.0,0.0,0.0,0.0,0.0,0.0,0.0,0.0,0.0,0.0,0.0,0.0,0.0,0.0,0.0,0.0,0.0,0.0,0.0,0.0,0.0,0.0,0.0,0.0,0.0,0.0,0.0,0.0,0.0,0.0,0.0,0.0,0.0,0.0,0.0,0.0,0.0,0.0,0.0,0.0,0.0,0.0,0.0,0.0,0.0,0.0,0.0,0.0,0.0,0.0,0.0,0.0,0.0,0.0,0.0,0.0,0.0,0.0,0.0,0.0,0.0,0.0,0.0,0.0,0.0,0.0,0.0,0.0,0.0,0.0,0.0,0.0,0.0,0.0,0.0,0.0,0.0,0.0,0.0,0.0,0.0,0.0,0.0,0.0,0.0,0.0,0.0,0.0,0.0,0.0,0.0,0.0,0.0,0.0,0.0,0.0,0.0,0.0,0.0,0.0,0.0,0.0,0.0,0.0,0.0,0.0,0.0,0.0,0.0,0.0,0.0,0.0,0.0,0.0,0.0,0.0,0.0,0.0,0.0,0.0,0.0,0.0,0.0,0.0,0.0,0.0,0.0,0.0,0.0,0.0,0.0,0.0,0.0,0.0,0.0,0.0,0.0,0.0,0.0,0.0,0.0,0.0,0.0,0.0,0.0,0.0,0.0,0.0,0.0,0.0,0.0,0.0,0.0,0.0,0.0,0.0,0.0,0.0,0.0,0.0,0.0,0.0,0.0,0.0,0.0,0.0,0.0,0.0,0.0,0.0,0.0,0.0,0.0,0.0,0.0,0.0,0.0,0.0,0.0,0.0,0.0,0.0,0.0,0.0,0.0,0.0,0.0,0.0,0.0,0.0,0.0,0.0,0.0,0.0,0.0,0.0,0.0,0.0,0.0,0.0,0.0,0.0,0.0,0.0,0.0,0.0,0.0,0.0,0.0,0.0,0.0,0.0,0.0,0.0,0.0,0.0,0.0,0.0,0.0,0.0,0.0,0.0,0.0,0.0,0.0,0.0,0.0,0.0,0.0,0.8221,0.0,0.0,0.0,0.0,0.0,0.0,0.0,0.0,0.0,0.0,0.0,0.0,0.0,0.0,0.0,0.0,0.0,0.0,0.0,0.0,0.0,0.0,0.0,0.0,0.0,0.0,0.0,0.0,0.0,0.0,0.0,0.0,0.0,0.0,0.0,0.0,0.0,0.0,0.0,0.0,0.0,0.0,0.0,0.0,0.0,0.0,0.0,0.0,0.0,0.0,0.0,0.0,0.0,0.0,0.0,0.0,0.0,0.0,0.0,0.0,0.0,0.0,0.0,0.0,0.0,0.0,0.0,0.0,0.0,0.0,0.0,0.0,0.0,0.0,0.0,0.0,0.0,0.0,0.0,0.0,0.0,0.0,0.0,0.0,0.0,0.0,0.0,0.0,0.0,0.0,0.0,0.0,0.0,0.0,0.0,0.0,0.0,0.0,0.0,0.0,0.0,0.0,0.0,0.0,0.0,0.0,0.0,0.0,0.0,0.0,0.7443,0.8127,0.866,0.8961,0.8989,0.0,0.0,0.0,0.0,0.0,0.0,0.0,0.0,0.0,0.0,0.0,0.0,0.0,0.0,0.0,0.0,0.0,0.0,0.0,0.0,0.0,0.0,0.0,0.0,0.0,0.0,0.0,0.0,0.0,0.0,0.0,0.0,0.0,0.0,0.0,0.0,0.0,0.0,0.0,0.0,0.0,0.0,0.0,0.0,0.0,0.0,0.0,0.0,0.0,0.0,0.0,0.0,0.0,0.0,0.0,0.0,0.0,0.0,0.0,0.0,0.0,0.0,0.0,0.0,0.0,0.0,0.0,0.0,0.0,0.0,0.0,0.0,0.0,0.0,0.0,0.0,0.0,0.0,0.0,0.0,0.0,0.0,0.0,0.0,0.0,0.0,0.0,0.0,0.0,0.0,0.0,0.0,0.0,0.0,0.0,0.0,0.0,0.0,0.0,0.0,0.0,0.0,0.0,0.0,0.0,0.0,0.0,0.0,0.0,0.0,0.0,0.0,0.8578,0.8992,0.9223,0.0,0.0,0.0,0.0,0.0,0.0,0.0,0.0,0.0,0.0,0.0,0.0,0.0,0.0,0.0,0.0,0.0,0.0,0.0,0.0,0.0,0.0,0.0,0.0,0.0,0.0,0.0,0.0,0.0,0.0,0.0,0.0,0.0,0.0,0.0,0.0,0.0,0.0,0.0,0.0,0.0,0.0,0.0,0.0,0.0,0.0,0.0,0.0,0.0,0.0,0.0,0.0,0.0,0.0,0.0,0.0,0.0,0.0,0.0,0.0,0.0,0.0,0.0,0.0,0.0,0.0,0.0,0.0,0.0,0.0,0.0,0.0,0.0,0.0,0.0,0.0,0.0,0.0,0.0,0.0,0.0,0.0,0.0,0.0,0.0,0.0,0.0,0.0,0.0,0.0,0.0,0.0,0.0,0.0,0.0,0.0,0.0,0.0,0.0,0.0,0.0,0.0,0.0,0.0,0.0,0.0,0.0,0.0,0.0,0.0,0.7287,0.7893,0.8461,0.0,0.8551,0.0,0.0,0.0,0.0,0.0,0.0,0.0,0.0,0.0,0.0,0.0,0.0,0.0,0.0,0.0,0.0,0.0,0.0,0.0,0.0,0.0,0.0,0.0,0.0,0.0,0.0,0.0,0.0,0.0,0.0,0.0,0.0,0.0,0.0,0.0,0.0,0.0,0.0,0.0,0.0,0.0,0.0,0.0,0.0,0.0,0.0,0.0,0.0,0.0,0.0,0.0,0.0,0.0,0.0,0.0,0.0,0.0,0.0,0.0,0.0,0.0,0.0,0.0,0.0,0.0,0.0,0.0,0.0,0.0,0.0,0.0,0.0,0.0,0.0,0.0,0.0,0.0,0.0,0.0,0.0,0.0,0.0,0.0,0.0,0.0,0.0,0.0,0.0,0.0,0.0,0.0,0.0,0.0,0.0,0.0,0.0,0.0,0.0,0.0,0.0,0.0,0.0,0.0,0.0,0.0,0.0,0.0,0.0,0.0,0.0,0.7242,0.7894,0.8689,0.8956,0.0,0.0,0.0,0.0,0.0,0.0,0.0,0.0,0.0,0.0,0.0,0.0,0.0,0.0,0.0,0.0,0.0,0.0,0.0,0.0,0.0,0.0,0.0,0.0,0.0,0.0,0.0,0.0,0.0,0.0,0.0,0.0,0.0,0.0,0.0,0.0,0.0,0.0,0.0,0.0,0.0,0.0,0.0,0.0,0.0,0.0,0.0,0.0,0.0,0.0,0.0,0.0,0.0,0.0,0.0,0.0,0.0,0.0,0.0,0.0,0.0,0.0,0.0,0.0,0.0,0.0,0.0,0.0,0.0,0.0,0.0,0.0,0.0,0.0,0.0,0.0,0.0,0.0,0.0,0.0,0.0,0.0,0.0,0.0,0.0,0.0,0.0,0.0,0.0,0.0,0.0,0.0,0.0,0.0,0.0,0.0,0.0,0.0,0.0,0.0,0.0,0.0,0.0,0.0,0.0,0.0,0.0,0.0,0.0,0.0,0.6651,0.0,0.8091,0.896,0.9275,0.897,0.0,0.0,0.0,0.0,0.0,0.0,0.0,0.0,0.0,0.0,0.0,0.0,0.0,0.0,0.0,0.0,0.0,0.0,0.0,0.0,0.0,0.0,0.0,0.0,0.0,0.0,0.0,0.0,0.0,0.0,0.0,0.0,0.0,0.0,0.0,0.0,0.0,0.0,0.0,0.0,0.0,0.0,0.0,0.0,0.0,0.0,0.0,0.0,0.0,0.0,0.0,0.0,0.0,0.0,0.0,0.0,0.0,0.0,0.0,0.0,0.0,0.0,0.0,0.0,0.0,0.0,0.0,0.0,0.0,0.0,0.0,0.0,0.0,0.0,0.0,0.0,0.0,0.0,0.0,0.0,0.0,0.0,0.0,0.0,0.0,0.0,0.0,0.0,0.0,0.0,0.0,0.0,0.0,0.0,0.0,0.0,0.0,0.0,0.0,0.0,0.0,0.0,0.0,0.0,0.0,0.0,0.0,0.0,0.0,0.6638,0.7475,0.8616,0.9215,0.9599,0.0,0.0,0.0,0.0,0.0,0.0,0.0,0.0,0.0,0.0,0.0,0.0,0.0,0.0,0.0,0.0,0.0,0.0,0.0,0.0,0.0,0.0,0.0,0.0,0.0,0.0,0.0,0.0,0.0,0.0,0.0,0.0,0.0,0.0,0.0,0.0,0.0,0.0,0.0,0.0,0.0,0.0,0.0,0.0,0.0,0.0,0.0,0.0,0.0,0.0,0.0,0.0,0.0,0.0,0.0,0.0,0.0,0.0,0.0,0.0,0.0,0.0,0.0,0.0,0.0,0.0,0.0,0.0,0.0,0.0,0.0,0.0,0.0,0.0,0.0,0.0,0.0,0.0,0.0,0.0,0.0,0.0,0.0,0.0,0.0,0.0,0.0,0.0,0.0,0.0,0.0,0.0,0.0,0.0,0.0,0.0,0.0,0.0,0.0,0.0,0.0,0.0,0.0,0.0,0.0,0.0,0.0,0.0,0.0,0.604,0.7046,0.7993,0.8799,0.9314,0.9703,0.0,0.0,0.0,0.0,0.0,0.0,0.0,0.0,0.0,0.0,0.0,0.0,0.0,0.0,0.0,0.0,0.0,0.0,0.0,0.0,0.0,0.0,0.0,0.0,0.0,0.0,0.0,0.0,0.0,0.0,0.0,0.0,0.0,0.0,0.0,0.0,0.0,0.0,0.0,0.0,0.0,0.0,0.0,0.0,0.0,0.0,0.0,0.0,0.0,0.0,0.0,0.0,0.0,0.0,0.0,0.0,0.0,0.0,0.0,0.0,0.0,0.0,0.0,0.0,0.0,0.0,0.0,0.0,0.0,0.0,0.0,0.0,0.0,0.0,0.0,0.0,0.0,0.0,0.0,0.0,0.0,0.0,0.0,0.0,0.0,0.0,0.0,0.0,0.0,0.0,0.0,0.0,0.0,0.0,0.0,0.0,0.0,0.0,0.0,0.0,0.0,0.0,0.0,0.0,0.0,0.0,0.0,0.0,0.0,0.5974,0.0,0.823,0.0,0.9278,0.9744,0.0,0.0,0.0,0.0,0.0,0.0,0.0,0.0,0.0,0.0,0.0,0.0,0.0,0.0,0.0,0.0,0.0,0.0,0.0,0.0,0.0,0.0,0.0,0.0,0.0,0.0,0.0,0.0,0.0,0.0,0.0,0.0,0.0,0.0,0.0,0.0,0.0,0.0,0.0,0.0,0.0,0.0,0.0,0.0,0.0,0.0,0.0,0.0,0.0,0.0,0.0,0.0,0.0,0.0,0.0,0.0,0.0,0.0,0.0,0.0,0.0,0.0,0.0,0.0,0.0,0.0,0.0,0.0,0.0,0.0,0.0,0.0,0.0,0.0,0.0,0.0,0.0,0.0,0.0,0.0,0.0,0.0,0.0,0.0,0.0,0.0,0.0,0.0,0.0,0.0,0.0,0.0,0.0,0.0,0.0,0.0,0.0,0.0,0.0,0.0,0.0,0.0,0.0,0.0,0.0,0.0,0.0,0.0,0.51,0.5914,0.7373,0.8115,0.8056,0.9084,0.977,0.0,0.0,0.0,0.0,0.0,0.0,0.0,0.0,0.0,0.0,0.0,0.0,0.0,0.0,0.0,0.0,0.0,0.0,0.0,0.0,0.0,0.0,0.0,0.0,0.0,0.0,0.0,0.0,0.0,0.0,0.0,0.0,0.0,0.0,0.0,0.0,0.0,0.0,0.0,0.0,0.0,0.0,0.0,0.0,0.0,0.0,0.0,0.0,0.0,0.0,0.0,0.0,0.0,0.0,0.0,0.0,0.0,0.0,0.0,0.0,0.0,0.0,0.0,0.0,0.0,0.0,0.0,0.0,0.0,0.0,0.0,0.0,0.0,0.0,0.0,0.0,0.0,0.0,0.0,0.0,0.0,0.0,0.0,0.0,0.0,0.0,0.0,0.0,0.0,0.0,0.0,0.0,0.0,0.0,0.0,0.0,0.0,0.0,0.0,0.0,0.0,0.0,0.0,0.0,0.0,0.0,0.0,0.0,0.0,0.5962,0.6874,0.7621,0.8129,0.8692,0.9365,0.0,0.0,0.0,0.0,0.0,0.0,0.0,0.0,0.0,0.0,0.0,0.0,0.0,0.0,0.0,0.0,0.0,0.0,0.0,0.0,0.0,0.0,0.0,0.0,0.0,0.0,0.0,0.0,0.0,0.0,0.0,0.0,0.0,0.0,0.0,0.0,0.0,0.0,0.0,0.0,0.0,0.0,0.0,0.0,0.0,0.0,0.0,0.0,0.0,0.0,0.0,0.0,0.0,0.0,0.0,0.0,0.0,0.0,0.0,0.0,0.0,0.0,0.0,0.0,0.0,0.0,0.0,0.0,0.0,0.0,0.0,0.0,0.0,0.0,0.0,0.0,0.0,0.0,0.0,0.0,0.0,0.0,0.0,0.0,0.0,0.0,0.0,0.0,0.0,0.0,0.0,0.0,0.0,0.0,0.0,0.0,0.0,0.0,0.0,0.0,0.0,0.0,0.0,0.0,0.0,0.0,0.0,0.0,0.0,0.5634,0.6583,0.7175,0.7378,0.8254,0.9054,0.9686,0.0,0.0,0.0,0.0,0.0,0.0,0.0,0.0,0.0,0.0,0.0,0.0,0.0,0.0,0.0,0.0,0.0,0.0,0.0,0.0,0.0,0.0,0.0,0.0,0.0,0.0,0.0,0.0,0.0,0.0,0.0,0.0,0.0,0.0,0.0,0.0,0.0,0.0,0.0,0.0,0.0,0.0,0.0,0.0,0.0,0.0,0.0,0.0,0.0,0.0,0.0,0.0,0.0,0.0,0.0,0.0,0.0,0.0,0.0,0.0,0.0,0.0,0.0,0.0,0.0,0.0,0.0,0.0,0.0,0.0,0.0,0.0,0.0,0.0,0.0,0.0,0.0,0.0,0.0,0.0,0.0,0.0,0.0,0.0,0.0,0.0,0.0,0.0,0.0,0.0,0.0,0.0,0.0,0.0,0.0,0.0,0.0,0.0,0.0,0.0,0.0,0.0,0.0,0.0,0.0,0.0,0.0,0.0,0.4994,0.6382,0.6748,0.608,0.7772,0.8789,0.0,0.0,0.0,0.0,0.0,0.0,0.0,0.0,0.0,0.0,0.0,0.0,0.0,0.0,0.0,0.0,0.0,0.0,0.0,0.0,0.0,0.0,0.0,0.0,0.0,0.0,0.0,0.0,0.0,0.0,0.0,0.0,0.0,0.0,0.0,0.0,0.0,0.0,0.0,0.0,0.0,0.0,0.0,0.0,0.0,0.0,0.0,0.0,0.0,0.0,0.0,0.0,0.0,0.0,0.0,0.0,0.0,0.0,0.0,0.0,0.0,0.0,0.0,0.0,0.0,0.0,0.0,0.0,0.0,0.0,0.0,0.0,0.0,0.0,0.0,0.0,0.0,0.0,0.0,0.0,0.0,0.0,0.0,0.0,0.0,0.0,0.0,0.0,0.0,0.0,0.0,0.0,0.0,0.0,0.0,0.0,0.0,0.0,0.0,0.0,0.0,0.0,0.0,0.0,0.0,0.0,0.0,0.0,0.0,0.5076,0.5593,0.5932,0.6094,0.7273,0.8256,0.0,0.0,0.0,0.0,0.0,0.0,0.0,0.0,0.0,0.0,0.0,0.0,0.0,0.0,0.0,0.0,0.0,0.0,0.0,0.0,0.0,0.0,0.0,0.0,0.0,0.0,0.0,0.0,0.0,0.0,0.0,0.0,0.0,0.0,0.0,0.0,0.0,0.0,0.0,0.0,0.0,0.0,0.0,0.0,0.0,0.0,0.0,0.0,0.0,0.0,0.0,0.0,0.0,0.0,0.0,0.0,0.0,0.0,0.0,0.0,0.0,0.0,0.0,0.0,0.0,0.0,0.0,0.0,0.0,0.0,0.0,0.0,0.0,0.0,0.0,0.0,0.0,0.0,0.0,0.0,0.0,0.0,0.0,0.0,0.0,0.0,0.0,0.0,0.0,0.0,0.0,0.0,0.0,0.0,0.0,0.0,0.0,0.0,0.0,0.0,0.0,0.0,0.0,0.0,0.0,0.0,0.0,0.0,0.4498,0.4883,0.5035,0.5286,0.5613,0.6939,0.7904,0.0,0.0,0.0,0.0,0.0,0.0,0.0,0.0,0.0,0.0,0.0,0.0,0.0,0.0,0.0,0.0,0.0,0.0,0.0,0.0,0.0,0.0,0.0,0.0,0.0,0.0,0.0,0.0,0.0,0.0,0.0,0.0,0.0,0.0,0.0,0.0,0.0,0.0,0.0,0.0,0.0,0.0,0.0,0.0,0.0,0.0,0.0,0.0,0.0,0.0,0.0,0.0,0.0,0.0,0.0,0.0,0.0,0.0,0.0,0.0,0.0,0.0,0.0,0.0,0.0,0.0,0.0,0.0,0.0,0.0,0.0,0.0,0.0,0.0,0.0,0.0,0.0,0.0,0.0,0.0,0.0,0.0,0.0,0.0,0.0,0.0,0.0,0.0,0.0,0.0,0.0,0.0,0.0,0.0,0.0,0.0,0.0,0.0,0.0,0.0,0.0,0.0,0.0,0.0,0.0,0.0,0.0,0.0,0.415,0.4605,0.4687,0.4817,0.5026,0.6753,0.7695,0.0,0.0,0.0,0.0,0.0,0.0,0.0,0.0,0.0,0.0,0.0,0.0,0.0,0.0,0.0,0.0,0.0,0.0,0.0,0.0,0.0,0.0,0.0,0.0,0.0,0.0,0.0,0.0,0.0,0.0,0.0,0.0,0.0,0.0,0.0,0.0,0.0,0.0,0.0,0.0,0.0,0.0,0.0,0.0,0.0,0.0,0.0,0.0,0.0,0.0,0.0,0.0,0.0,0.0,0.0,0.0,0.0,0.0,0.0,0.0,0.0,0.0,0.0,0.0,0.0,0.0,0.0,0.0,0.0,0.0,0.0,0.0,0.0,0.0,0.0,0.0,0.0,0.0,0.0,0.0,0.0,0.0,0.0,0.0,0.0,0.0,0.0,0.0,0.0,0.0,0.0,0.0,0.0,0.0,0.0,0.0,0.0,0.0,0.0,0.0,0.0,0.0,0.0,0.0,0.0,0.0,0.0,0.0,0.4335,0.4737,0.4761,0.484,0.4998,0.6754,0.769,0.0,0.0,0.0,0.0,0.0,0.0,0.0,0.0,0.0,0.0,0.0,0.0,0.0,0.0,0.0,0.0,0.0,0.0,0.0,0.0,0.0,0.0,0.0,0.0,0.0,0.0,0.0,0.0,0.0,0.0,0.0,0.0,0.0,0.0,0.0,0.0,0.0,0.0,0.0,0.0,0.0,0.0,0.0,0.0,0.0,0.0,0.0,0.0,0.0411,0.0,0.0,0.0,0.0,0.0,0.0,0.0,0.0,0.0,0.0,0.0,0.0,0.0,0.0,0.0,0.0,0.0,0.0,0.0,0.0,0.0,0.0,0.0,0.0,0.0,0.0,0.0,0.0,0.0,0.0,0.0,0.0,0.0,0.0,0.0,0.0,0.0,0.0,0.0,0.0,0.0,0.0,0.0,0.0,0.0,0.0,0.0,0.0,0.0,0.0,0.0,0.0,0.0,0.0,0.0,0.0,0.0,0.0,0.0,0.4429,0.4592,0.478,0.4902,0.5061,0.6323,0.7248,0.0,0.0,0.0,0.0,0.0,0.0,0.0,0.0,0.0,0.0,0.0,0.0,0.0,0.0,0.0,0.0,0.0,0.0,0.0,0.0,0.0,0.0,0.0,0.0,0.0,0.0,0.0,0.0,0.0,0.0,0.0,0.0,0.0,0.0,0.0,0.0,0.0,0.0,0.0,0.0,0.0,0.0,0.0,0.0,0.0,0.0,0.0,0.0,0.0,0.0,0.0,0.0,0.0,0.0,0.0,0.0,0.0,0.0,0.0,0.0,0.0,0.0,0.0,0.0,0.0,0.0,0.0,0.0,0.0,0.0,0.0,0.0,0.0,0.0,0.0,0.0,0.0,0.0,0.0,0.0,0.0,0.0,0.0,0.0,0.0,0.0,0.0,0.0,0.0,0.0,0.0,0.0,0.0,0.0,0.0,0.0,0.0,0.0,0.0,0.0,0.0,0.0,0.0,0.0,0.0,0.0,0.0,0.4078,0.4538,0.4441,0.4745,0.4938,0.5003,0.571,0.659,0.7669,0.0,0.0,0.0,0.0,0.0,0.0,0.0,0.0,0.0,0.0,0.0,0.0,0.0,0.0,0.0,0.0,0.0,0.0,0.0,0.0,0.0,0.0,0.0,0.0,0.0,0.0,0.0,0.0,0.0,0.0,0.0,0.0,0.0,0.0,0.0,0.0,0.0,0.0,-0.1237,-0.1138,0.0,0.0,0.0,0.0,0.0,0.0,0.0,0.0,0.1388,0.0,0.0,0.0,0.0,0.0,0.0,0.0,0.0,0.0,0.0,0.0,0.0,0.0,0.0,0.0,0.0,0.0,0.0,0.0,0.0,0.0,0.0,0.0,0.0,0.0,0.0,0.0,0.0,0.0,0.0,0.0,0.0,0.0,0.0,0.0,0.0,0.0,0.0,0.0,0.0,0.0,0.0,0.0,0.0,0.0,0.0,0.0,0.0,0.0,0.0,0.0,0.0,0.0,0.0,0.0,0.0,0.3426,0.4516,0.4905,0.457,0.4773,0.4921,0.4919,0.5062,0.5908,0.7558,0.0,0.0,0.0,0.0,0.0,0.0,0.0,0.0,0.0,0.0,0.0,0.0,0.0,0.0,0.0,0.0,0.0,0.0,0.0,0.0,0.0,0.0,0.0,0.0,0.0,0.0,0.0,0.0,0.0,0.0,0.0,0.0,0.0,0.0,0.0,0.0,0.0,0.0,0.0,-0.0951,-0.0704,0.0,0.0,0.0,0.0,0.0,0.0,0.0,0.0,0.1975,0.0,0.0,0.0,0.0,0.0,0.0,0.0,0.0,0.0,0.0,0.0,0.0,0.0,0.0,0.0,0.0,0.0,0.0,0.0,0.0,0.0,0.0,0.0,0.0,0.0,0.0,0.0,0.0,0.0,0.0,0.0,0.0,0.0,0.0,0.0,0.0,0.0,0.0,0.0,0.0,0.0,0.0,0.0,0.0,0.0,0.0,0.0,0.0,0.0,0.0,0.0,0.0,0.0,0.0,0.0,0.3792,0.4563,0.4878,0.4662,0.4777,0.4858,0.486,0.5332,0.6204,0.0,0.0,0.0,0.0,0.0,0.0,0.0,0.0,0.0,0.0,0.0,0.0,0.0,0.0,0.0,0.0,0.0,0.0,0.0,0.0,0.0,0.0,0.0,0.0,0.0,0.0,0.0,0.0,0.0,0.0,0.0,0.0,0.0,0.0,0.0,0.0,0.0,0.0,0.0,0.0,-0.108,-0.0852,-0.0539,0.0,0.0,0.0,0.0,0.0,0.0,0.1718,0.2136,0.0,0.0,0.0,0.0,0.0,0.0,0.0,0.0,0.0,0.0,0.0,0.0,0.0,0.0,0.0,0.0,0.0,0.0,0.0,0.0,0.0,0.0,0.0,0.0,0.0,0.0,0.0,0.0,0.0,0.0,0.0,0.0,0.0,0.0,0.0,0.0,0.0,0.0,0.0,0.0,0.0,0.0,0.0,0.0,0.0,0.0,0.0,0.0,0.0,0.0,0.0,0.0,0.0,0.0,0.0,0.4203,0.4672,0.4849,0.4718,0.4748,0.4787,0.4807,0.5715,0.6641,0.0,0.0,0.0,0.0,0.0,0.0,0.0,0.0,0.0,0.0,0.0,0.0,0.0,0.0,0.0,0.0,0.0,0.0,0.0,0.0,0.0,0.0,0.0,0.0,0.0,0.0,0.0,0.0,0.0,0.0,0.0,0.0,0.0,0.0,0.0,0.0,0.0,0.0,0.0,0.0,0.0,-0.1052,-0.0652,-0.0099,0.0,0.0,0.0,0.0,0.1744,0.1986,0.0,0.0,0.0,0.0,0.0,0.0,0.0,0.0,0.0,0.0,0.0,0.0,0.0,0.0,0.0,0.0,0.0,0.0,0.0,0.0,0.0,0.0,0.0,0.0,0.0,0.0,0.0,0.0,0.0,0.0,0.0,0.0,0.0,0.0,0.0,0.0,0.0,0.0,0.0,0.0,0.0,0.0,0.0,0.0,0.0,0.0,0.0,0.0,0.0,0.0,0.0,0.0,0.0,0.0,0.0,0.0,0.4876,0.5137,0.5078,0.4725,0.4701,0.4746,0.4811,0.5708,0.6628,0.0,0.0,0.0,0.0,0.0,0.0,0.0,0.0,0.0,0.0,0.0,0.0,0.0,0.0,0.0,0.0,0.0,0.0,0.0,0.0,0.0,0.0,0.0,0.0,0.0,0.0,0.0,0.0,0.0,0.0,0.0,0.0,0.0,0.0,0.0,0.0,0.0,0.0,0.0,0.0,0.0,-0.1116,-0.0892,-0.0254,0.0361,0.0,0.0,0.1552,0.1757,0.2158,0.0,0.0,0.0,0.0,0.0,0.0,0.0,0.0,0.0,0.0,0.0,0.0,0.0,0.0,0.0,0.0,0.0,0.0,0.0,0.0,0.0,0.0,0.0,0.0,0.0,0.0,0.0,0.0,0.0,0.0,0.0,0.0,0.0,0.0,0.0,0.0,0.0,0.0,0.0,0.0,0.0,0.0,0.0,0.0,0.0,0.0,0.0,0.0,0.0,0.0,0.0,0.0,0.0,0.0,0.0,0.4655,0.5413,0.5049,0.4755,0.4585,0.4628,0.4701,0.4787,0.6195,0.7161,0.0,0.0,0.0,0.0,0.0,0.0,0.0,0.0,0.0,0.0,0.0,0.0,0.0,0.0,0.0,0.0,0.0,0.0,0.0,0.0,0.0,0.0,0.0,0.0,0.0,0.0,0.0,0.0,0.0,0.0,0.0,0.0,0.0,0.0,0.0,0.0,0.0,0.0,0.0,0.0,0.0,0.0,-0.0936,-0.0296,0.0,0.0,0.0,0.1497,0.1859,0.0,0.0,0.0,0.0,0.0,0.0,0.0,0.0,0.0,0.0,0.0,0.0,0.0,0.0,0.0,0.0,0.0,0.0,0.0,0.0,0.0,0.0,0.0,0.0,0.0,0.0,0.0,0.0,0.0,0.0,0.0,0.0,0.0,0.0,0.0,0.0,0.0,0.0,0.0,0.0,0.0,0.0,0.0,0.0,0.0,0.0,0.0,0.0,0.0,0.0,0.0,0.0,0.0,0.0,0.0,0.0,0.0,0.5925,0.4971,0.445,0.4468,0.4511,0.4628,0.4781,0.6338,0.0,0.0,0.0,0.0,0.0,0.0,0.0,0.0,0.0,0.0,0.0,0.0,0.0,0.0,0.0,0.0,0.0,0.0,0.0,0.0,0.0,0.0,0.0,0.0,0.0,0.0,0.0,0.0033,0.0,0.0,0.0,0.0,0.0,0.0,0.0,0.0,0.0,0.0,0.0,0.0,0.0,0.0,-0.1043,-0.0967,-0.027,0.0486,0.0,0.0,0.1517,0.1897,0.2158,0.2458,0.0,0.0,0.0,0.0,0.0,0.0,0.0,0.0,0.0,0.0,0.0,0.0,0.0,0.0,0.0,0.0,0.0,0.0,0.0,0.0,0.0,0.0,0.0,0.0,0.0,0.0,0.0,0.0,0.0,0.0,0.0,0.0,0.0,0.0,0.0,0.0,0.0,0.0,0.0,0.0,0.0,0.0,0.0,0.0,0.0,0.0,0.0,0.0,0.0,0.0,0.0,0.0,0.0,0.0,0.0,0.6301,0.5008,0.4314,0.4316,0.4375,0.4507,0.4708,0.5733,0.6699,0.0,0.0,0.0,0.0,0.0,0.0,0.0,0.0,0.0,0.0,0.0,0.0,0.0,0.0,0.0,0.0,0.0,0.0,0.0,0.0,0.0,0.0,0.0,0.0,0.0,0.0,0.0,0.0,0.0,0.0,0.0,0.0,0.0,0.0,0.0,0.0,0.0,0.0,0.0,0.0,0.0,-0.0612,-0.103,-0.0078,0.076,0.0,0.0,0.166,0.1875,0.211,0.248,0.3067,0.0,0.0,0.0,0.0,0.0,0.0,0.0,0.0,0.0,0.0,0.0,0.0,0.0,0.0,0.0,0.0,0.0,0.0,0.0,0.0,0.0,0.0,0.0,0.0,0.0,0.0,0.0,0.0,0.0,0.0,0.0,0.0,0.0,0.0,0.0,0.0,0.0,0.0,0.0,0.0,0.0,0.0,0.0,0.0,0.0,0.0,0.0,0.0,0.0,0.0,0.0,0.0,0.0,0.6055,0.6422,0.4903,0.4141,0.4172,0.4306,0.4482,0.4704,0.5668,0.6395,0.0,0.0,0.0,0.0,0.0,0.0,0.0,0.0,0.0,0.0,0.0,0.0,0.0,0.0,0.0,0.0,0.0,0.0,0.0,0.0,0.0,0.0,0.0,0.0,0.0,0.0,0.0,0.0,0.0464,0.0663,0.0892,0.0,0.0,0.0,0.0,0.0,0.0,0.0,0.0,0.0,0.0,-0.0285,-0.052,0.0354,0.0,0.0,0.1556,0.1705,0.2034,0.2136,0.2341,0.2811,0.3449,0.0,0.0,0.0,0.0,0.0,0.0,0.0,0.0,0.0,0.0,0.0,0.0,0.0,0.0,0.0,0.0,0.0,0.0,0.0,0.0,0.0,0.0,0.0,0.0,0.0,0.0,0.0,0.0,0.0,0.0,0.0,0.0,0.0,0.0,0.0,0.0,0.0,0.0,0.0,0.0,0.0,0.0,0.0,0.0,0.0,0.0,0.0,0.0,0.0,0.0,0.0,0.0,0.6384,0.6341,0.4897,0.4114,0.4037,0.4239,0.4436,0.4657,0.5383,0.5948,0.0,0.0,0.0,0.0,0.0,0.0,0.0,0.0,0.0,0.0,0.0,0.0,0.0,0.0,0.0,0.0,0.0,0.0,0.0,0.0,0.0,0.0,0.0,0.0,0.0,0.0,0.0,0.0,0.0947,0.1038,0.0991,0.0,0.0,0.0,0.0,0.0,0.0,0.0,0.0,0.0,0.0,0.007,-0.0207,0.0647,0.1522,0.202,0.1968,0.1973,0.2399,0.23,0.2364,0.2944,0.0,0.0,0.0,0.0,0.0,0.0,0.0,0.0,0.0,0.0,0.0,0.0,0.0,0.0,0.0,0.0,0.0,0.0,0.0,0.0,0.0,0.0,0.0,0.0,0.0,0.0,0.0,0.0,0.0,0.0,0.0,0.0,0.0,0.0,0.0,0.0,0.0,0.0,0.0,0.0,0.0,0.0,0.0,0.0,0.0,0.0,0.0,0.0,0.0,0.0,0.0,0.0,0.0,0.6718,0.6023,0.5017,0.4322,0.3965,0.412,0.4305,0.452,0.4726,0.5295,0.627,0.0,0.0,0.0,0.0,0.0,0.0,0.0,0.0,0.0,0.0,0.0,0.0,0.0,0.0,0.0,0.0,0.0,0.0,0.0,0.0,0.0,0.0,0.0,0.0,0.0,0.0,0.1939,0.1956,0.1681,0.0,0.0,0.0,0.0,0.0,0.0,0.0,0.0,0.0,0.0,0.0605,0.0514,-0.0249,0.0758,0.1882,0.2661,0.2557,0.2553,0.2994,0.2629,0.2646,0.0,0.0,0.0,0.0,0.0,0.0,0.0,0.0,0.0,0.0,0.0,0.0,0.0,0.0,0.0,0.0,0.0,0.0,0.0,0.0,0.0,0.0,0.0,0.0,0.0,0.0,0.0,0.9355,0.8714,0.0,0.0,0.0,0.0,0.0,0.0,0.0,0.0,0.0,0.0,0.0,0.9156,0.9148,0.0,0.0,0.0,0.0,0.0,0.0,0.0,0.0,0.0,0.0,0.0,0.0,0.6726,0.6188,0.5426,0.5044,0.503,0.479,0.4795,0.5009,0.4837,0.5232,0.6277,0.0,0.0,0.0,0.0,0.0,0.0,0.0,0.0,0.0,0.0,0.0,0.0,0.0,0.0,0.0,0.0,0.0,0.0,0.0,0.0,0.0,0.0,0.0,0.0,0.0,0.1874,0.0,0.0,0.0,0.0,0.0,0.0,0.0,0.0,0.0,0.0,0.0,0.0697,0.1031,0.0985,0.0894,0.0805,0.1444,0.2231,0.0,0.0,0.0,0.0,0.0,0.0,0.0,0.0,0.0,0.0,0.0,0.0,0.0,0.0,0.1781,0.174,0.1496,0.1161,0.0805,0.0,0.0,0.0,0.0,0.0,0.0,0.0,0.0,0.0,0.0,0.0,0.0,0.0,0.0,0.0,0.0,1.0458,0.0,0.0,0.0,0.0,0.0,0.0,0.0,0.0,0.9256,0.8885,0.8666,0.8592,0.8606,0.0,0.8821,0.903,0.0,0.0,0.0,0.0,0.0,0.0,0.0,0.0,0.6911,0.6228,0.5768,0.5525,0.5477,0.5269,0.5295,0.5553,0.5226,0.5282,0.5798,0.6132,0.6544,0.0,0.0,0.0,0.0,0.0,0.0,0.0,0.0,0.0,0.0,0.0,0.0,0.0,0.0,0.0,0.0,0.0,0.0,0.0,0.0,0.0,0.0,0.0,0.2434,0.0,0.0,0.0,0.0,0.0,0.0,0.0,0.0,0.0,0.0539,0.0764,0.1188,0.1806,0.1535,0.1427,0.1828,0.0,0.0,0.0,0.0,0.0,0.0,0.0,0.3875,0.4348,0.4168,0.3761,0.324,0.2864,0.246,0.1966,0.0,0.0,0.1803,0.1563,0.1296,0.1094,0.0808,0.0563,0.0428,0.0337,0.0247,0.0,0.0,0.0,0.0,0.0,0.0,0.0,0.0,1.1854,1.1442,0.0,1.147,0.0,0.0,0.0,0.0,0.0,0.0,0.0,0.0,0.9155,0.8661,0.8046,0.7948,0.7974,0.8093,0.8223,0.8339,0.8482,0.8912,0.0,0.0,0.0,0.0,0.0,0.0,0.7331,0.6088,0.6022,0.5804,0.5405,0.5526,0.5771,0.6084,0.5833,0.5461,0.5001,0.5788,0.6266,0.6323,0.8603,0.0,0.0,0.0,0.0,0.0,0.0,0.0,0.0,0.0,0.0,0.0,0.0,0.0,0.0,0.0,0.0,0.0,0.0,0.0,0.0,0.2752,0.0,0.0,0.0,0.0,0.0,0.0,0.0,0.0,0.0,0.0,0.0832,0.1031,0.1626,0.2659,0.0,0.0,0.0,0.0,0.3798,0.431,0.4237,0.4233,0.4585,0.4337,0.4216,0.4553,0.0,0.0,0.2695,0.2307,0.2098,0.2034,0.2008,0.1964,0.1828,0.1655,0.1477,0.1319,0.1031,0.0719,0.0472,0.0452,0.0431,1.09,0.0,0.0,0.0,0.0,1.1748,1.2083,1.2192,1.2872,1.2687,1.1954,1.2231,0.0,0.0,0.0,0.0,0.0,0.0,1.07,1.0208,0.9391,0.8834,0.8498,0.8149,0.8025,0.8085,0.7796,0.7679,0.7706,0.7841,0.8104,0.8438,0.0,0.0,0.0,0.0,0.6973,0.6538,0.6509,0.6529,0.6573,0.6256,0.6115,0.6174,0.5815,0.5605,0.5546,0.5436,0.5653,0.6264,0.6439,0.0,0.0,0.0,0.0,0.0,0.0,0.0,0.0,0.0,0.0,0.0,0.0,0.0,0.0,0.0,0.0,0.0,0.0,0.0,0.222,0.2305,0.2533,0.0,0.0,0.0,0.0,0.0,0.0,0.0,0.0,0.0,0.196,0.1891,0.215,0.0,0.0,0.2215,0.2729,0.3551,0.4548,0.5812,0.0,0.0,0.0,0.4649,0.4186,0.4848,0.4405,0.3682,0.2803,0.2337,0.2122,0.2184,0.2228,0.2158,0.1982,0.1828,0.1632,0.1366,0.1141,0.0942,0.0743,0.0751,0.077,1.075,1.1405,1.1205,1.1114,1.1237,1.179,1.2099,1.2254,1.2913,1.2756,1.2102,1.2502,1.2187,1.1387,1.1949,0.0,0.0,0.0,1.0721,1.0103,0.937,0.8867,0.8498,0.8226,0.8187,0.8224,0.7969,0.7833,0.7823,0.7858,0.8022,0.8295,0.0,0.0,0.7093,0.7118,0.6975,0.6668,0.6672,0.6787,0.697,0.6845,0.668,0.6472,0.6091,0.5818,0.5711,0.5208,0.5199,0.5756,0.5369,0.5971,0.0,0.0,0.0,0.0,0.0,0.0,0.0,0.0,0.0,0.0,0.0,0.2567,0.0,0.0,0.0,0.0,0.297,0.2736,0.2475,0.2352,0.0,0.0,0.0,0.0,0.0,0.0,0.0,0.2254,0.2172,0.2198,0.2342,0.2896,0.3369,0.3577,0.2971,0.2676,0.3041,0.0,0.5198,0.6627,0.5914,0.5414,0.5948,0.525,0.4743,0.5072,0.4405,0.3641,0.3006,0.2555,0.2413,0.2679,0.257,0.2329,0.2138,0.2004,0.1877,0.1697,0.1525,0.1351,0.1182,0.125,0.1243,1.0367,1.0588,1.1272,1.1578,1.1683,1.1714,1.1812,1.1961,1.2134,1.1905,1.1417,1.225,1.2241,1.1591,1.2042,0.0,0.0,1.1081,1.0363,0.9409,0.9234,0.8853,0.8311,0.8358,0.8423,0.8542,0.852,0.8482,0.8469,0.8532,0.8558,0.8465,0.8122,0.7618,0.707,0.7375,0.7269,0.6674,0.6714,0.6774,0.6807,0.7251,0.7344,0.6995,0.6578,0.6149,0.5685,0.516,0.4941,0.5073,0.5108,0.5072,0.5012,0.0,0.0,0.0,0.0,0.0,0.0,0.0,0.0,0.0,0.0,0.0,0.0,0.0,0.0,0.0,0.3124,0.0,0.2972,0.2804,0.0,0.0,0.0,0.4271,0.3853,0.3633,0.3342,0.2896,0.0,0.0,0.0,0.0,0.4971,0.4475,0.3765,0.3351,0.3542,0.4711,0.5889,0.697,0.6663,0.6379,0.6544,0.6161,0.5805,0.5539,0.4556,0.3829,0.3334,0.2907,0.2882,0.3522,0.3139,0.2672,0.2508,0.2381,0.2228,0.2379,0.2185,0.1976,0.1803,0.1811,0.1791,0.999,1.0094,1.0319,1.0411,1.0414,1.0446,1.0549,1.0741,1.0886,1.0907,1.09,1.1251,1.1356,1.1219,1.1147,1.0915,1.0613,1.0319,0.9932,0.9577,0.9565,0.9465,0.9342,0.9042,0.8922,0.8932,0.854,0.8363,0.835,0.8372,0.8384,0.8329,0.8253,0.8126,0.7973,0.808,0.7804,0.7206,0.7225,0.7121,0.6904,0.7235,0.7473,0.7574,0.7203,0.6784,0.6295,0.5776,0.5593,0.5802,0.537,0.5096,0.5071,0.4962,0.0,0.0,0.0,0.0,0.0,0.0,0.0,0.0,0.0,0.3585,0.2678,0.0,0.2634,0.0,0.449,0.4892,0.4713,0.3727,0.0,0.0,0.4358,0.4364,0.4566,0.4091,0.3622,0.3363,0.3395,0.3654,0.4094,0.4883,0.5593,0.6083,0.4914,0.4035,0.4273,0.6055,0.745,0.7712,0.7686,0.7689,0.7739,0.7498,0.713,0.6979,0.6073,0.4988,0.3794,0.3415,0.3484,0.4147,0.4527,0.4393,0.3859,0.3414,0.3287,0.3594,0.3294,0.2747,0.2339,0.2399,0.2419,0.9946,1.0027,0.9849,0.9783,0.9788,1.0006,1.0193,1.03,1.0189,1.0223,1.0354,1.0385,1.0465,1.053,1.0407,1.0234,1.0072,0.9919,0.9776,0.9632,0.971,0.9736,0.975,0.9542,0.9441,0.9441,0.9152,0.9014,0.9014,0.9014,0.9014,0.9014,0.9027,0.9002,0.9,0.8534,0.8144,0.7814,0.757,0.7267,0.6934,0.715,0.739,0.765,0.7255,0.6957,0.6815,0.6337,0.6216,0.6425,0.6276,0.6182,0.6269,0.6924,0.7621,0.0,0.0,0.0,0.0,0.0,0.0,0.0,0.0,0.0,0.0,0.0,0.2949,0.0,0.4351,0.0,0.5599,0.5375,0.5005,0.4612,0.4755,0.4948,0.5104,0.5003,0.4731,0.4224,0.4305,0.4717,0.5499,0.5968,0.6497,0.7253,0.6867,0.6142,0.5391,0.6848,0.8409,0.9059,0.8728,0.8458,0.87,0.8551,0.8269,0.7905,0.7118,0.6179,0.5247,0.4591,0.4509,0.5393,0.5911,0.586,0.5063,0.456,0.4353,0.4554,0.4436,0.3892,0.3155,0.3129,0.3168,1.0102,1.017,0.977,0.9606,0.9685,1.0078,1.0223,1.0198,0.9825,0.9784,0.9921,0.9869,0.988,0.9987,1.0027,1.0066,1.0013,1.0026,0.9923,0.9821,0.9861,0.9877,0.9802,0.9854,0.988,0.988,0.988,0.988,0.988,0.988,0.988,0.988,0.988,0.988,0.9855,0.8976,0.8474,0.8399,0.7875,0.7458,0.7114,0.718,0.7338,0.7553,0.7155,0.6985,0.7163,0.6873,0.6808,0.7024,0.7295,0.7631,0.8026,0.9451,1.0202,0.0,0.9608,0.0,0.0,0.0,0.0,0.0,0.0,0.0,0.0,0.3327,0.3315,0.3509,0.3689,0.4468,0.6099,0.6833,0.6579,0.512,0.5579,0.5978,0.5807,0.6125,0.6069,0.5318,0.5451,0.5927,0.6702,0.7093,0.7485,0.8046,0.889,0.8721,0.7105,0.7936,0.9459,1.067,0.9697,0.9046,0.9383,0.9449,0.9224,0.8656,0.8021,0.742,0.6969,0.6135,0.5824,0.685,0.7193,0.6985,0.6122,0.5655,0.5435,0.5508,0.5421,0.5036,0.4108,0.3916,0.3918,1.0309,1.0366,1.0248,1.0293,1.0406,1.0481,1.0215,0.971,0.9648,0.9853,1.0247,1.0448,1.0665,1.0924,1.1013,1.1085,1.1186,1.1198,1.0891,1.0362,1.0417,1.0237,0.9814,0.988,0.988,0.988,0.988,0.988,0.988,0.988,0.988,0.988,0.988,0.988,0.0,0.0,0.0,0.0,0.843,0.8159,0.8186,0.7915,0.7856,0.8055,0.772,0.0,0.7059,0.716,0.7391,0.7666,0.743,0.0,0.0,0.0,0.0,0.0,0.0,0.0,0.0,0.0,0.0,0.0,0.5395,0.4935,0.4044,0.3651,0.3644,0.4082,0.4257,0.5088,0.6875,0.5838,0.5856,0.772,0.7947,0.7903,0.7747,0.7153,0.6626,0.6486,0.6908,0.7416,0.7851,0.8133,0.8348,0.8747,0.987,1.0589,1.0247,1.0644,1.1228,1.1271,1.0395,0.9873,1.0358,1.0248,0.9983,0.9574,0.9065,0.853,0.8001,0.756,0.7367,0.8042,0.8072,0.7764,0.6999,0.6452,0.6153,0.6199,0.6176,0.5773,0.4692,0.4538,0.4517,1.0322,0.0,1.0341,1.039,0.0,1.0505,1.0358,1.0138,0.9967,1.0054,1.0372,1.068,1.0931,1.121,1.1333,1.1454,1.1527,1.157,1.139,1.1044,1.1061,1.094,1.0678,1.0406,1.0307,1.0295,1.0005,0.988,0.988,0.988,0.988,0.988,0.988,0.988,0.988,0.988,0.9629,0.91,0.8824,0.8591,0.841,0.8279,0.8165,0.8118,0.0,0.0,0.0,0.0,0.0,0.0,0.0,0.0,0.0,0.0,0.0,0.9959,0.9289,0.8935,0.906,0.8172,0.725,0.6428,0.6639,0.6066,0.43,0.3979,0.3989,0.4232,0.6035,0.7646,0.857,0.7828,0.7601,0.8475,0.8895,0.9066,0.8821,0.8344,0.7973,0.7954,0.8173,0.8449,0.8705,0.8779,0.927,1.014,1.0867,1.1445,1.1606,1.1665,1.171,1.1737,1.1072,1.0662,1.1024,1.1034,1.0774,1.0332,0.9907,0.9439,0.8933,0.8572,0.8516,0.8866,0.8878,0.8617,0.7974,0.7491,0.7205,0.7068,0.6978,0.6648,0.5805,0.5414,0.5081,1.0322,1.0322,1.0322,1.0322,1.0322,1.039,1.0562,1.0809,0.0,0.0,0.0,1.1032,1.13,1.149,1.169,1.1827,1.1876,1.1876,1.1826,1.1738,1.1726,1.1676,1.1563,1.1111,1.0844,1.0831,1.042,1.0194,1.0194,1.0094,1.0044,1.0031,0.9943,0.988,0.988,0.988,0.9679,0.9277,0.9251,0.9048,0.8651,0.8632,0.851,0.8166,0.8253,0.8142,0.7798,0.8025,0.8251,0.8452,0.8715,0.9033,0.9349,0.9394,0.9482,0.9669,0.9734,0.9472,0.8781,0.8411,0.8101,0.7753,0.8123,0.7313,0.4791,0.4765,0.4686,0.4265,0.7829,1.0138,1.0203,1.0147,0.9733,0.872,0.9377,0.9768,0.9532,0.94,0.925,0.9224,0.914,0.9156,0.9285,0.947,1.0105,1.1467,1.1996,1.2138,1.2247,1.2157,1.2086,1.2211,1.1797,1.1533,1.1721,1.176,1.152,1.0982,1.065,1.031,0.984,0.9485,0.9432,0.9658,0.9696,0.942,0.8921,0.8589,0.8336,0.7974,0.7791,0.755,0.702,0.6388,0.5813,1.0322,1.0322,1.0322,1.0322,1.0322,1.039,1.0715,1.1196,1.1354,1.1508,1.1705,1.2107,1.2399,1.2572,1.2768,1.2905,1.2973,1.2973,1.271,0.0,1.2291,1.204,1.16,1.15,1.1462,1.1462,1.1387,1.1349,1.1299,1.0847,1.0581,1.0506,1.0131,0.988,0.988,0.988,0.9868,0.978,0.978,0.9793,0.9841,0.946,0.9109,0.8792,0.8475,0.8109,0.7738,0.7914,0.8125,0.8311,0.8374,0.8547,0.888,0.8994,0.912,0.9206,0.9468,0.9618,0.9554,0.7873,0.7228,0.8185,0.851,0.7942,0.637,0.671,0.6393,0.5068,0.817,1.0252,1.0221,1.0234,1.0124,0.9866,1.0058,1.0121,0.9867,0.9834,0.9798,0.9687,0.9627,0.964,0.9721,1.0356,1.1132,1.2046,1.3036,1.3818,1.3588,1.3438,1.3159,1.2977,1.2739,1.2586,1.2478,1.2431,1.2149,1.1725,1.1341,1.0996,1.0556,1.0286,1.0249,1.0485,1.0411,1.0161,0.9724,0.9475,0.9143,0.875,0.8574,0.8301,0.7772,0.7355,0.6837,1.0322,1.0322,1.0322,1.0312,1.039,1.0715,1.1169,1.1653,1.1945,1.2126,1.2234,1.2567,1.2803,1.2955,1.3094,1.3163,1.321,1.321,1.306,1.2835,1.2835,1.273,1.2467,1.2178,1.2027,1.2015,1.1726,1.1588,1.1563,1.1312,1.1035,1.0681,1.0182,0.988,0.9905,0.9919,0.9944,0.9944,0.9944,0.997,1.0034,0.9977,0.9761,0.94,0.9016,0.8621,0.8249,0.805,0.8014,0.8125,0.8178,0.8282,0.8463,0.8711,0.8857,0.8897,0.9129,0.9368,0.9583,0.8749,0.85,0.9106,0.9248,0.9314,0.9227,0.9057,0.8592,0.7808,0.9295,1.0185,1.0194,1.0228,1.022,1.0156,1.0251,1.0234,1.01,1.0091,1.007,0.9976,0.9934,0.9919,0.9925,1.0796,1.2035,1.3263,1.4158,1.4338,1.4193,1.4012,1.3733,1.3445,1.3275,1.3166,1.2998,1.2887,1.2642,1.2271,1.1946,1.1586,1.1265,1.1024,1.1029,1.1085,1.1015,1.0825,1.0521,1.021,0.9868,0.9583,0.9292,0.8958,0.849,0.7956,0.7214,1.0322,1.0322,1.0322,1.039,1.0562,1.1121,1.1605,1.1982,1.2389,1.2579,1.265,1.2861,1.2978,1.3107,1.3163,1.321,1.321,1.321,1.321,1.321,1.321,1.321,1.3173,1.276,1.2592,1.2554,1.2153,1.1964,1.1952,1.1839,1.1487,1.091,1.0357,1.0107,1.0095,1.0059,1.0034,1.0046,1.0072,1.011,1.0085,1.0336,1.0267,0.9872,0.9612,0.928,0.8906,0.854,0.8364,0.8409,0.8331,0.8265,0.8193,0.8422,0.86,0.8693,0.8863,0.9068,0.9313,0.9502,0.9633,0.9724,0.991,1.0473,1.1408,1.1029,1.0441,1.013,1.001,1.0097,1.0148,1.0173,1.0249,1.0431,1.0337,1.0473,1.0723,1.0677,1.0562,1.046,1.0592,1.0617,1.0383,1.1243,1.2775,1.4278,1.4666,1.4526,1.4409,1.4332,1.4123,1.387,1.3721,1.358,1.3362,1.3261,1.3052,1.2692,1.24,1.2097,1.1818,1.1652,1.1623,1.1601,1.1541,1.1384,1.121,1.0869,1.0494,1.0235,0.9932,0.9569,0.9012,0.8315,0.75,1.0322,1.0322,1.039,1.0601,1.0981,1.142,1.1836,1.221,1.2579,1.2873,1.3037,1.3072,1.3072,1.3094,1.3176,1.321,1.321,1.321,1.321,1.321,1.321,1.321,1.321,1.3135,1.3123,1.311,1.3023,1.2947,1.2922,1.2497,1.204,1.15,1.0979,1.0716,1.0666,1.0379,1.0186,1.0173,1.0349,1.0386,1.0299,1.0534,1.0457,0.9991,1.0194,1.0037,0.9567,0.9591,0.9633,0.9673,0.9148,0.8591,0.8173,0.8135,0.8296,0.8624,0.8781,0.8925,0.9129,0.9248,0.9438,0.9491,1.0268,1.1094,1.1955,1.1971,1.133,1.042,1.0065,1.0034,1.0096,1.0121,1.0471,1.1267,1.0886,1.0817,1.2069,1.2127,1.1717,1.1396,1.1938,1.1982,1.0864,1.2204,1.3824,1.473,1.4813,1.4727,1.4666,1.4534,1.4433,1.4289,1.4096,1.3841,1.3667,1.3605,1.3395,1.3089,1.2822,1.2556,1.2291,1.2003,1.1848,1.2075,1.2012,1.1826,1.1608,1.1324,1.1001,1.0715,1.0409,1.0072,0.9345,0.8706,0.806,1.039,1.0477,1.0418,1.0715,1.1207,1.1689,1.2102,1.252,1.285,1.3025,1.3129,1.3163,1.3129,1.3163,1.3198,1.321,1.321,1.321,1.321,1.321,1.321,1.321,1.321,1.321,1.321,1.321,1.321,1.321,1.311,1.2713,1.2342,1.2121,1.1708,1.1317,1.0996,1.0939,1.0742,1.0462,1.0632,1.0753,1.0791,1.0839,1.0856,1.0751,1.0606,1.0448,1.0259,1.0014,0.9875,0.9878,0.9675,0.906,0.803,0.8054,0.8659,0.9815,1.0095,1.0068,0.9898,1.0302,1.0714,1.1081,1.1273,1.1771,1.2615,1.2362,1.2161,1.2401,1.1016,1.0324,1.1274,1.0665,1.0654,1.1939,1.2749,1.314,1.2737,1.2927,1.2828,1.2402,1.2569,1.2608,1.2176,1.3421,1.4614,1.4976,1.495,1.4894,1.4822,1.4737,1.4627,1.453,1.4387,1.4198,1.3977,1.3759,1.362,1.3444,1.3193,1.2944,1.2776,1.2447,1.2302,1.2522,1.2383,1.22,1.1991,1.1718,1.1415,1.1141,1.0705,1.0273,0.9725,0.9251,0.8706,1.0534,1.0611,1.0611,1.0943,1.1468,1.1957,1.2365,1.2745,1.299,1.3141,1.321,1.3232,1.3267,1.3232,1.3232,1.321,1.321,1.321,1.321,1.321,1.3232,1.3232,1.3279,1.3288,1.3301,1.3288,1.3288,1.3288,1.3285,1.2976,1.2826,1.2814,1.2498,1.2134,1.1727,1.1629,1.1332,1.1039,1.1017,1.1076,1.1178,1.1192,1.1224,1.131,1.106,1.0917,1.097,1.0614,1.0413,1.0451,1.0327,0.9909,0.9103,0.882,0.954,1.1274,1.1273,1.0899,1.0488,1.1018,1.1582,1.204,1.2068,1.249,1.3195,1.3041,1.3267,1.4051,1.2456,1.1873,1.2714,1.211,1.1998,1.2961,1.4381,1.4699,1.3736,1.3914,1.3845,1.3198,1.3398,1.3506,1.3671,1.4489,1.5173,1.5132,1.5082,1.5023,1.4971,1.4895,1.4823,1.4697,1.4654,1.4499,1.4216,1.4009,1.3848,1.3746,1.3526,1.3312,1.3243,1.2922,1.2678,1.2829,1.2694,1.2518,1.2277,1.2018,1.1703,1.1466,1.1052,1.0559,1.0198,0.9764,0.9354,1.0677,1.0753,1.1029,1.1404,1.1811,1.2222,1.2556,1.2803,1.3037,1.3129,1.3232,1.3323,1.3391,1.3391,1.3301,1.3198,1.321,1.3245,1.3232,1.3232,1.3335,1.3391,1.3391,1.3446,1.3493,1.3493,1.3493,1.3527,1.3581,1.3542,1.3622,1.3683,1.3351,1.3168,1.3004,1.2239,1.1846,1.1847,1.1485,1.1353,1.1466,1.1534,1.1534,1.1511,1.1586,1.1592,1.1629,1.1657,1.1707,1.1785,1.1243,1.1156,1.1571,1.0715,1.109,1.2773,1.1911,1.0994,1.076,1.1138,1.1544,1.1777,1.2476,1.3254,1.4076,1.4126,1.4203,1.4469,1.418,1.418,1.453,1.433,1.414,1.3907,1.4639,1.5075,1.5119,1.4979,1.4695,1.4093,1.4488,1.4919,1.5143,1.5268,1.5261,1.5207,1.5188,1.5165,1.5085,1.5027,1.4944,1.4877,1.4776,1.4598,1.435,1.4198,1.4105,1.4009,1.3833,1.3619,1.3527,1.3413,1.326,1.3102,1.2904,1.2716,1.2518,1.2241,1.1912,1.163,1.1293,1.0897,1.0632,1.0211,0.9828,1.1057,1.1057,1.1356,1.1653,1.2041,1.2413,1.2697,1.2908,1.3151,1.3288,1.3357,1.3446,1.3547,1.3514,1.3573,1.3506,1.3404,1.3391,1.3391,1.3391,1.348,1.3514,1.356,1.3628,1.3708,1.3674,1.3721,1.3741,1.3808,1.396,1.4059,1.4111,1.416,1.4015,1.3637,1.2982,1.2536,1.2205,1.1748,1.1534,1.163,1.1652,1.1674,1.1696,1.1696,1.1725,1.1762,1.1848,1.1869,1.1891,1.1805,1.1887,1.2097,1.2143,1.2455,1.3211,1.2872,1.25,1.2411,1.2559,1.277,1.2941,1.3335,1.377,1.4208,1.4368,1.4422,1.4476,1.4488,1.46,1.4794,1.4931,1.4924,1.4775,1.4967,1.5212,1.527,1.5288,1.5148,1.4937,1.5207,1.5389,1.5397,1.5375,1.5342,1.5276,1.5226,1.5188,1.5165,1.5092,1.5049,1.5014,1.4902,1.4776,1.4672,1.4434,1.4301,1.4224,1.4087,1.392,1.3789,1.3605,1.3445,1.3346,1.3139,1.294,1.2719,1.2388,1.2066,1.1805,1.1474,1.1247,1.1005,1.0608,1.0311,1.1468,1.1479,1.1653,1.1945,1.2258,1.2603,1.2803,1.2978,1.3288,1.3425,1.3459,1.3628,1.3682,1.3749,1.3861,1.3841,1.3728,1.3628,1.3594,1.3628,1.3682,1.3735,1.3828,1.3941,1.4007,1.4007,1.404,1.4059,1.417,1.4365,1.4461,1.4525,1.4746,1.4562,1.4027,1.351,1.2983,1.2507,1.1909,1.1652,1.1725,1.1725,1.1747,1.1805,1.1768,1.1783,1.1826,1.1869,1.1949,1.2018,1.2174,1.2298,1.2423,1.2961,1.3295,1.3413,1.3379,1.3396,1.3413,1.3463,1.356,1.3748,1.3897,1.4082,1.4281,1.4368,1.4411,1.4476,1.4488,1.4567,1.4744,1.4905,1.503,1.5105,1.5172,1.5226,1.5264,1.5278,1.5345,1.5343,1.5379,1.541,1.5407,1.5415,1.5373,1.5336,1.5276,1.5222,1.5176,1.5172,1.5127,1.5119,1.5034,1.4955,1.4841,1.4658,1.4515,1.4434,1.4313,1.4172,1.4005,1.3833,1.3682,1.3559,1.3379,1.3174,1.2871,1.253,1.2251,1.2018,1.1805,1.1586,1.1316,1.1015,1.0705,1.1932,1.1943,1.2077,1.2258,1.2508,1.272,1.2908,1.3094,1.3335,1.3459,1.3527,1.3775,1.3914,1.4013,1.4124,1.417,1.4105,1.3908,1.3841,1.3908,1.3947,1.4078,1.4157,1.4319,1.4397,1.4397,1.4483,1.4578,1.4683,1.4763,1.4825,1.489,1.5,1.4761,1.4268,1.3665,1.3172,1.2666,1.2022,1.174,1.1768,1.1805,1.1805,1.1826,1.1848,1.1891,1.1912,1.1912,1.1997,1.2185,1.2323,1.2522,1.2773,1.3156,1.3396,1.3396,1.3396,1.3396,1.3396,1.3463,1.3625,1.3826,1.3959,1.4078,1.4268,1.4368,1.4422,1.4476,1.4488,1.4563,1.4693,1.485,1.4995,1.509,1.5165,1.5195,1.5224,1.526,1.5319,1.5379,1.5394,1.5406,1.541,1.5406,1.5392,1.5385,1.5333,1.5272,1.5211,1.5212,1.5195,1.519,1.5146,1.5057,1.496,1.4876,1.4756,1.4643,1.4492,1.4362,1.4193,1.4015,1.3906,1.3776,1.3591,1.3362,1.3051,1.2722,1.251,1.2307,1.2102,1.1906,1.1608,1.1316,1.1024,1.2845,1.2836,1.2627,1.2591,1.272,1.2908,1.3037,1.3129,1.3357,1.3527,1.3615,1.3927,1.4124,1.4157,1.4287,1.4287,1.4254,1.417,1.4138,1.4092,1.4157,1.4273,1.4401,1.4543,1.4637,1.4763,1.4887,1.5011,1.5056,1.5163,1.5036,1.4645,1.4674,1.4436,1.3859,1.3266,1.2867,1.2716,1.2112,1.1783,1.1805,1.1826,1.1826,1.1826,1.1869,1.1949,1.2012,1.2091,1.2159,1.2266,1.2439,1.2616,1.2829,1.3173,1.3396,1.3396,1.3396,1.3396,1.3413,1.3513,1.3658,1.3873,1.397,1.4091,1.4268,1.435,1.4441,1.4488,1.4488,1.4545,1.4683,1.4785,1.4902,1.5015,1.5113,1.5165,1.5201,1.5255,1.5311,1.5339,1.5366,1.5385,1.541,1.5408,1.5421,1.5405,1.5357,1.5276,1.5269,1.5217,1.5204,1.5195,1.5165,1.514,1.5059,1.4981,1.49,1.4804,1.4687,1.4537,1.4368,1.4219,1.4119,1.3952,1.3776,1.3526,1.321,1.2962,1.2759,1.2585,1.2388,1.2143,1.1891,1.163,1.1347,1.3782,1.3734,1.3519,1.3326,1.3227,1.3334,1.3281,1.3188,1.3391,1.3547,1.3728,1.4026,1.4235,1.4235,1.4332,1.4319,1.4254,1.4208,1.4189,1.4222,1.4337,1.4433,1.4578,1.4794,1.4949,1.5072,1.5238,1.5328,1.5314,1.5418,1.5168,1.4624,1.4576,1.4172,1.3421,1.296,1.2679,1.2403,1.2014,1.1826,1.1826,1.1826,1.1826,1.1826,1.1869,1.2012,1.2133,1.2252,1.2338,1.2427,1.26,1.2773,1.2961,1.3243,1.3396,1.3396,1.3396,1.3396,1.3413,1.3529,1.3705,1.3886,1.3998,1.4123,1.4268,1.435,1.4422,1.4488,1.4533,1.4629,1.4734,1.4775,1.4841,1.4928,1.5004,1.5107,1.5183,1.5234,1.5279,1.5311,1.5346,1.5397,1.5408,1.541,1.5407,1.5398,1.536,1.5326,1.5288,1.5259,1.5246,1.5215,1.5212,1.5189,1.514,1.5094,1.5052,1.496,1.4877,1.4717,1.4541,1.4422,1.4306,1.4082,1.3883,1.37,1.3412,1.3192,1.2982,1.2834,1.2662,1.2427,1.2185,1.1991,1.1696,1.4666,1.4654,1.4629,1.4322,1.3976,1.3964,1.3752,1.3433,1.3556,1.3775,1.3892,1.4159,1.4257,1.4281,1.4254,1.4222,1.4157,1.4078,1.4059,1.4189,1.4337,1.4515,1.4732,1.5025,1.5224,1.5359,1.5448,1.5507,1.5522,1.558,1.5312,1.476,1.4609,1.4094,1.3077,1.2786,1.2388,1.1954,1.182,1.1805,1.1826,1.1826,1.1826,1.1826,1.1949,1.2091,1.2216,1.2419,1.2562,1.2646,1.2815,1.298,1.3175,1.3346,1.3396,1.3396,1.3396,1.3396,1.343,1.3529,1.3704,1.3955,1.404,1.415,1.4293,1.4368,1.4422,1.4511,1.4618,1.4724,1.4794,1.4822,1.4832,1.4822,1.4946,1.5087,1.5177,1.5193,1.5231,1.5269,1.5352,1.5416,1.5398,1.5408,1.541,1.5406,1.5377,1.5355,1.5326,1.5299,1.5299,1.5274,1.527,1.524,1.5199,1.5165,1.5107,1.5073,1.5011,1.4885,1.4708,1.4581,1.4417,1.4203,1.4016,1.3838,1.3638,1.3411,1.3244,1.3086,1.2906,1.27,1.2487,1.2266,1.2033,1.5399,1.5361,1.4962,1.4751,1.4625,1.4625,1.4576,1.4488,1.4525,1.4441,1.441,1.4493,1.4345,1.4047,1.4059,1.4013,1.3927,1.3927,1.3941,1.4007,1.4222,1.4529,1.4871,1.5193,1.5389,1.5492,1.561,1.5697,1.5726,1.5741,1.5397,1.4797,1.4348,1.369,1.2876,1.2366,1.1999,1.182,1.1826,1.1826,1.1826,1.1826,1.1826,1.1869,1.2012,1.2138,1.2302,1.2604,1.2832,1.2906,1.3018,1.3123,1.3193,1.3329,1.3396,1.3396,1.3396,1.3396,1.3413,1.3529,1.3686,1.3902,1.4037,1.4199,1.4355,1.4381,1.4464,1.4545,1.4651,1.4774,1.4914,1.4938,1.4955,1.5019,1.504,1.5101,1.5177,1.5207,1.5215,1.5236,1.5276,1.5342,1.5377,1.5398,1.5407,1.541,1.5408,1.5377,1.5358,1.5335,1.5316,1.5326,1.533,1.5298,1.526,1.5212,1.5177,1.5171,1.5127,1.5064,1.4885,1.4736,1.4545,1.4306,1.415,1.3984,1.3803,1.3603,1.3461,1.3329,1.3138,1.2924,1.2738,1.2526,1.2323,1.6032,1.6019,1.5693,1.5429,1.5268,1.5216,1.509,1.4941,1.4967,1.4929,1.4831,1.4716,1.4498,1.4183,1.4,1.3861,1.3741,1.3762,1.3841,1.3954,1.4254,1.456,1.4887,1.5224,1.5403,1.5507,1.5697,1.5785,1.5814,1.5814,1.5439,1.4884,1.4408,1.3735,1.2846,1.2456,1.2044,1.1865,1.1826,1.1826,1.1826,1.1826,1.1826,1.1891,1.2033,1.22,1.2467,1.2813,1.3015,1.307,1.3158,1.3227,1.3278,1.3346,1.3396,1.3396,1.3396,1.3396,1.343,1.3529,1.3653,1.3795,1.3959,1.4181,1.4355,1.4447,1.4545,1.4664,1.4755,1.485,1.4921,1.4979,1.5019,1.5071,1.5114,1.5146,1.519,1.5201,1.5199,1.5215,1.5255,1.5307,1.5351,1.5375,1.5391,1.5421,1.5409,1.5409,1.5401,1.5366,1.5353,1.5368,1.5371,1.5345,1.5311,1.527,1.5218,1.5212,1.5177,1.5133,1.5019,1.485,1.4635,1.4434,1.4293,1.4136,1.3966,1.3803,1.3653,1.3511,1.3312,1.3122,1.2942,1.2773,1.2562,1.6534,1.6522,1.6522,1.6233,1.5819,1.5768,1.5542,1.5167,1.5258,1.5299,1.5298,1.4933,1.4771,1.4572,1.4128,1.3819,1.3615,1.3695,1.3828,1.4059,1.4369,1.4686,1.4949,1.5208,1.5374,1.5507,1.5697,1.577,1.5814,1.5814,1.5529,1.5079,1.4869,1.4184,1.334,1.2921,1.2471,1.2044,1.185,1.1805,1.1826,1.1826,1.1848,1.1949,1.2096,1.2363,1.2662,1.2924,1.3121,1.3176,1.321,1.3278,1.3379,1.3396,1.3396,1.3396,1.3396,1.3396,1.3413,1.3529,1.3606,1.3671,1.3931,1.4181,1.4367,1.4506,1.4643,1.4765,1.4913,1.4955,1.4971,1.4984,1.5038,1.5106,1.5165,1.5183,1.5203,1.5201,1.5193,1.5195,1.525,1.5278,1.5315,1.5342,1.5382,1.536,1.5379,1.5408,1.541,1.5406,1.5382,1.5401,1.5387,1.5382,1.5352,1.5319,1.5255,1.522,1.5207,1.5159,1.5078,1.4911,1.4747,1.4571,1.4429,1.4299,1.4136,1.3998,1.3838,1.3686,1.3494,1.3312,1.3122,1.2959,1.2773,1.6534,1.6534,1.6534,1.6459,1.6358,1.6333,1.6258,1.6132,1.6241,1.6074,1.5889,1.5827,1.5335,1.4569,1.4423,1.4081,1.3726,1.3821,1.4013,1.4388,1.4592,1.4887,1.5117,1.5314,1.5418,1.5536,1.5697,1.5799,1.5814,1.5799,1.5739,1.5559,1.5067,1.4674,1.4285,1.3355,1.2771,1.2508,1.2104,1.1835,1.1826,1.1826,1.1869,1.1991,1.2257,1.2522,1.2757,1.2977,1.3138,1.3226,1.3295,1.3346,1.3396,1.3396,1.3396,1.3396,1.3396,1.3396,1.3413,1.3479,1.3543,1.3611,1.3856,1.4105,1.436,1.4506,1.4654,1.4794,1.494,1.5011,1.5052,1.5059,1.5106,1.5146,1.519,1.5189,1.5189,1.5195,1.5195,1.5201,1.521,1.5246,1.5298,1.5288,1.5313,1.531,1.5353,1.5397,1.5406,1.541,1.541,1.5409,1.5404,1.5387,1.5363,1.5329,1.5283,1.5246,1.5234,1.5195,1.512,1.5034,1.4857,1.4707,1.4545,1.4417,1.4281,1.415,1.3998,1.3821,1.3686,1.3494,1.3329,1.3139,1.2959,1.6534,1.6534,1.6534,1.6534,1.6534,1.6534,1.6534,1.6534,1.6633,1.6638,1.6455,1.6413,1.5983,1.5395,1.4908,1.4485,1.4256,1.4185,1.4356,1.4672,1.4873,1.5102,1.5298,1.5418,1.5507,1.5566,1.5697,1.5799,1.5814,1.5814,1.5799,1.5799,1.5424,1.5109,1.4812,1.406,1.343,1.2831,1.2486,1.2156,1.185,1.1826,1.1912,1.2096,1.2338,1.2577,1.2792,1.2977,1.3121,1.3209,1.3329,1.3396,1.3396,1.3396,1.3396,1.3396,1.3396,1.3396,1.3413,1.3463,1.3526,1.3598,1.3845,1.4064,1.4286,1.4459,1.4578,1.4736,1.4886,1.5027,1.5094,1.5146,1.5172,1.5159,1.5203,1.5195,1.5195,1.5195,1.5195,1.5201,1.5199,1.5229,1.5236,1.5274,1.5299,1.5303,1.53,1.5351,1.541,1.5421,1.5409,1.541,1.5409,1.5402,1.5383,1.5351,1.5299,1.5269,1.526,1.5224,1.5171,1.5087,1.5008,1.4822,1.4654,1.4533,1.4417,1.4281,1.415,1.3998,1.3836,1.3652,1.3493,1.3346,1.3173,1.6534,1.6534,1.6534,1.6534,1.6534,1.6534,1.6534,1.6522,1.6663,1.6808,1.6967,1.6743,1.6626,1.6372,1.5711,1.5251,1.4972,1.4708,1.4721,1.4951,1.5163,1.5284,1.5433,1.5551,1.5639,1.5639,1.5726,1.5799,1.5814,1.5814,1.5814,1.5784,1.5799,1.5514,1.5052,1.4767,1.4229,1.34,1.3086,1.2651,1.2134,1.2036,1.213,1.2153,1.2338,1.2522,1.2773,1.2959,1.3138,1.3209,1.3329,1.3396,1.3396,1.3396,1.3396,1.3396,1.3396,1.3396,1.3413,1.3446,1.3509,1.3598,1.3768,1.3995,1.4221,1.4362,1.4469,1.4656,1.4841,1.5022,1.5071,1.5146,1.5153,1.514,1.5177,1.5209,1.5189,1.5195,1.5195,1.5195,1.5207,1.5212,1.5224,1.5231,1.5265,1.5291,1.5292,1.5316,1.5365,1.541,1.5405,1.541,1.541,1.541,1.5395,1.5375,1.5329,1.5295,1.5289,1.525,1.5212,1.5146,1.5059,1.4911,1.4747,1.4654,1.4545,1.4417,1.4293,1.415,1.3998,1.3853,1.3702,1.3544,1.3362,1.6534,1.6534,1.6534,1.6534,1.6534,1.6534,1.6534,1.6565,1.6748,1.6947,1.7173,1.7287,1.7143,1.691,1.6862,1.6335,1.5672,1.5237,1.5098,1.5281,1.5417,1.5492,1.558,1.5668,1.577,1.577,1.5814,1.5814,1.5814,1.5814,1.5814,1.5814,1.5814,1.5664,1.5469,1.5111,1.4752,1.424,1.3825,1.3301,1.2777,1.2546,1.2441,1.2271,1.2344,1.2503,1.2719,1.2959,1.3121,1.3192,1.3329,1.3396,1.3396,1.3396,1.3396,1.3396,1.3396,1.3396,1.3396,1.3413,1.3494,1.3605,1.3746,1.3915,1.4104,1.4247,1.4362,1.4541,1.4785,1.4998,1.5014,1.5071,1.512,1.5121,1.5165,1.5203,1.5189,1.5195,1.5195,1.5189,1.5195,1.5201,1.5212,1.5234,1.5251,1.5278,1.5299,1.5326,1.5396,1.5407,1.5405,1.541,1.541,1.541,1.5402,1.5387,1.5357,1.5326,1.5295,1.527,1.5234,1.5207,1.5107,1.4992,1.4867,1.4747,1.4654,1.4545,1.4435,1.4293,1.4168,1.4016,1.3871,1.3702,1.3544,1.6534,1.6534,1.6534,1.6534,1.6534,1.6534,1.6534,1.6522,1.6791,1.7031,1.7323,1.7625,1.7732,1.7653,1.7525,1.7064,1.6465,1.5941,1.5837,1.5933,1.5713,1.561,1.5683,1.577,1.5799,1.5814,1.5814,1.5814,1.5814,1.5814,1.5814,1.5814,1.5814,1.5814,1.5769,1.5514,1.5096,1.4827,1.4453,1.3989,1.3331,1.3056,1.2712,1.2641,1.2432,1.2483,1.27,1.2959,1.3121,1.3209,1.3346,1.3379,1.3396,1.3396,1.3396,1.3396,1.3396,1.3396,1.3396,1.3396,1.3429,1.3494,1.3638,1.3826,1.3991,1.4127,1.425,1.4411,1.4571,1.4794,1.4867,1.4987,1.5057,1.5106,1.5159,1.5184,1.5197,1.5203,1.5203,1.5183,1.5189,1.5195,1.5201,1.5229,1.5241,1.5269,1.5287,1.5342,1.541,1.542,1.5403,1.541,1.541,1.541,1.541,1.54,1.5383,1.5357,1.5326,1.5283,1.526,1.5234,1.5195,1.512,1.4992,1.4867,1.4765,1.4664,1.4545,1.4447,1.4312,1.4168,1.4012,1.3868,1.3717,1.6534,1.6534,1.6534,1.6534,1.6534,1.6534,1.6534,1.6565,1.6791,1.7086,1.7447,1.7801,1.8082,1.819,1.8007,1.7691,1.733,1.6881,1.6642,1.6409,1.6129,1.5891,1.5785,1.5814,1.5814,1.5814,1.5814,1.5814,1.5814,1.5814,1.5814,1.5814,1.5814,1.5814,1.5784,1.5739,1.5409,1.5199,1.4962,1.4648,1.4019,1.34,1.3014,1.3084,1.2722,1.2637,1.2716,1.2959,1.3121,1.3209,1.3295,1.3396,1.3396,1.3396,1.3396,1.3396,1.3396,1.3396,1.3396,1.3396,1.3413,1.3413,1.3593,1.3735,1.3853,1.3998,1.415,1.4255,1.4393,1.4567,1.4737,1.4867,1.4979,1.5068,1.5125,1.5159,1.5172,1.5184,1.5165,1.5171,1.5183,1.5189,1.5195,1.5243,1.526,1.5265,1.5287,1.5338,1.5387,1.5414,1.5416,1.5406,1.541,1.541,1.541,1.541,1.54,1.5383,1.5357,1.5326,1.5283,1.526,1.5224,1.5183,1.5127,1.5019,1.4885,1.4775,1.4664,1.4556,1.4429,1.4306,1.4172,1.4023,1.388,1.6534,1.6534,1.6534,1.6534,1.6534,1.6534,1.6534,1.6522,1.6791,1.7073,1.7393,1.7774,1.8109,1.8363,1.8272,1.8229,1.8091,1.7692,1.7225,1.6886,1.6576,1.6204,1.5903,1.5814,1.5814,1.5814,1.5814,1.5814,1.5814,1.5814,1.5814,1.5814,1.5814,1.5814,1.5814,1.5814,1.5769,1.5679,1.5649,1.5334,1.4704,1.4081,1.3591,1.336,1.323,1.3178,1.3057,1.3238,1.3338,1.3293,1.3362,1.3396,1.3396,1.3396,1.3396,1.3396,1.3396,1.3396,1.3396,1.3396,1.3396,1.3413,1.3546,1.3641,1.3793,1.3955,1.4082,1.4109,1.4255,1.4417,1.4622,1.4737,1.4859,1.4971,1.5061,1.5085,1.5106,1.5146,1.5152,1.5165,1.5177,1.5189,1.5195,1.5248,1.5279,1.5284,1.5306,1.5354,1.5381,1.5385,1.5405,1.5416,1.5406,1.541,1.541,1.541,1.5449,1.543,1.5403,1.5377,1.5326,1.5283,1.5255,1.5218,1.519,1.5139,1.5019,1.4904,1.4785,1.4674,1.4578,1.4458,1.4302,1.4162,1.4068,1.6534,1.6534,1.6534,1.6534,1.6534,1.6534,1.6534,1.6522,1.6705,1.696,1.7323,1.7652,1.8095,1.8521,1.8656,1.8783,1.8781,1.8327,1.7996,1.7463,1.7067,1.6562,1.6264,1.5964,1.5814,1.5903,1.5814,1.5814,1.5814,1.5829,1.5814,1.5814,1.5814,1.5814,1.5814,1.5814,1.5814,1.5799,1.5784,1.5649,1.5329,1.4868,1.444,1.4307,1.4224,1.4068,1.4043,1.4232,1.4174,1.3949,1.3667,1.3396,1.3396,1.3396,1.3396,1.3396,1.3396,1.3396,1.3396,1.3396,1.3396,1.3413,1.3513,1.3625,1.3778,1.3941,1.4072,1.41,1.4216,1.4381,1.454,1.4654,1.4775,1.4877,1.4955,1.5109,1.5129,1.509,1.5119,1.514,1.5171,1.5183,1.5189,1.5212,1.5259,1.5236,1.526,1.5311,1.5334,1.5316,1.5363,1.5403,1.5419,1.541,1.541,1.541,1.5488,1.5508,1.5475,1.5438,1.5357,1.5326,1.5364,1.5332,1.5289,1.5216,1.5157,1.503,1.4933,1.4832,1.4744,1.4818,1.4846,1.4447,1.435,1.6534,1.6534,1.6534,1.6534,1.6534,1.6534,1.6534,1.6522,1.6633,1.6888,1.7157,1.7557,1.8068,1.8592,1.8831,1.8939,1.9103,1.8724,1.8552,1.815,1.764,1.7109,1.6875,1.6488,1.6353,1.6234,1.6174,1.6129,1.6024,1.5918,1.5814,1.5814,1.5814,1.5814,1.5814,1.5814,1.5814,1.5799,1.5827,1.5841,1.5805,1.5537,1.536,1.528,1.5154,1.504,1.5081,1.5226,1.5034,1.4689,1.3802,1.3413,1.3413,1.4362,1.4497,1.4429,1.4294,1.3989,1.3667,1.3396,1.3396,1.3446,1.3562,1.3721,1.3853,1.3973,1.4054,1.4168,1.4229,1.4356,1.4476,1.4596,1.4685,1.4766,1.4859,1.5055,1.5335,1.5645,1.5456,1.5085,1.5107,1.5171,1.5183,1.5189,1.5207,1.521,1.5236,1.5279,1.5287,1.5288,1.5378,1.5443,1.5403,1.542,1.5449,1.5469,1.5547,1.5801,1.5781,1.5573,1.5559,1.5594,1.5656,1.5578,1.582,1.5823,1.6087,1.5563,1.5128,1.5478,1.5706,1.5608,1.5447,1.5053,1.463,1.6534,1.6534,1.6509,1.6534,1.6534,1.6534,1.6534,1.6522,1.6633,1.6803,1.7044,1.7516,1.7948,1.8305,1.8553,1.8745,1.8884,1.8878,1.8643,1.8425,1.8229,1.7874,1.7584,1.7458,1.7401,1.7294,1.6921,1.6667,1.6547,1.6263,1.6023,1.5814,1.5888,1.5844,1.5814,1.5814,1.5814,1.5814,1.5871,1.5926,1.6039,1.6006,1.5978,1.5754,1.5775,1.571,1.5275,1.5575,1.5631,1.5435,1.4613,1.3803,1.4175,1.5731,1.6153,1.5731,1.555,1.5058,1.4278,1.382,1.3532,1.3563,1.3845,1.4195,1.4179,1.404,1.4082,1.4229,1.4293,1.4544,1.4562,1.4522,1.4629,1.4905,1.5146,1.5494,1.5966,1.6663,1.6357,1.5383,1.5243,1.563,1.5536,1.5625,1.5349,1.5328,1.521,1.5236,1.5284,1.5311,1.5419,1.5485,1.5424,1.5444,1.5519,1.5762,1.6367,1.6777,1.6894,1.6343,1.5851,1.5912,1.6317,1.7194,1.766,1.7319,1.6868,1.6354,1.6155,1.6548,1.6772,1.6885,1.6619,1.6218,1.5509,1.6007,1.6045,1.6371,1.6534,1.6534,1.6534,1.6534,1.6522,1.6565,1.6748,1.6989,1.7365,1.7733,1.8016,1.8161,1.8333,1.845,1.8514,1.8522,1.8504,1.8332,1.8238,1.8051,1.7918,1.7652,1.7682,1.7428,1.7309,1.7264,1.6952,1.6997,1.6817,1.6263,1.5873,1.5814,1.5829,1.5814,1.5842,1.59,1.597,1.6151,1.6313,1.6428,1.6488,1.6686,1.6779,1.6697,1.6797,1.6593,1.6319,1.6035,1.5494,1.5003,1.6881,1.7304,1.6847,1.6686,1.603,1.5471,1.5012,1.4861,1.5055,1.5418,1.5497,1.4808,1.4409,1.4157,1.4208,1.4543,1.5062,1.5856,1.5215,1.4681,1.509,1.5568,1.6058,1.6681,1.7515,1.7659,1.6865,1.662,1.6717,1.6445,1.6151,1.5779,1.5445,1.5303,1.5268,1.5492,1.5603,1.5812,1.6133,1.6175,1.6475,1.6611,1.6989,1.7402,1.7715,1.8007,1.7499,1.699,1.7082,1.761,1.8634,1.9239,1.8785,1.815,1.7311,1.7166,1.7554,1.803,1.8431,1.8004,1.7391,1.675,1.5555,1.5743,1.6107,1.6371,1.6509,1.6534,1.6534,1.6534,1.6522,1.665,1.7002,1.7225,1.7474,1.7706,1.7814,1.7935,1.8069,1.8175,1.8397,1.8498,1.8533,1.8535,1.8608,1.8604,1.8493,1.8268,1.8059,1.8014,1.7981,1.7787,1.7593,1.7311,1.6862,1.6458,1.6054,1.5888,1.5814,1.5827,1.5942,1.6067,1.6289,1.6501,1.6747,1.7003,1.723,1.7356,1.7428,1.7451,1.7378,1.7265,1.7185,1.7117,1.6982,1.7117,1.767,1.7596,1.7318,1.6925,1.6864,1.676,1.6298,1.594,1.6466,1.6269,1.5666,1.5048,1.5052,1.4329,1.5109,1.6371,1.7513,1.6885,1.6224,1.671,1.693,1.7375,1.7963,1.866,1.867,1.8441,1.8283,1.8116,1.8125,1.7865,1.7406,1.6843,1.6215,1.6278,1.6486,1.6542,1.6521,1.6883,1.7239,1.7626,1.8057,1.8493,1.8867,1.8906,1.9082,1.8887,1.8573,1.8594,1.8769,1.9561,1.9961,1.9958,1.9502,1.8763,1.8551,1.8551,1.895,1.9316,1.9109,1.8526,1.8291,1.5218,1.5668,1.5718,1.6032,1.6459,1.6522,1.6522,1.6522,1.6565,1.6693,1.696,1.717,1.7295,1.7474,1.757,1.7652,1.7747,1.7909,1.8149,1.8447,1.8722,1.8999,1.9244,1.9313,1.9226,1.9405,1.9046,1.8687,1.8672,1.8313,1.8014,1.7942,1.7764,1.7282,1.6712,1.6114,1.5887,1.5958,1.6131,1.6354,1.6474,1.6722,1.6986,1.7248,1.7455,1.7595,1.7687,1.7749,1.767,1.7653,1.7653,1.7603,1.7569,1.7569,1.7789,1.7738,1.7793,1.7851,1.809,1.8146,1.7502,1.6694,1.7241,1.7024,1.627,1.6091,1.6244,1.5732,1.7018,1.8482,1.9066,1.8941,1.8243,1.8005,1.8207,1.8405,1.8941,1.9206,1.9142,1.9122,1.9482,1.9717,1.9855,1.9764,1.9246,1.8528,1.7516,1.7254,1.7381,1.7473,1.7399,1.7812,1.827,1.8851,1.9342,1.9959,2.0293,2.0273,2.0059,1.9746,1.9766,1.9824,2.0117,2.0566,2.0477,2.0273,2.0327,2.0266,1.9832,1.9367,1.9645,1.9869,1.9766,1.956,1.917,1.4475,1.4702,1.5392,1.5847,1.6115,1.6384,1.6522,1.6675,1.6778,1.6905,1.7086,1.7253,1.7378,1.7461,1.7488,1.7557,1.7611,1.7842,1.8083,1.8397,1.8745,1.9049,1.9362,1.9581,1.9705,1.9645,1.9405,1.9336,1.9416,1.9026,1.9155,1.9174,1.8728,1.8225,1.7678,1.7211,1.7091,1.6816,1.6824,1.6853,1.6712,1.6949,1.7224,1.7465,1.7629,1.7687,1.7732,1.7789,1.7789,1.7789,1.7789,1.7789,1.7789,1.7789,1.7789,1.7811,1.7861,1.8001,1.8252,1.835,1.8339,1.8003,1.7897,1.8001,1.7841,1.8095,1.7933,1.768,1.8361,1.9286,1.9231,1.9213,1.8831,1.8849,1.8992,1.9011,1.928,1.9328,1.9331,1.9355,1.9582,1.9751,1.9904,2.0058,1.9762,1.9419,1.8409,1.7869,1.7883,1.8216,1.8333,1.8852,1.936,1.9979,2.0529,2.0559,2.0583,2.0447,2.0429,2.0351,2.0488,2.0605,2.0605,2.0586,2.0586,2.0558,2.0499,2.043,2.0311,2.0167,2.0188,2.0135,1.9944,1.982,1.9675,1.3909,1.4173,1.4853,1.5486,1.5972,1.638,1.6705,1.6876,1.7073,1.724,1.7393,1.7543,1.7652,1.7679,1.7666,1.7666,1.772,1.7909,1.8149,1.8422,1.8784,1.9101,1.9362,1.9581,1.969,1.9741,1.9726,1.9732,1.9722,1.9839,1.9934,1.9886,1.979,1.9439,1.8881,1.8435,1.7853,1.7667,1.7751,1.7855,1.7733,1.7736,1.7749,1.7859,1.7883,1.7749,1.7789,1.7789,1.7789,1.7789,1.7789,1.7789,1.7789,1.7789,1.7789,1.7811,1.7949,1.8111,1.8395,1.8625,1.8663,1.8646,1.8895,1.8931,1.8931,1.8921,1.9034,1.9057,1.9289,1.9286,1.9286,1.9286,1.9286,1.9286,1.9305,1.9305,1.9305,1.9368,1.9402,1.9427,1.9467,1.9638,1.9816,1.9947,1.9955,1.9638,1.9268,1.8847,1.8479,1.8854,1.9167,1.957,1.9888,2.0276,2.0511,2.0543,2.0573,2.0598,2.0582,2.0583,2.0605,2.0605,2.0605,2.0605,2.0586,2.0568,2.0506,2.043,2.0357,2.0324,2.0321,2.0219,2.0088,1.999,1.99,1.3546,1.4058,1.4181,1.4891,1.5915,1.6504,1.6951,1.7227,1.7447,1.7625,1.7841,1.7948,1.8042,1.8028,1.8028,1.8028,1.8068,1.8175,1.8411,1.8669,1.8974,1.9213,1.9413,1.9632,1.9705,1.9726,1.9797,1.9869,1.9869,2.0115,2.0273,2.041,2.0418,2.0313,1.9953,1.9468,1.8811,1.8683,1.8783,1.8856,1.8768,1.8696,1.8676,1.8648,1.8367,1.8093,1.7997,1.7873,1.7805,1.7789,1.7789,1.7789,1.7789,1.7789,1.7789,1.7861,1.804,1.831,1.8547,1.8789,1.9272,1.9415,1.9286,1.9193,1.9117,1.9168,1.923,1.9274,1.9286,1.9286,1.9286,1.9286,1.9286,1.9286,1.9286,1.9305,1.9305,1.932,1.9338,1.9368,1.938,1.9523,1.9732,1.9896,1.9977,1.9907,1.9706,1.9756,1.9489,1.9636,1.9896,2.0009,2.0274,2.0371,2.049,2.0519,2.0531,2.0558,2.0552,2.0537,2.0561,2.0604,2.0605,2.0605,2.0605,2.0578,2.0543,2.05,2.0469,2.043,2.0388,2.0294,2.0167,2.006,1.9969,1.3527,1.374,1.422,1.4725,1.5312,1.6617,1.7355,1.7639,1.7948,1.8147,1.8319,1.8383,1.8475,1.8539,1.8461,1.85,1.8553,1.863,1.876,1.8988,1.9176,1.9391,1.9574,1.9705,1.9777,1.9848,1.994,2.0045,2.022,2.0426,2.0646,2.0778,2.0925,2.1038,2.0943,2.0686,2.0127,1.9791,1.983,1.9809,1.9679,1.9531,1.9537,1.9437,1.8971,1.8674,1.8538,1.8143,1.8008,1.789,1.7839,1.7805,1.7789,1.7811,1.7811,1.7944,1.8163,1.8388,1.8639,1.8914,1.9538,2.0366,2.0381,1.9673,1.9433,1.9337,1.9421,1.9562,1.9396,1.936,1.947,1.9507,1.9617,1.9709,1.9801,1.9968,1.9895,1.958,1.958,1.9338,1.935,1.9442,1.9641,1.9782,1.9873,1.9955,2.0049,2.0135,2.0205,2.0262,2.0313,2.0372,2.0408,2.043,2.0452,2.0465,2.0496,2.0506,2.0506,2.0501,2.0527,2.0555,2.0582,2.0605,2.0604,2.0601,2.0596,2.0562,2.0519,2.046,2.0428,2.0326,2.0238,2.0169,2.0079,1.3628,1.3679,1.4093,1.461,1.5366,1.6655,1.7399,1.7674,1.825,1.863,1.8836,1.886,1.8936,1.8988,1.8912,1.8912,1.8974,1.8974,1.9064,1.9228,1.9391,1.9523,1.9669,1.9726,1.9848,1.994,2.0115,2.0273,2.046,2.0794,2.1039,2.1198,2.1356,2.145,2.1446,2.1409,2.1278,2.0956,2.0836,2.0722,2.0567,2.0381,2.037,2.0297,1.9756,1.9435,1.9299,1.8768,1.8667,1.865,1.865,1.8295,1.8278,1.8268,1.8795,1.8996,1.9159,1.9276,1.9432,1.9864,2.0662,2.1274,2.1325,2.105,2.0372,2.0058,2.0181,2.027,1.9779,1.947,1.9654,1.9837,2.0058,2.026,2.0537,2.0831,2.0464,2.0023,1.9693,1.9378,1.9335,1.938,1.9499,1.9647,1.977,1.9873,1.9966,2.004,2.0153,2.0249,2.0284,2.034,2.0366,2.0377,2.0399,2.0439,2.0449,2.0467,2.0484,2.0483,2.05,2.0545,2.0581,2.0605,2.0605,2.0603,2.0601,2.0576,2.0545,2.0511,2.0467,2.0415,2.0353,2.0289,2.019,1.3841,1.3854,1.4013,1.4738,1.575,1.6627,1.7118,1.7447,1.8303,1.8956,1.9119,1.9273,1.9288,1.9288,1.9302,1.9302,1.9288,1.9288,1.9339,1.9428,1.9523,1.9632,1.969,1.9797,1.9975,2.015,2.0342,2.0579,2.0712,2.1039,2.1402,2.1603,2.1738,2.1797,2.1797,2.1857,2.1786,2.1736,2.1674,2.1632,2.1635,2.1429,2.113,2.1126,2.0619,2.0086,2.0052,2.0002,1.9985,1.9968,1.9765,1.9157,1.9005,1.9469,2.0119,2.0216,2.0263,2.0,2.0117,2.0543,2.1188,2.1643,2.1821,2.2131,2.1799,2.0841,2.0802,2.1055,2.0726,2.0949,2.1189,2.1232,2.1345,2.1602,2.1896,2.1657,2.1033,2.0611,2.0244,1.9858,1.9433,1.9479,1.9413,1.9546,1.9665,1.9763,1.9877,1.9969,2.0127,2.0257,2.0369,2.0403,2.0327,2.0347,2.0372,2.0396,2.0396,2.0413,2.0459,2.0458,2.0461,2.0509,2.0599,2.0605,2.0605,2.0605,2.0604,2.0601,2.0596,2.0529,2.0511,2.0506,2.0468,2.0431,2.0292,1.4222,1.4189,1.4511,1.5145,1.6002,1.6419,1.6963,1.7533,1.7815,1.8303,1.8791,1.9286,1.9574,1.9545,1.9523,1.9523,1.9545,1.9523,1.9574,1.9596,1.9669,1.9705,1.9797,1.994,2.0135,2.0376,2.0613,2.0909,2.1166,2.1417,2.1617,2.1738,2.1899,2.2003,2.2065,2.2094,2.2123,2.2152,2.2152,2.2123,2.2068,2.2124,2.1995,2.1803,2.1346,2.0957,2.0771,2.0356,2.0154,1.9985,1.9985,1.9765,1.9579,2.0931,2.1671,2.178,2.1083,2.0691,2.067,2.1182,2.1822,2.2301,2.2648,2.318,2.3031,2.1922,2.1496,2.1789,2.2101,2.2436,2.2642,2.2609,2.263,2.2923,2.3125,2.2391,2.1639,2.1216,2.0831,2.0299,1.9748,1.9504,1.9405,1.9538,1.9564,1.9686,1.9825,1.9971,2.02,2.0356,2.0606,2.0597,2.0342,2.0313,2.0334,2.034,2.0347,2.0372,2.0408,2.0424,2.0439,2.0522,2.0621,2.0605,2.0605,2.0859,2.0957,2.0683,2.066,2.087,2.0918,2.1054,2.0807,2.0681,2.0463,1.4588,1.4543,1.4871,1.5303,1.5808,1.6022,1.6351,1.68,1.713,1.7605,1.8227,1.8887,1.937,1.963,1.9669,1.9669,1.969,1.9654,1.9654,1.969,1.9741,1.9812,1.9919,2.0115,2.0357,2.0595,2.0942,2.1261,2.1509,2.1691,2.1811,2.1899,2.2044,2.2163,2.2242,2.2242,2.2271,2.2299,2.2327,2.2299,2.2242,2.2299,2.2327,2.2124,2.1955,2.1667,2.1583,2.1245,2.1133,2.1032,2.11,2.11,2.116,2.1807,2.2313,2.2285,2.1936,2.1485,2.1504,2.1868,2.2528,2.305,2.3364,2.3879,2.3953,2.3028,2.3007,2.3282,2.3505,2.3838,2.3636,2.3584,2.3492,2.3639,2.3657,2.3254,2.2446,2.1804,2.129,2.0666,2.0042,1.9396,1.9611,2.0541,2.0574,2.0602,2.0602,2.0689,2.0774,2.0794,2.0946,2.1065,2.0974,2.052,2.0304,2.0311,2.0318,2.0334,2.0566,2.0531,2.0616,2.0599,2.0623,2.1328,2.1699,2.166,2.1621,2.1387,2.1621,2.2029,2.1904,2.1735,2.1416,2.1273,2.1487,1.4932,1.4918,1.5117,1.5328,1.5522,1.561,1.5757,1.5904,1.6338,1.7025,1.7742,1.8358,1.8986,1.951,1.9705,1.9705,1.969,1.9726,1.9726,1.9726,1.9726,1.9884,2.0061,2.022,2.0561,2.0909,2.1293,2.1509,2.1708,2.1857,2.1974,2.2044,2.2163,2.2299,2.2327,2.2299,2.2327,2.2327,2.2327,2.2327,2.2299,2.2327,2.2327,2.2327,2.2327,2.2327,2.2293,2.2293,2.2276,2.2181,2.2029,2.1995,2.1989,2.2258,2.2385,2.2459,2.2583,2.2503,2.2705,2.3025,2.3575,2.402,2.417,2.4209,2.4248,2.4247,2.4246,2.4369,2.4578,2.4596,2.4392,2.4229,2.4154,2.4098,2.4043,2.3988,2.3199,2.252,2.1969,2.1382,2.0831,2.0094,2.0604,2.1537,2.1745,2.1726,2.1672,2.1776,2.1827,2.1782,2.1819,2.2037,2.2139,2.1543,2.0581,2.0319,2.0327,2.114,2.139,2.1041,2.1055,2.193,2.2598,2.3008,2.3242,2.2812,2.2598,2.2402,2.2754,2.2969,2.2907,2.2681,2.2578,2.2539,2.2996,1.5299,1.5299,1.5403,1.5492,1.561,1.5712,1.577,1.5814,1.5948,1.6593,1.7503,1.7861,1.8523,1.9705,1.9705,1.9741,1.9726,1.9762,1.9797,1.9797,1.9869,2.0061,2.0235,2.0475,2.086,2.1246,2.1587,2.1751,2.1857,2.202,2.2094,2.2044,2.2192,2.2282,2.2327,2.2327,2.2327,2.2327,2.2327,2.2327,2.2327,2.2327,2.2327,2.2327,2.2327,2.2327,2.231,2.2327,2.231,2.2327,2.2327,2.2327,2.231,2.2349,2.246,2.2632,2.2799,2.2799,2.301,2.3405,2.3834,2.4151,2.419,2.419,2.4229,2.4266,2.4302,2.4391,2.4549,2.4564,2.4428,2.4266,2.4153,2.4153,2.4135,2.4116,2.3749,2.3602,2.3382,2.3199,2.3033,2.2703,2.2813,2.3344,2.3429,2.3212,2.2555,2.2628,2.2602,2.2642,2.2726,2.2978,2.3226,2.1938,2.0735,2.0427,2.0531,2.1509,2.2269,2.2086,2.2633,2.4127,2.4727,2.4512,2.4121,2.3672,2.3496,2.3496,2.3281,2.3456,2.369,2.3665,2.3625,2.3685,2.4024]}]]